GFSNW_925_thetae_000.txt.gz
Theta_e
316 316 314 314 311 314 316 320 322 314 313 322 318 320 316 310 314 314 316 316 316 317 317 318 317 317 317 312 313 318 316 319 321 320 318 313 316 318 316 321 322 321 320 321
316 316 315 315 313 312 316 320 319 314 316 328 324 317 317 316 316 315 316 317 316 316 318 320 317 317 315 313 314 319 317 319 322 321 316 314 316 315 315 317 318 321 324 323
316 316 316 315 315 312 314 318 325 321 318 317 321 320 320 320 316 316 316 316 317 318 319 318 319 318 317 315 316 313 315 319 321 323 321 319 320 319 318 319 322 322 323 322
316 316 316 316 316 314 314 316 319 313 325 321 320 320 319 321 321 317 315 318 318 318 321 317 319 317 317 316 314 317 318 320 319 319 318 317 317 318 318 319 319 321 321 320
315 316 316 316 316 315 313 319 319 314 316 314 316 315 319 319 317 317 317 318 317 317 318 317 319 317 318 318 317 317 316 319 316 317 317 317 318 317 317 317 318 318 319 321
315 315 315 316 316 316 315 309 308 319 308 315 317 318 318 317 317 315 316 318 318 319 318 316 316 316 317 317 318 318 318 318 319 321 317 316 319 318 317 318 317 318 320 319
316 316 315 315 316 316 314 312 313 310 324 316 318 313 316 317 318 318 316 317 319 317 313 315 316 316 316 317 317 316 318 315 317 320 320 323 318 315 315 315 314 314 315 315
316 316 316 316 316 316 316 313 314 317 317 317 314 315 316 316 316 316 317 317 316 314 315 320 318 319 317 316 313 315 316 317 321 322 322 319 316 316 315 314 314 313 314 313
315 315 316 315 316 316 316 316 313 314 310 318 316 318 317 319 319 318 315 313 312 314 317 316 321 320 319 317 317 308 310 313 317 322 322 322 318 315 309 309 316 312 311 313
316 315 315 314 315 316 317 318 316 316 318 317 314 318 319 316 317 319 316 315 313 313 311 318 319 320 316 318 320 318 316 314 315 317 318 319 315 310 309 317 319 312 314 314
315 315 315 315 314 316 316 315 316 316 312 316 312 313 317 315 316 319 315 316 314 312 315 316 316 316 318 317 317 320 319 319 317 318 320 321 313 308 315 315 317 315 315 315
314 315 315 314 314 314 314 314 315 315 312 314 314 314 314 314 314 315 314 316 315 316 318 314 315 313 311 316 317 314 317 317 321 317 319 317 314 313 313 316 315 315 314 314
312 314 314 313 314 312 312 312 313 313 304 311 312 315 314 313 313 313 316 308 313 311 312 314 309 313 312 316 316 316 314 314 315 316 315 315 314 315 315 315 314 313 313 312
312 313 313 314 314 312 311 311 312 313 307 304 312 313 314 313 313 312 313 314 314 313 315 306 307 312 311 314 314 314 314 312 313 315 315 315 314 314 314 313 313 313 310 310
313 313 313 313 313 313 312 310 311 311 312 307 309 308 311 313 313 313 313 313 315 315 306 305 311 310 311 312 313 314 312 313 314 317 315 316 316 313 312 312 312 311 310 309
313 313 313 313 312 310 308 305 307 309 310 304 306 305 306 310 311 312 312 313 313 313 310 307 308 308 309 309 314 314 313 312 312 314 313 312 312 311 311 311 311 311 310 309
307 306 307 308 309 307 306 305 304 305 307 299 303 305 302 301 306 309 311 311 312 311 308 305 310 310 310 308 313 313 312 311 310 311 311 312 311 311 310 310 307 305 305 304
303 303 303 303 304 304 304 304 305 305 306 300 303 306 306 302 306 308 303 310 308 308 311 311 312 313 309 312 311 310 309 309 309 309 310 310 309 307 304 302 301 301 302 303
301 301 301 301 301 300 300 302 302 303 303 301 301 306 309 302 305 304 305 305 308 309 307 311 311 312 312 310 309 308 308 309 309 309 307 305 301 300 300 300 300 301 302 298
299 299 299 300 300 300 301 301 302 301 298 298 302 303 308 306 305 306 307 303 306 309 308 308 307 310 308 309 309 309 309 308 305 303 301 300 300 300 300 300 300 298 297 297
297 298 301 299 300 301 300 303 301 303 303 301 303 304 306 303 305 307 306 308 305 308 308 309 310 308 307 305 304 302 300 299 299 298 299 299 299 299 299 297 296 295 294 294
297 298 298 299 300 302 302 303 303 302 304 303 304 302 301 303 301 306 305 307 307 308 300 303 305 306 301 300 299 298 298 298 298 297 298 298 298 299 298 296 294 293 291 289
297 296 298 299 300 300 300 300 304 305 304 299 300 304 299 299 297 300 302 305 306 299 303 305 305 301 299 298 298 298 298 295 293 296 296 296 297 296 293 294 291 290 289 287
296 297 298 298 299 299 300 302 302 299 299 298 300 302 302 301 302 303 305 304 301 304 303 305 302 299 298 298 298 297 298 295 293 293 294 294 292 292 288 288 287 287 288 286
297 297 297 298 297 296 296 294 296 298 297 299 299 298 297 300 299 301 302 302 302 302 304 303 301 298 297 297 297 297 296 294 292 293 293 292 290 289 289 286 286 286 286 285
293 295 295 295 295 297 294 293 296 296 295 295 295 296 296 298 300 300 301 302 300 302 302 302 298 298 297 297 297 295 295 293 293 292 291 291 289 289 290 287 287 286 286 286
292 293 294 295 294 294 295 294 296 295 295 296 295 296 296 297 298 298 299 300 302 303 301 299 298 297 296 296 296 294 293 293 293 291 290 289 288 287 287 290 288 286 285 285

GFSNW_925_thetae_003.txt.gz
Theta_e
316 315 315 314 313 314 320 324 326 319 318 327 323 323 319 311 317 317 318 318 319 320 320 322 320 320 320 317 317 320 320 321 324 323 321 317 318 321 322 325 325 325 328 326
316 316 315 315 315 312 321 323 322 321 322 332 327 320 319 318 318 318 319 320 320 319 321 323 320 320 318 317 318 321 320 322 325 323 321 319 322 321 321 321 323 325 327 326
316 316 316 315 315 314 318 322 334 324 323 323 323 323 322 322 318 319 319 319 320 321 322 320 322 321 319 318 318 315 316 320 323 325 323 322 322 321 321 322 327 327 327 325
316 316 316 316 315 315 317 319 322 319 328 325 323 323 322 323 323 320 319 320 320 320 322 320 320 320 320 319 316 318 320 323 321 321 320 319 320 320 320 320 322 324 324 322
316 316 316 316 316 315 319 323 322 319 320 319 320 318 321 320 319 319 320 320 320 320 321 321 322 320 320 320 319 320 318 322 319 320 318 319 320 319 318 318 319 320 320 321
315 315 316 316 316 318 319 316 315 324 315 319 320 320 319 318 318 319 318 319 320 322 321 319 319 319 319 319 320 323 322 320 320 320 319 318 321 320 320 320 319 319 321 320
316 316 316 316 316 317 320 318 318 319 326 322 320 318 318 319 320 321 319 319 321 319 317 318 319 318 318 319 319 320 321 319 316 320 323 324 319 317 317 317 317 317 316 316
316 316 316 316 316 316 320 317 318 322 322 322 320 319 319 319 319 319 319 319 318 318 319 322 320 320 316 318 317 318 319 319 319 325 322 319 317 317 317 317 316 315 315 315
316 315 315 316 316 316 318 319 318 318 315 323 318 320 319 322 322 321 320 317 317 318 321 318 320 320 318 317 316 314 315 319 317 323 323 322 317 316 314 314 318 316 315 316
316 316 315 315 315 316 317 320 318 319 320 321 318 321 321 320 320 322 320 318 317 317 320 314 317 321 316 319 321 321 318 316 318 318 319 318 316 316 313 319 319 317 316 315
316 315 316 315 315 314 317 319 319 319 321 319 318 318 320 319 319 322 319 318 319 318 319 316 317 319 318 318 317 319 319 320 319 319 321 323 315 315 318 318 318 317 316 315
315 315 315 315 315 315 315 317 319 318 317 319 318 317 316 316 316 318 318 318 317 319 320 316 317 316 314 316 317 315 317 318 322 319 320 319 319 317 317 317 317 315 315 314
313 313 314 315 315 314 313 315 315 315 307 313 315 318 316 316 316 315 321 318 316 317 316 320 314 314 316 316 316 316 315 315 319 319 316 317 315 316 317 315 313 313 313 312
314 313 312 313 314 314 313 312 314 315 308 304 312 314 315 315 315 315 315 315 315 315 318 308 307 310 312 315 314 315 314 314 315 317 317 315 315 315 314 313 312 312 312 311
314 314 313 313 313 313 313 312 312 313 314 308 308 309 313 314 314 315 314 314 316 319 312 306 312 313 313 312 313 314 313 315 315 315 315 317 316 313 311 312 311 311 310 307
313 313 313 313 313 313 309 306 308 310 312 306 308 306 309 311 312 314 315 315 317 317 315 307 311 312 312 311 314 312 313 313 314 315 314 314 312 311 311 311 310 306 304 304
311 311 312 313 313 311 307 305 306 307 309 299 306 305 304 303 308 313 314 314 316 314 313 309 311 311 311 309 313 314 311 312 312 313 313 311 310 311 310 306 304 303 302 302
305 306 307 308 306 304 304 303 304 306 305 301 305 305 306 304 309 312 309 312 308 308 311 310 312 313 309 312 312 310 310 309 309 308 309 311 310 308 304 303 302 302 302 303
303 303 302 302 301 300 301 301 302 302 302 300 300 308 310 305 308 306 307 306 307 309 309 313 311 313 314 311 309 309 309 309 309 309 308 306 304 303 303 302 302 302 301 299
300 301 301 301 300 299 301 301 302 299 297 297 302 304 308 308 306 305 306 305 305 308 309 309 312 311 309 308 309 309 308 307 305 304 304 303 302 302 301 301 301 299 297 297
301 301 303 300 300 302 302 304 302 303 302 299 302 305 307 304 307 306 304 306 308 310 307 311 311 309 308 306 306 305 303 302 302 301 301 301 301 301 301 301 299 297 295 296
301 301 300 300 301 303 303 303 303 303 305 305 307 304 303 305 304 307 306 306 307 307 305 305 308 305 304 303 302 301 301 301 301 300 300 300 299 299 300 299 296 296 293 290
299 298 302 301 302 302 300 302 305 307 304 301 301 302 300 301 299 301 303 306 309 303 306 307 307 305 302 300 300 300 299 299 297 299 299 298 297 298 296 296 295 292 291 289
299 301 299 301 301 300 301 302 304 300 299 301 301 301 301 302 303 303 304 305 303 305 305 307 307 301 300 299 299 299 299 298 297 298 297 296 294 294 294 290 289 288 290 288
298 297 299 299 299 300 299 299 301 299 299 300 300 300 299 299 299 300 301 301 302 303 303 306 304 301 300 299 298 298 298 297 296 297 297 295 293 293 292 290 287 288 287 287
296 297 298 298 298 299 296 295 297 299 298 297 297 298 297 297 300 300 300 300 298 303 306 303 300 299 299 298 297 297 296 296 297 297 297 295 293 291 292 291 288 287 288 288
295 296 296 298 296 299 298 298 298 297 297 297 297 296 297 296 298 298 297 299 302 303 301 300 298 299 299 299 297 295 296 297 296 297 296 295 292 290 289 290 290 289 288 287

GFSNW_925_thetae_006.txt.gz
Theta_e
316 315 315 314 314 315 322 326 331 322 317 330 327 325 320 312 319 319 320 320 321 322 322 323 322 321 321 318 318 321 322 322 326 324 322 320 319 322 322 328 327 326 326 326
316 316 315 315 315 313 319 325 325 324 325 335 329 321 320 320 320 320 321 321 321 321 322 324 323 322 320 319 318 321 320 324 325 323 323 320 322 321 321 322 323 325 328 326
316 316 316 316 315 315 318 324 328 326 325 324 324 323 323 322 320 320 320 321 321 322 323 322 322 321 321 319 319 317 317 320 323 326 324 322 323 321 320 322 324 324 324 323
316 316 316 316 316 315 321 321 325 321 332 326 325 323 322 323 323 321 320 321 321 321 322 322 320 321 321 320 319 319 320 324 321 321 320 320 320 320 320 321 320 321 321 321
315 315 316 316 316 316 323 325 324 321 321 320 322 318 321 321 321 319 321 320 320 320 322 321 322 321 321 321 320 321 321 322 320 320 320 319 319 319 320 319 318 319 320 320
315 315 315 316 316 320 321 319 317 328 318 321 323 322 320 319 319 320 318 320 321 320 321 321 320 319 319 320 321 322 322 321 318 321 318 317 320 318 319 319 318 319 319 318
316 316 316 315 316 317 323 321 320 315 327 325 321 319 319 320 319 321 320 319 319 319 319 319 319 319 318 318 318 319 320 316 315 319 316 322 318 317 316 318 318 317 316 316
316 316 316 316 315 316 321 320 321 322 315 323 321 320 320 319 319 319 319 318 320 319 319 320 315 322 318 317 317 318 318 316 321 321 322 319 317 316 317 317 317 316 317 317
316 316 316 315 315 316 317 321 320 320 311 322 319 320 320 324 324 324 321 319 318 318 323 317 318 321 318 317 316 317 316 315 324 325 322 321 318 315 315 316 318 318 317 317
316 316 316 315 315 315 316 321 320 321 321 322 321 321 323 320 322 323 322 320 319 318 318 318 317 318 315 317 317 317 320 316 318 320 320 318 316 316 316 320 320 316 316 316
316 316 316 316 315 315 315 319 321 320 320 320 319 320 321 320 321 325 321 321 323 318 317 316 319 317 319 318 316 318 317 319 318 316 319 321 316 318 318 317 317 316 315 314
315 316 316 315 315 315 314 317 319 319 319 320 320 320 319 318 318 320 320 319 319 319 320 315 316 315 316 312 317 313 316 316 318 317 318 316 316 316 316 314 316 315 314 313
314 314 315 315 315 315 314 315 317 317 306 316 317 319 317 317 317 318 321 322 318 318 319 319 311 313 316 316 316 316 315 314 316 315 314 315 315 315 314 314 313 312 312 311
313 313 313 313 313 314 314 313 314 315 308 304 313 314 316 316 316 317 317 318 317 317 318 313 309 310 312 314 314 315 314 314 314 313 314 314 314 314 314 313 312 311 310 309
313 314 314 313 312 313 313 313 313 314 314 309 308 309 313 314 315 316 316 317 318 318 314 308 311 314 312 314 313 313 313 313 314 315 314 314 314 314 313 311 311 308 307 304
312 313 314 314 314 312 310 307 310 311 314 307 307 308 309 312 313 314 315 317 318 318 317 310 313 313 309 310 314 313 313 312 313 314 313 313 313 311 310 309 308 305 303 303
310 311 312 313 313 311 308 306 307 309 310 300 309 310 305 307 309 312 314 314 316 316 314 310 308 308 311 306 314 313 313 312 311 311 311 310 309 311 308 306 304 302 302 301
308 310 311 311 308 305 304 304 306 308 307 301 308 305 305 305 310 311 308 310 307 306 308 305 307 309 306 310 312 311 311 310 310 309 309 308 306 305 303 302 302 302 301 299
305 306 305 304 302 301 301 302 303 303 303 303 300 306 310 306 307 303 303 303 305 305 306 309 309 311 312 311 311 310 310 309 308 307 304 303 303 302 302 302 301 301 300 296
301 302 301 299 300 300 301 300 298 296 295 296 301 304 310 308 305 305 305 302 304 308 308 309 311 311 310 310 309 308 306 304 303 304 303 302 302 301 301 301 301 300 297 296
302 302 300 301 300 302 301 301 300 299 302 299 302 304 308 306 306 305 302 304 305 309 308 311 311 310 308 307 306 304 302 302 301 301 300 300 301 300 300 300 300 297 295 295
302 302 300 300 302 303 303 303 303 303 305 305 305 305 304 303 305 306 303 305 305 305 306 306 307 307 305 304 303 301 301 300 300 299 299 298 298 299 299 299 299 297 295 294
301 299 301 301 302 302 302 304 306 306 305 301 303 304 302 302 300 302 301 305 304 303 306 306 307 306 305 302 301 300 299 298 298 297 296 297 298 298 295 294 294 293 293 292
301 299 300 301 300 300 302 303 302 299 300 302 303 302 304 301 300 300 301 303 305 305 305 306 307 303 301 300 300 299 298 295 295 296 297 297 296 296 294 293 292 291 289 290
298 298 299 300 300 301 298 300 300 299 299 301 301 301 301 301 300 300 302 301 302 303 304 306 304 303 301 300 300 298 297 294 294 296 296 296 296 292 292 293 291 288 288 288
296 295 298 299 301 299 298 297 300 300 299 298 300 299 297 297 299 299 300 301 300 302 306 303 300 300 300 298 296 297 297 296 296 296 296 296 296 293 293 293 291 289 288 288
294 296 298 299 300 299 300 297 298 299 297 298 298 297 297 298 299 298 298 300 302 302 301 299 299 298 298 296 296 296 296 296 296 296 296 296 295 294 292 291 290 288 288 288

GFSNW_925_thetae_009.txt.gz
Theta_e
315 315 315 314 314 314 322 327 326 319 322 327 325 320 319 313 318 318 320 320 322 322 323 323 323 323 321 317 317 322 318 319 317 321 319 319 317 321 321 322 326 318 320 324
315 315 316 315 315 314 316 325 324 323 324 321 317 319 320 320 321 320 321 321 321 320 322 322 322 321 319 317 319 319 318 315 316 319 319 318 320 319 319 319 313 320 318 321
315 316 316 315 315 315 317 322 312 322 322 322 321 321 322 321 320 319 320 320 320 321 322 321 320 320 320 318 319 317 316 318 317 319 320 320 320 319 318 318 312 318 318 318
316 316 316 316 315 315 321 319 319 319 319 320 321 322 322 323 323 320 319 321 321 321 318 319 321 322 321 319 317 318 318 317 319 319 319 319 319 318 318 318 317 318 318 317
315 315 315 316 315 317 322 320 321 319 318 319 320 318 321 321 319 319 321 320 321 320 320 322 322 320 320 320 319 318 319 316 319 319 319 320 318 316 316 316 316 317 317 316
315 315 315 315 316 322 324 320 319 320 316 317 315 317 320 320 319 319 318 319 319 315 321 319 319 318 317 317 318 316 316 313 311 322 317 315 312 313 315 316 314 315 315 315
315 315 315 315 315 318 322 319 321 304 310 311 318 320 319 319 320 320 320 318 318 320 318 316 312 312 314 315 316 315 311 308 310 320 312 320 314 314 313 314 314 314 316 315
316 316 315 315 315 316 321 320 321 307 308 316 319 320 320 319 318 320 319 319 319 317 315 310 311 308 307 309 315 315 315 308 314 317 316 316 315 315 315 313 314 317 316 316
316 316 315 315 315 315 317 321 320 312 306 311 320 318 320 314 314 314 320 318 317 316 305 312 312 308 312 313 314 315 312 309 312 311 313 314 311 313 315 315 317 315 316 316
316 316 316 316 315 315 315 319 320 320 310 313 320 317 317 319 317 311 317 319 315 314 309 313 315 310 314 312 309 308 307 308 311 306 313 311 311 313 316 314 317 314 315 314
316 316 316 316 316 315 315 318 319 319 312 314 318 319 319 319 316 310 314 313 309 307 311 312 312 313 309 311 312 310 309 308 313 307 317 313 313 312 311 312 312 312 312 312
316 316 316 316 316 315 315 315 317 318 317 315 318 319 319 319 319 317 314 314 316 312 307 306 308 313 310 311 316 312 313 311 309 310 309 310 311 310 310 311 311 312 311 310
315 315 315 315 315 315 315 315 315 316 307 313 314 313 315 316 317 317 312 309 315 314 311 308 308 313 309 314 313 310 313 312 310 310 312 311 311 310 310 310 311 310 309 308
314 314 314 315 315 315 314 314 315 315 308 304 310 314 314 314 314 315 317 317 317 316 312 306 306 310 311 311 312 313 312 311 312 312 311 311 310 309 310 310 311 308 305 305
313 313 313 313 313 313 313 313 313 314 314 307 305 309 312 313 314 315 315 317 316 310 308 306 308 305 308 306 307 310 312 313 312 313 311 311 311 309 308 309 306 305 305 301
313 314 313 313 313 312 311 307 311 313 314 306 307 307 308 311 312 312 313 315 314 314 309 305 308 310 309 309 314 311 311 311 311 312 310 310 308 308 308 308 305 302 301 300
310 311 311 312 313 312 309 307 309 309 312 300 306 305 302 305 307 310 310 312 311 311 308 307 308 308 311 305 314 312 311 310 310 310 310 309 307 304 303 302 301 301 300 298
307 309 310 309 309 305 305 305 307 309 309 302 309 306 303 304 301 305 304 302 302 304 307 303 305 306 304 309 311 310 309 309 308 308 305 303 302 301 301 300 300 300 299 297
307 308 307 304 303 302 302 304 306 306 304 304 301 306 309 304 304 301 301 301 304 301 304 305 306 306 310 309 309 309 308 307 305 303 301 300 300 300 300 299 298 299 298 295
303 302 301 298 301 301 302 301 297 296 294 295 300 301 306 306 301 301 302 299 303 306 305 304 305 307 307 307 307 306 301 302 301 300 300 299 298 298 298 298 297 298 295 294
302 300 297 300 301 302 299 298 300 298 300 297 299 301 304 302 304 303 299 302 302 306 299 300 299 303 305 304 303 301 301 301 300 299 298 296 296 295 296 295 295 295 294 293
302 301 300 300 299 298 301 301 300 300 301 300 301 301 302 299 301 301 300 303 302 303 298 303 302 301 303 302 300 300 298 298 298 296 295 295 295 295 295 294 293 295 294 293
300 298 296 298 297 301 298 300 303 300 299 300 299 302 299 298 297 300 300 302 302 299 302 302 299 302 300 299 298 298 297 295 294 295 295 295 295 295 295 294 294 292 291 291
294 296 293 294 297 296 298 299 301 298 298 299 298 299 297 297 298 298 298 296 298 302 301 297 296 299 299 298 298 297 296 290 291 293 294 293 292 293 295 295 294 290 289 290
293 294 294 296 295 297 296 297 297 296 296 297 297 296 295 293 294 295 293 295 299 296 295 294 294 297 296 296 295 294 290 288 287 293 292 293 293 292 292 293 294 293 290 289
294 294 294 295 294 297 295 296 298 295 294 292 292 293 290 290 291 292 293 294 294 293 293 292 294 295 295 294 292 292 294 294 294 294 294 293 293 293 294 294 292 291 290 289
292 290 291 296 294 297 295 295 295 296 290 290 289 290 291 291 290 292 295 292 290 291 291 290 293 293 293 292 292 292 293 293 292 292 292 293 294 294 292 292 292 291 290 288

GFSNW_925_thetae_012.txt.gz
Theta_e
314 315 315 314 314 316 321 324 316 320 325 321 317 316 317 314 317 318 319 319 320 321 321 321 322 322 319 317 317 320 317 315 316 319 316 317 318 319 318 315 322 316 319 321
314 315 315 315 314 315 318 319 319 324 324 315 310 318 319 319 319 319 320 320 319 319 321 321 321 321 318 316 318 318 316 313 314 315 314 316 319 318 317 316 311 316 313 315
315 315 315 315 315 315 320 315 314 316 315 317 316 319 320 320 318 319 319 319 319 319 320 318 318 320 319 317 317 315 314 316 315 315 315 318 319 318 316 316 311 317 318 317
315 315 315 315 315 318 322 313 315 315 314 316 317 319 321 321 321 319 318 320 319 319 317 317 322 320 319 318 316 316 315 315 316 316 317 318 319 319 318 318 316 316 316 316
315 315 315 315 315 321 317 316 318 314 314 318 316 314 319 320 318 319 319 320 319 318 320 319 321 319 318 318 317 317 315 314 317 317 317 317 319 318 316 316 315 315 314 314
315 315 315 315 316 323 319 319 319 313 309 312 312 313 319 319 319 318 317 317 317 313 319 317 317 316 316 316 317 313 314 310 310 318 313 314 317 314 314 313 313 312 313 313
315 315 315 315 318 322 320 320 312 304 307 305 313 320 318 319 318 319 318 316 315 318 314 313 310 309 310 311 312 314 309 306 307 315 313 319 315 312 312 312 312 312 315 315
315 315 315 314 315 320 320 320 317 303 305 311 316 319 319 317 316 318 319 318 316 313 309 308 306 305 305 305 314 315 312 309 311 312 316 315 314 313 314 315 314 314 315 314
316 315 315 315 315 316 321 320 320 309 305 309 317 317 317 312 312 311 318 316 315 309 302 304 304 306 309 312 313 312 309 306 305 312 316 316 309 310 314 315 313 314 313 312
316 315 315 315 315 315 319 319 319 317 309 310 318 314 313 314 311 308 310 317 312 309 308 308 307 308 311 312 307 305 306 308 305 301 309 306 308 310 311 306 310 311 311 311
315 315 315 316 316 315 315 317 319 317 309 312 317 318 317 317 312 309 311 312 306 307 311 310 306 311 307 310 310 308 308 307 311 306 311 313 310 311 312 309 308 309 309 310
316 316 316 316 316 315 315 316 317 318 315 313 318 317 318 319 317 313 311 313 311 308 307 307 303 308 308 307 315 310 313 310 308 308 308 307 309 310 308 309 309 308 310 309
315 315 315 316 316 315 315 315 315 316 305 309 312 312 315 315 317 318 310 303 313 311 307 304 306 311 307 315 313 313 310 310 307 310 310 309 309 309 309 308 309 308 306 305
315 315 315 315 315 315 315 314 315 315 308 304 309 312 313 314 314 314 316 316 315 314 309 305 307 309 310 311 314 313 312 312 312 312 311 310 310 308 309 310 306 305 304 304
314 314 314 314 314 315 314 313 314 315 314 307 304 309 312 313 314 315 316 315 314 309 307 307 308 305 308 304 305 310 311 312 312 314 311 311 311 309 308 305 304 304 301 301
313 313 313 313 313 312 311 308 312 312 314 306 308 308 308 312 312 312 312 313 312 311 307 305 306 308 309 310 312 310 310 311 312 313 311 310 308 305 303 302 301 301 301 300
311 311 312 312 312 311 310 308 310 310 312 301 306 305 302 304 306 307 308 309 308 310 308 306 308 308 311 305 315 313 310 310 311 309 310 308 306 304 302 300 300 299 300 299
308 310 310 310 309 307 306 307 310 310 312 302 307 306 303 304 299 301 301 301 301 304 307 302 305 305 303 311 312 310 309 309 308 305 304 304 300 300 300 300 299 298 297 298
305 306 306 305 304 303 303 306 307 308 306 305 302 306 309 304 303 299 298 297 305 300 303 304 306 305 310 310 309 309 307 307 304 301 300 300 299 298 297 297 296 297 297 296
304 303 301 297 301 302 303 302 298 297 295 295 301 300 305 305 300 301 301 299 303 306 304 304 305 309 307 307 307 306 300 300 299 298 297 296 295 295 294 294 294 294 293 294
301 299 297 301 301 301 298 298 301 298 300 297 298 300 303 301 304 303 299 303 301 304 299 305 301 303 302 300 298 298 299 299 298 297 296 295 294 294 293 292 293 293 292 292
301 300 300 301 298 297 301 301 298 300 300 298 299 300 301 298 300 300 299 302 301 301 293 299 302 297 298 297 297 297 296 296 296 295 295 295 294 294 293 292 292 293 293 292
298 298 296 296 297 297 295 301 301 300 299 299 299 301 298 298 297 299 293 297 295 296 301 301 296 298 299 299 299 297 295 294 294 295 295 294 294 294 293 291 293 294 291 291
293 292 295 294 295 295 295 296 300 297 297 298 298 298 296 294 292 298 298 295 296 299 301 296 294 297 297 295 294 294 293 289 289 291 292 292 292 291 292 291 292 292 290 290
289 291 293 295 295 294 295 296 296 295 295 295 292 292 292 291 291 296 294 292 299 298 293 292 292 295 294 294 294 293 289 288 289 292 292 291 290 289 289 291 292 293 292 291
288 290 293 291 294 295 295 296 297 293 289 289 290 289 288 289 288 289 291 291 292 291 287 290 292 293 293 292 291 292 292 291 291 292 291 291 290 290 290 291 292 293 292 291
288 287 289 293 290 290 295 292 294 295 293 288 285 288 291 289 286 289 292 289 288 289 289 290 290 291 291 291 291 291 291 291 291 291 291 290 291 291 289 287 292 292 291 291

GFSNW_925_thetae_018.txt.gz
Theta_e
313 314 314 314 316 319 324 313 313 322 321 315 308 313 314 314 317 316 317 317 318 319 319 320 320 320 318 314 316 318 315 312 313 316 314 314 315 316 314 312 316 313 312 315
313 314 314 314 314 319 321 316 316 318 316 312 307 315 318 317 318 317 318 318 318 317 318 319 319 318 315 314 316 317 314 312 311 309 313 312 316 316 314 310 308 317 317 313
313 314 314 314 314 320 318 311 314 314 311 310 314 317 318 319 316 316 315 317 316 317 316 316 319 319 318 315 315 313 313 312 312 311 310 311 315 316 314 314 315 315 315 314
313 314 314 314 315 319 317 308 313 313 312 315 315 316 317 319 318 316 315 317 317 317 316 318 320 318 316 315 314 314 312 316 313 312 312 313 315 315 315 315 314 317 315 314
313 314 314 315 316 320 316 313 315 308 311 314 314 311 318 320 317 317 318 317 316 316 316 316 317 318 316 316 315 315 311 311 314 313 312 312 313 313 314 314 314 314 315 314
314 314 314 315 318 321 315 314 313 311 305 307 309 310 316 317 315 316 315 315 314 312 316 315 315 313 313 314 315 312 312 309 308 308 310 309 307 309 312 313 312 311 312 310
314 314 314 317 319 319 318 315 309 304 307 302 311 317 316 316 316 316 315 313 313 313 311 310 307 305 304 308 311 311 307 304 306 307 307 312 311 310 310 311 310 308 308 310
314 314 314 315 319 319 319 315 310 303 303 307 315 316 315 314 313 315 315 316 311 308 307 307 307 305 302 304 309 310 307 305 309 315 313 311 313 310 311 311 310 310 310 312
314 314 314 314 319 318 319 316 313 307 305 308 314 314 314 308 308 308 316 312 310 305 299 303 306 308 306 311 310 306 305 301 304 310 314 314 309 307 312 311 312 309 312 311
315 314 314 314 315 319 318 318 317 313 304 306 314 311 311 309 308 305 306 314 309 305 304 308 301 306 307 310 304 302 304 307 313 312 314 312 307 306 307 309 311 309 311 309
315 315 315 315 315 316 318 317 317 315 305 309 313 315 313 311 308 308 309 310 304 305 306 305 302 297 305 308 308 306 307 305 304 305 309 309 305 309 311 308 307 308 307 306
314 315 315 315 315 315 316 317 317 317 312 310 315 317 317 315 312 309 306 310 307 306 306 305 300 301 298 303 312 307 310 309 309 309 307 306 306 309 307 307 308 306 307 305
314 314 314 315 315 315 315 316 315 315 301 307 310 312 314 316 317 316 309 300 307 306 304 301 302 305 302 311 308 309 309 308 308 310 310 308 310 309 308 307 307 306 305 301
315 315 315 315 315 315 315 315 315 314 305 303 307 310 311 313 314 316 316 313 310 305 301 301 304 309 308 309 312 312 310 311 311 311 312 311 309 308 308 307 303 301 301 300
314 315 315 315 315 315 315 315 314 315 313 306 304 310 311 311 313 314 315 313 308 306 305 304 308 303 307 304 305 309 311 312 313 313 311 311 311 306 303 300 298 297 299 299
315 315 315 315 314 314 314 310 314 315 314 305 309 307 307 307 308 310 311 311 308 307 307 304 305 307 308 308 310 311 310 311 311 312 311 306 303 299 297 296 297 298 299 299
315 315 315 314 314 314 312 309 309 313 314 302 306 306 299 303 303 304 305 307 308 309 305 303 306 306 309 305 314 311 310 309 308 308 305 304 302 301 298 298 297 294 293 293
313 313 312 313 311 311 309 309 310 312 312 305 306 306 303 303 298 301 300 300 300 302 306 301 304 304 302 310 309 307 307 307 301 297 298 300 298 296 293 294 293 292 292 292
312 311 310 306 307 305 305 308 309 311 308 303 301 307 310 303 302 299 299 298 305 299 303 303 304 304 310 302 300 300 298 302 296 296 295 295 295 294 294 293 293 291 290 290
305 306 303 298 301 304 305 305 300 298 296 296 302 300 306 305 299 301 302 299 303 305 303 300 304 306 298 297 297 297 295 295 296 296 296 295 295 294 294 292 291 290 290 290
303 298 297 301 301 302 298 300 301 299 302 297 299 299 303 300 304 304 299 304 302 303 296 303 303 303 297 295 295 295 295 295 296 296 295 295 295 292 291 291 292 292 291 290
302 301 301 301 298 298 303 302 299 300 302 298 299 300 300 298 298 301 298 302 300 300 293 298 295 296 295 296 295 295 295 294 294 293 292 292 292 292 291 291 291 291 291 290
300 299 297 297 296 302 303 300 299 300 297 298 298 300 297 297 297 298 299 299 295 295 295 296 294 295 297 296 295 294 294 293 292 291 291 291 291 291 291 289 289 289 288 289
293 295 299 296 297 296 293 294 295 294 297 298 297 297 297 294 296 296 298 294 294 297 295 294 292 296 296 294 292 291 291 290 288 289 290 290 289 289 289 289 289 288 286 288
291 289 293 292 290 293 295 295 297 295 295 295 295 294 291 294 291 294 293 295 296 293 291 288 292 294 292 292 292 290 288 288 287 290 289 289 289 287 287 289 289 289 288 288
286 285 290 291 295 294 294 296 297 293 293 291 290 285 286 289 289 293 294 292 290 288 284 289 291 292 291 291 290 290 290 289 289 289 289 289 289 288 288 289 288 288 289 288
285 286 289 286 285 288 285 295 295 293 292 293 282 286 288 286 284 288 288 286 285 286 286 286 289 291 290 290 290 289 290 289 289 289 290 289 289 289 287 286 288 289 289 289

GFSNW_925_thetae_021.txt.gz
Theta_e
311 313 314 314 316 319 323 310 321 319 322 316 308 314 313 314 317 316 317 317 318 319 318 320 320 320 317 313 315 318 315 315 318 316 314 314 315 316 315 319 318 319 320 318
311 312 314 314 316 319 320 316 317 316 316 316 311 315 317 316 317 316 317 318 317 316 318 319 319 318 315 314 316 317 315 315 314 310 314 313 318 316 314 313 313 319 320 317
311 313 314 314 317 320 316 312 318 315 311 310 315 316 317 319 315 315 315 316 316 316 317 317 319 319 317 315 315 313 314 314 313 313 311 312 316 316 314 317 320 317 318 316
311 313 314 314 317 318 315 309 314 312 314 316 314 315 316 318 318 315 315 317 316 317 316 318 319 318 316 314 314 314 315 318 315 314 314 314 315 316 316 317 317 319 317 316
312 313 314 315 317 319 315 314 315 309 310 313 314 312 317 318 317 316 318 318 316 315 316 315 318 318 316 316 315 315 312 316 314 315 313 312 314 314 314 315 316 316 316 317
313 314 314 317 318 319 315 313 310 313 306 307 312 312 316 317 316 315 315 315 315 313 316 315 314 313 313 314 315 314 314 314 313 315 310 311 313 310 313 314 313 315 315 313
313 314 314 318 318 318 318 314 308 307 310 306 311 316 315 315 315 316 314 312 313 312 310 309 308 305 306 309 311 311 309 310 310 316 310 318 313 310 312 313 312 311 310 310
314 314 314 317 318 319 317 313 309 306 306 307 314 314 314 313 312 314 315 315 310 308 309 311 310 310 305 306 308 310 309 309 313 315 315 314 314 312 311 313 313 310 310 312
314 314 314 314 318 318 316 314 311 306 306 311 313 314 312 311 310 312 314 311 308 306 305 309 313 313 309 313 310 306 306 304 313 313 317 318 313 308 312 311 314 309 312 311
314 314 314 314 317 318 317 316 316 310 307 307 311 313 314 309 309 310 307 313 310 306 307 311 313 316 308 314 308 304 308 309 314 314 313 314 310 308 307 314 315 311 311 310
314 314 314 315 314 317 317 316 315 313 305 309 312 312 311 311 310 313 310 312 308 307 310 313 310 309 310 311 309 308 310 310 309 308 312 314 306 309 312 312 309 310 309 309
314 314 314 315 315 315 316 317 316 316 311 310 314 316 315 313 311 310 307 311 309 309 308 306 304 308 302 306 316 306 313 311 313 311 313 308 306 309 309 308 308 307 307 302
314 314 314 315 315 315 315 315 315 314 301 307 310 312 313 316 316 314 313 304 308 307 305 305 305 311 306 313 309 311 309 307 311 310 312 311 310 311 309 307 304 302 301 299
314 314 314 314 315 315 315 315 314 313 304 304 309 309 310 313 314 316 315 311 307 303 303 302 305 310 309 309 313 312 312 311 312 312 312 312 310 309 305 301 299 298 297 298
314 314 314 315 315 315 315 315 314 314 312 306 305 308 309 310 312 314 314 311 308 308 305 304 309 305 308 307 307 310 311 313 313 314 312 313 308 303 300 298 297 297 298 299
314 314 314 315 315 314 315 310 314 314 314 304 306 305 305 306 308 310 310 310 308 308 307 305 306 308 309 309 310 310 310 311 311 313 310 305 302 299 298 297 298 296 296 294
313 314 314 315 315 314 313 312 310 313 314 303 308 306 300 302 303 303 304 307 310 310 306 304 306 306 309 305 312 311 308 306 302 303 304 303 301 300 298 295 294 294 293 292
314 314 314 314 313 313 311 311 311 313 312 304 306 307 303 302 301 303 300 302 302 303 306 301 305 304 303 310 305 300 301 297 296 296 297 297 296 295 296 295 295 294 294 293
313 313 312 308 309 306 307 310 312 311 308 304 302 308 310 302 302 300 300 300 305 300 303 303 305 305 309 301 299 298 298 299 296 296 296 296 295 295 295 295 294 294 294 293
311 309 305 299 301 304 306 305 301 298 296 296 303 300 307 306 300 301 303 299 304 307 304 301 304 306 297 297 297 296 296 297 297 296 295 295 294 294 294 293 292 292 292 292
305 298 297 300 302 302 298 301 302 299 301 297 299 299 304 300 305 305 300 304 302 305 300 305 306 305 298 296 296 295 295 295 296 296 295 294 293 292 292 292 291 291 290 290
302 300 300 300 298 298 301 302 299 301 304 299 300 300 300 298 299 302 299 304 301 303 296 301 301 298 297 296 296 295 294 294 293 292 291 291 290 291 290 290 290 289 289 288
302 299 296 297 296 304 304 304 300 301 298 298 299 300 297 297 297 299 301 301 300 295 297 299 297 296 297 297 296 293 292 292 290 291 290 290 290 291 290 288 289 288 287 287
295 300 301 299 300 297 296 296 297 296 297 298 298 297 298 294 298 296 299 296 295 299 297 297 296 297 297 295 292 292 292 289 288 289 290 290 289 289 289 288 288 287 286 287
291 293 297 295 293 294 295 296 297 295 295 296 296 294 293 294 295 295 295 297 297 297 296 294 296 294 293 292 292 292 289 288 287 290 289 289 289 288 287 289 289 287 287 287
289 289 292 292 295 295 296 297 297 294 293 292 291 290 294 294 293 295 296 295 294 293 290 291 292 292 292 291 291 290 290 289 289 289 289 289 289 288 288 288 287 288 288 287
288 289 288 288 288 293 291 295 295 293 295 293 289 290 292 288 290 292 292 291 291 290 290 289 290 291 291 290 289 289 289 289 289 289 289 289 289 288 287 286 288 288 287 287

GFSNW_925_thetae_024.txt.gz
Theta_e
311 313 314 315 319 320 324 320 323 319 320 324 320 322 319 316 320 320 321 322 322 323 323 323 323 323 321 318 319 319 319 320 318 316 317 318 319 320 319 322 322 322 322 318
311 313 314 316 319 319 321 325 325 317 320 330 326 320 320 320 321 320 321 322 322 321 323 324 322 321 318 318 320 320 319 319 316 316 318 319 320 319 318 317 319 320 324 319
311 312 314 316 319 319 318 324 333 323 320 318 322 322 322 322 319 320 320 320 320 322 323 322 323 322 320 319 319 313 317 319 315 314 313 314 314 315 316 318 322 319 319 318
311 313 313 316 319 317 316 321 325 321 329 323 322 322 321 322 321 320 320 321 321 322 324 322 323 322 320 318 315 319 320 319 318 317 316 316 316 317 316 317 318 320 319 317
312 313 314 316 318 317 318 324 325 319 320 320 322 320 322 321 320 320 321 322 320 319 320 317 321 319 319 318 319 320 319 321 318 319 316 316 317 316 316 316 317 317 317 318
312 313 314 317 317 317 321 316 313 324 313 320 324 322 321 320 321 319 320 321 321 322 319 318 319 319 319 318 318 320 320 321 320 325 315 316 321 316 315 316 316 316 317 315
313 313 314 318 318 317 319 317 316 326 324 321 322 320 320 321 320 322 318 319 320 317 316 316 316 314 315 317 317 317 317 318 316 322 319 325 316 314 314 315 315 314 314 314
313 314 314 318 318 318 316 311 316 321 318 320 319 320 320 319 319 320 320 318 315 316 318 322 320 318 317 315 313 315 316 317 318 320 318 316 315 314 314 314 315 314 314 314
314 314 314 316 317 316 314 311 310 316 314 323 317 320 320 322 323 322 319 315 313 316 320 322 323 321 315 315 315 311 312 313 321 314 320 319 315 313 313 313 316 314 314 314
314 314 314 315 317 317 316 315 313 317 323 315 317 322 321 319 321 323 320 319 318 316 315 317 320 324 314 317 319 317 313 314 317 317 319 317 314 312 311 317 318 313 312 313
314 314 314 314 316 317 316 315 314 317 318 317 317 316 318 317 320 325 319 321 319 315 319 320 317 318 319 316 315 315 318 319 317 315 316 318 311 312 316 315 314 313 313 311
314 314 314 315 314 316 316 319 315 314 319 318 315 317 315 317 316 319 318 320 319 321 320 314 313 318 311 320 320 313 316 315 316 315 317 314 313 312 312 314 314 311 305 300
314 314 314 315 315 315 315 315 315 314 315 316 318 319 315 316 316 315 321 317 316 317 315 317 313 315 316 316 317 317 315 313 316 315 314 314 314 314 310 309 305 303 301 301
313 314 314 314 315 315 315 315 314 313 309 310 317 310 312 312 315 317 316 315 311 312 313 307 311 319 316 319 317 316 315 314 315 315 314 314 313 311 305 301 300 299 298 298
313 314 314 314 315 315 315 315 314 314 318 317 316 312 309 309 313 316 315 315 316 312 311 313 318 317 314 312 311 313 314 315 316 316 314 313 309 302 300 299 298 297 297 298
314 314 314 314 315 315 315 318 314 314 313 314 317 311 309 308 311 314 315 315 316 314 316 311 315 313 316 310 314 313 313 313 314 313 310 306 301 299 297 297 297 297 297 297
313 314 314 314 314 314 315 315 312 314 313 309 312 311 307 304 308 308 311 310 314 316 314 310 314 313 313 307 312 311 306 304 304 307 304 302 301 299 298 297 297 296 295 295
313 313 314 314 314 314 313 311 312 314 311 308 309 310 310 305 308 308 304 308 306 307 311 303 309 308 307 311 309 304 302 299 299 300 303 302 298 298 298 296 295 295 295 294
313 313 313 311 310 308 309 311 313 313 310 309 307 314 314 305 305 304 305 305 310 304 306 305 306 307 312 308 303 301 300 302 301 299 299 297 296 295 295 294 294 294 294 293
312 310 308 300 303 306 308 308 303 300 297 297 304 304 310 309 305 307 309 305 309 310 306 303 305 307 299 300 300 301 299 299 299 299 295 294 295 294 294 294 293 293 293 292
306 299 297 300 302 302 299 302 304 301 303 299 300 301 305 302 308 306 302 305 305 309 307 308 308 308 302 300 298 297 296 296 295 295 294 294 294 294 294 294 293 292 292 292
301 300 300 300 299 298 302 303 300 303 307 300 302 301 301 298 300 303 300 306 304 308 302 304 307 305 301 298 296 296 296 294 294 293 293 293 293 293 293 292 292 292 291 289
299 295 295 297 297 305 307 307 306 305 302 302 301 301 299 298 300 301 304 307 307 299 302 305 304 301 299 298 296 296 294 293 292 292 292 293 293 292 291 291 290 289 290 289
296 298 302 303 304 304 304 304 304 300 301 301 301 300 302 299 302 302 305 300 300 303 303 304 301 301 300 298 296 295 295 292 291 291 292 292 291 290 290 289 289 288 288 289
297 300 302 301 296 298 298 298 300 298 299 301 300 300 301 300 300 300 300 301 302 303 303 302 301 300 298 296 295 295 295 292 291 292 292 291 290 290 290 290 290 289 288 288
295 295 297 295 299 299 299 299 298 296 295 295 298 299 302 300 300 300 302 301 302 301 300 301 299 296 295 294 293 292 291 291 291 292 292 291 290 290 290 289 289 288 288 288
296 295 294 295 298 300 298 299 299 294 298 301 297 299 300 295 299 300 298 300 299 299 299 296 295 295 294 293 292 291 291 291 291 292 292 291 291 289 288 290 291 289 288 288

GFSNW_925_thetae_027.txt.gz
Theta_e
312 313 315 319 319 320 322 323 324 325 324 322 322 326 322 317 321 322 323 323 323 324 324 324 324 324 324 320 320 321 319 320 320 317 318 319 320 321 321 323 322 323 324 321
311 313 315 319 319 323 325 324 325 324 326 329 325 323 322 322 322 322 323 324 324 324 324 325 324 324 321 320 321 323 320 322 321 319 321 321 321 320 319 319 320 319 326 321
311 313 315 319 319 320 323 325 332 325 326 325 323 324 323 323 322 322 323 323 323 324 324 324 325 324 322 321 321 313 318 320 319 320 318 317 317 317 316 317 322 322 321 319
311 312 314 317 319 317 321 324 328 326 328 326 325 324 324 324 323 322 322 323 323 324 325 324 324 323 323 321 316 319 321 322 319 319 317 316 316 317 317 317 317 321 319 319
311 313 315 317 319 316 323 323 327 325 327 325 325 321 324 323 322 322 322 323 323 322 324 320 323 321 320 320 320 320 320 323 321 320 317 315 315 316 316 316 317 317 317 317
311 313 315 317 318 318 323 321 322 327 319 326 325 325 323 323 323 322 322 322 321 323 320 321 321 320 320 319 320 321 321 323 321 324 319 318 324 319 316 316 316 316 318 317
312 313 315 317 318 319 324 323 322 332 327 326 325 322 322 322 322 323 322 321 322 321 319 319 319 319 319 319 320 320 323 321 320 323 319 327 317 315 315 316 315 315 315 316
312 313 315 318 316 317 321 316 322 326 328 325 323 322 322 322 322 322 322 321 320 320 320 323 322 319 316 319 316 317 320 321 321 323 320 316 316 316 316 316 316 315 316 316
313 313 314 317 317 315 319 317 318 323 320 328 322 324 324 326 326 325 322 319 318 321 324 323 323 323 317 318 318 315 317 319 323 319 322 321 316 315 314 314 318 316 316 316
313 313 314 316 317 316 322 320 314 320 328 321 322 325 325 323 324 326 323 322 322 321 321 322 323 325 317 317 320 316 316 318 321 319 321 318 314 314 313 318 320 316 315 313
313 314 314 314 316 316 321 320 314 323 324 321 320 319 322 322 323 328 324 324 324 324 319 320 323 322 321 319 316 319 319 319 318 318 320 319 314 314 318 317 316 315 313 308
314 314 314 314 315 316 319 320 314 319 321 323 320 320 319 320 320 322 323 322 323 323 325 319 320 325 320 321 321 316 318 318 319 318 319 317 315 315 315 315 314 310 305 304
314 314 314 315 315 314 318 320 319 319 322 320 321 322 318 319 320 319 324 323 320 322 322 323 318 317 320 318 321 318 317 316 320 318 315 314 315 315 312 310 308 305 304 304
314 314 314 314 315 315 318 319 318 318 315 317 322 313 317 315 318 320 320 319 318 319 319 312 315 317 319 321 319 319 318 316 316 317 316 315 312 309 306 304 302 301 300 300
313 314 314 314 314 315 318 318 317 317 321 321 321 315 313 313 316 319 319 318 320 320 314 312 317 321 320 318 318 318 316 316 319 318 314 315 310 305 302 301 301 300 300 300
313 314 314 314 315 316 318 319 318 316 319 319 321 316 313 313 314 318 318 319 319 319 319 314 319 317 317 314 317 314 314 314 313 315 308 305 303 301 299 301 300 300 299 298
313 314 314 314 314 317 317 317 316 315 317 316 315 317 312 310 314 314 316 314 316 317 318 317 317 317 315 317 316 313 312 309 308 307 305 302 300 303 301 300 300 298 296 296
313 314 314 314 314 314 315 312 314 314 315 314 309 314 313 309 313 312 309 313 312 315 316 310 314 315 315 315 313 313 309 304 304 305 306 306 304 301 301 298 297 297 296 295
311 313 313 312 312 311 314 312 313 313 314 311 307 311 313 309 309 308 308 310 313 308 308 308 311 311 314 314 311 307 304 303 304 303 302 300 298 297 297 296 296 296 295 294
311 311 309 301 305 309 310 311 307 305 307 305 310 313 313 311 308 309 308 309 313 312 309 305 305 308 303 305 305 304 303 303 302 302 299 297 297 296 296 296 295 294 294 293
307 300 298 301 303 304 301 303 307 303 305 302 307 310 311 306 311 310 307 308 307 312 310 310 312 311 308 303 302 301 301 300 297 297 297 296 295 295 295 295 294 293 293 293
301 301 301 301 299 299 307 306 302 304 310 301 302 302 303 301 303 303 300 307 306 312 307 307 308 309 305 303 301 300 298 297 296 295 295 294 294 294 294 294 293 293 292 291
300 296 296 298 297 305 307 308 309 307 302 301 300 301 299 298 300 300 303 308 310 304 305 307 308 305 303 302 300 299 298 296 293 294 293 293 293 293 293 293 292 292 291 291
296 298 303 303 305 305 306 309 307 302 302 302 300 300 301 299 302 303 308 304 304 306 306 307 305 303 302 301 299 298 297 295 293 293 293 293 293 293 292 291 291 291 290 291
298 299 304 303 299 299 299 298 301 299 300 302 303 303 305 304 303 305 303 304 306 305 307 306 304 302 301 300 298 297 296 295 293 293 293 293 292 292 292 292 292 292 291 290
298 298 300 299 301 300 299 299 299 298 300 300 302 304 305 304 304 303 305 306 305 306 304 303 302 301 299 298 296 294 293 293 292 292 292 293 293 292 293 292 291 290 291 290
301 298 298 298 300 300 299 300 299 296 300 303 302 304 303 299 303 303 302 304 303 302 302 301 299 297 296 294 294 293 293 293 293 293 293 293 293 292 292 292 293 293 292 291

GFSNW_925_thetae_030.txt.gz
Theta_e
312 314 317 318 317 317 320 326 324 327 321 322 323 327 324 317 321 323 324 324 322 324 323 324 324 324 325 320 320 321 318 321 325 318 318 319 319 321 321 331 324 328 328 324
312 313 317 319 319 319 326 323 328 326 328 329 328 325 323 322 322 322 323 324 324 325 325 326 325 325 322 320 323 323 320 324 328 323 321 321 318 318 318 319 323 322 326 321
312 313 316 319 319 321 322 330 333 323 325 329 324 325 324 324 323 324 323 324 324 325 325 325 325 325 323 321 321 315 320 321 320 323 318 317 316 316 316 317 326 323 323 320
312 313 316 318 319 320 319 329 328 323 328 327 325 323 323 325 324 323 323 323 324 324 325 325 325 325 323 321 316 319 322 323 321 320 317 316 315 314 315 315 318 319 319 318
311 313 316 317 318 317 323 328 327 326 329 325 325 322 324 324 323 324 323 323 323 324 325 323 324 323 322 322 320 321 321 325 323 322 317 316 314 314 316 316 316 316 317 317
312 313 315 317 318 318 325 324 326 328 323 327 328 327 324 324 324 324 323 323 323 326 323 323 322 321 320 319 321 321 323 327 325 326 320 319 325 321 316 316 316 317 319 317
312 313 315 317 317 321 327 326 325 333 331 327 325 324 323 323 324 323 323 322 325 323 319 319 319 319 319 319 321 321 324 323 322 322 320 324 317 315 315 315 316 316 315 316
312 313 316 317 316 318 323 321 327 328 324 327 325 324 323 324 323 323 324 323 322 320 320 326 320 322 316 319 317 318 321 323 321 325 322 318 317 317 316 317 317 316 317 316
312 313 315 317 315 319 322 317 322 327 323 328 323 323 324 327 327 326 322 321 321 321 327 323 323 327 319 321 319 317 318 322 325 320 319 321 318 315 315 315 318 318 316 316
313 313 314 317 316 320 323 320 320 326 332 324 325 327 328 324 327 329 324 322 323 323 321 315 319 327 317 321 321 318 316 317 319 319 319 318 315 315 314 317 320 317 314 312
313 313 314 315 316 318 324 319 317 327 326 323 323 322 325 324 327 331 325 326 327 328 317 318 323 323 326 322 318 319 317 318 317 318 319 319 315 316 318 318 317 314 312 309
313 314 314 314 315 316 322 322 318 322 325 325 323 321 321 322 322 324 326 323 325 325 324 320 323 323 319 321 325 315 321 322 323 320 319 318 317 317 315 314 312 310 308 307
313 314 314 314 314 315 321 322 321 321 327 322 322 323 320 320 321 322 326 329 321 323 324 321 317 313 321 317 323 319 316 316 324 320 317 316 316 314 311 309 308 306 305 304
314 314 314 314 315 315 321 321 321 320 317 312 324 316 319 317 320 321 322 322 322 322 320 312 312 314 320 324 321 322 321 318 318 318 317 316 313 310 307 305 304 303 301 301
314 314 314 314 315 318 321 320 320 320 323 319 323 317 316 316 318 320 320 320 321 321 313 310 315 323 324 323 320 321 317 316 319 320 317 316 313 306 304 305 303 302 301 300
313 314 314 314 315 318 320 321 320 318 321 318 316 317 316 315 316 319 320 319 321 323 318 315 320 318 322 317 318 314 313 313 315 316 312 311 306 304 304 303 302 301 300 298
313 313 314 314 314 318 317 317 316 316 318 314 311 320 314 312 316 317 317 316 318 320 320 318 318 320 317 312 316 313 313 313 312 309 307 305 303 306 303 302 301 299 297 297
313 313 314 314 314 314 316 313 314 317 317 316 309 315 314 311 316 315 311 313 314 316 317 312 314 318 314 316 314 313 313 309 309 308 307 307 305 304 302 300 297 297 297 296
312 313 314 314 313 315 316 313 314 314 317 309 307 312 314 312 310 309 309 312 310 309 310 310 313 311 314 314 313 314 308 307 306 305 304 303 301 299 298 297 297 296 296 295
311 311 310 302 308 311 312 314 313 310 308 306 308 314 314 312 309 308 308 308 311 311 309 306 306 309 311 310 309 309 306 305 305 304 301 299 298 297 297 296 296 296 295 294
309 301 298 302 305 308 304 308 308 306 308 305 309 314 311 309 310 309 308 307 308 312 311 311 310 310 310 307 305 305 304 304 302 300 298 297 297 296 296 296 296 294 294 294
303 302 302 302 299 299 308 307 303 304 311 302 304 304 308 304 308 306 302 308 306 313 308 309 310 309 306 304 303 303 302 299 298 297 296 296 295 295 295 295 294 294 293 292
301 298 299 300 297 304 308 309 307 308 301 301 300 301 300 299 301 301 302 307 309 305 308 308 309 307 305 303 302 301 299 295 295 295 295 294 293 293 292 293 292 292 292 292
296 298 303 303 305 305 304 305 304 302 302 300 300 300 302 298 301 301 307 304 306 308 308 308 307 305 304 302 301 300 299 293 294 295 294 294 293 293 293 292 292 292 291 292
298 299 304 303 299 299 298 297 299 298 299 300 300 300 301 302 303 303 304 305 307 308 309 307 305 304 302 301 299 298 297 294 294 295 294 293 292 293 293 292 293 293 293 292
298 298 301 299 301 300 298 298 298 297 298 299 302 302 304 304 305 305 307 308 308 308 306 305 303 302 301 300 297 295 294 294 294 293 293 293 293 293 293 294 293 292 292 291
298 300 297 300 299 299 298 298 297 297 299 302 303 305 302 301 304 304 305 306 305 305 304 301 300 299 299 296 295 294 294 294 294 294 293 293 293 293 293 293 293 293 293 293

GFSNW_925_thetae_033.txt.gz
Theta_e
312 313 317 317 317 317 318 327 321 327 323 319 320 321 324 317 321 322 323 324 322 324 322 324 324 325 322 319 320 320 317 320 318 318 317 318 318 320 320 317 321 319 317 317
312 313 317 318 316 317 322 323 326 327 328 318 321 322 323 321 321 321 322 324 324 324 325 325 326 324 321 321 320 321 319 319 318 321 320 320 318 317 316 318 314 317 313 314
311 313 317 318 317 317 323 326 321 324 324 324 326 325 323 324 323 323 323 323 323 324 324 324 326 324 323 320 318 314 318 320 318 318 318 315 315 314 313 315 314 317 316 318
311 313 316 318 318 319 321 326 324 319 319 319 324 323 323 325 324 323 323 323 324 324 324 325 326 324 322 321 315 319 320 320 321 320 316 315 314 314 312 312 313 314 314 317
311 313 316 317 318 319 319 329 328 323 320 319 324 321 322 325 324 323 323 323 323 323 324 324 325 324 321 322 319 321 319 320 318 317 318 316 314 313 314 315 316 316 316 316
312 313 316 317 317 316 325 324 325 325 323 321 324 324 324 324 324 323 323 322 322 320 321 319 318 317 317 319 319 320 322 315 313 316 316 313 313 316 315 315 314 315 316 315
312 313 317 316 317 321 326 324 328 318 319 325 324 325 324 325 323 323 323 323 321 319 316 314 315 313 314 318 317 321 316 315 312 308 310 306 316 313 315 316 315 315 316 315
312 313 317 315 317 321 322 322 327 316 314 325 324 322 323 323 323 323 322 321 319 316 320 315 311 311 306 312 316 317 319 310 307 313 313 313 315 316 316 315 317 316 316 314
312 313 316 316 317 320 318 321 325 320 313 320 325 323 322 322 323 322 321 320 319 321 315 307 310 314 315 318 317 313 318 311 307 303 305 308 313 314 313 313 312 315 313 312
313 313 315 316 320 323 320 316 323 327 321 321 323 323 322 323 322 318 320 321 321 315 311 312 309 312 317 318 315 310 308 312 307 304 304 310 314 314 313 312 311 312 310 309
313 313 314 316 317 323 321 316 324 324 318 321 322 322 324 325 323 317 320 315 314 310 311 306 310 314 313 315 317 312 309 308 312 312 311 310 314 315 312 311 312 310 308 307
313 313 313 314 315 320 322 316 321 322 321 321 321 319 321 321 322 320 319 316 321 317 312 311 310 314 312 312 313 315 315 313 311 311 310 310 314 313 311 310 308 308 307 305
313 314 314 314 314 320 321 319 322 321 314 318 319 319 319 319 321 323 319 316 320 320 316 311 314 312 310 309 311 316 314 315 312 314 315 315 312 309 308 307 306 305 304 304
313 314 314 314 315 320 321 320 322 318 311 307 319 317 317 317 320 321 321 320 319 316 309 308 310 309 314 309 310 312 313 316 315 312 313 311 310 308 305 305 304 303 303 302
313 314 314 314 317 319 317 317 319 321 320 310 311 317 315 316 319 320 321 320 317 311 308 305 308 306 309 306 309 309 316 314 309 309 314 312 309 305 304 302 302 302 300 300
313 314 314 314 317 320 320 318 318 318 320 308 312 315 314 315 317 319 317 319 316 315 309 307 311 316 310 308 308 313 313 312 313 314 308 307 304 303 304 304 303 300 298 297
313 313 314 314 315 318 316 314 317 317 317 305 306 314 310 311 315 313 313 314 313 313 308 307 309 312 310 306 311 311 312 311 308 305 304 304 303 304 304 303 302 297 296 295
313 313 313 314 314 314 316 313 316 317 314 305 305 308 305 311 307 306 307 306 309 310 309 306 307 307 304 309 311 312 311 308 306 306 306 305 304 304 303 302 296 295 294 294
312 312 313 313 314 314 314 313 314 314 314 302 306 307 307 308 306 303 303 307 306 305 305 306 308 306 312 312 312 311 307 307 307 306 306 305 304 299 296 296 295 295 294 293
312 312 311 302 308 310 312 313 305 302 300 300 307 306 309 308 302 303 305 301 305 309 305 305 305 308 307 308 307 305 304 305 304 304 302 299 297 296 295 295 295 294 293 293
310 303 299 303 308 309 301 303 304 303 308 302 306 306 309 305 305 305 302 305 304 309 307 308 308 308 307 305 304 303 304 304 303 299 297 296 295 294 294 294 294 293 293 292
305 303 303 304 300 300 307 306 302 305 309 301 303 303 304 300 303 303 301 306 304 309 304 307 308 305 303 302 302 303 303 301 297 296 295 294 294 294 292 292 292 292 292 291
303 300 300 300 298 307 310 312 307 307 300 300 300 301 299 298 299 301 302 307 308 302 307 305 304 305 303 302 300 297 294 294 295 295 294 293 293 292 292 292 292 292 291 291
296 299 302 303 303 302 301 302 302 299 298 299 298 299 300 298 302 301 306 303 302 307 305 301 305 304 303 300 299 297 294 291 293 294 294 293 293 292 292 292 292 292 292 292
297 299 303 301 297 297 297 296 297 296 297 298 299 299 299 300 301 301 301 303 306 306 306 302 301 300 298 297 296 294 292 290 292 293 293 292 292 292 292 292 293 293 293 293
296 297 299 298 300 299 298 297 297 295 295 296 298 300 304 302 302 303 305 306 305 303 300 300 299 299 297 296 293 293 293 293 293 292 292 293 293 293 293 293 292 292 292 292
298 297 297 298 298 298 297 296 296 296 297 301 300 302 300 299 302 303 303 303 301 299 297 297 296 296 295 293 294 294 294 293 293 293 293 293 293 293 292 292 292 293 293 293

GFSNW_925_thetae_036.txt.gz
Theta_e
312 313 316 315 316 316 318 320 318 327 325 311 316 317 321 319 320 321 322 322 324 321 320 323 324 323 321 319 320 317 317 316 315 318 316 317 317 319 318 315 318 317 314 314
312 313 317 317 317 316 320 318 323 327 327 309 316 317 322 321 320 320 321 322 323 322 323 325 325 322 320 317 318 320 316 316 315 318 318 317 317 317 316 316 311 316 310 313
312 313 317 318 316 318 324 321 319 318 320 316 317 320 322 323 321 322 322 322 322 322 323 323 324 323 321 317 315 314 317 317 315 318 317 314 314 313 311 313 312 314 314 315
312 313 317 318 316 317 320 321 319 314 313 316 323 321 321 323 323 322 321 321 322 322 323 324 324 322 321 319 315 318 317 318 319 317 315 314 314 313 311 311 310 311 313 315
312 314 316 318 317 318 320 324 323 317 314 314 319 320 321 323 323 322 322 322 322 321 322 321 323 321 320 320 317 319 317 318 315 314 316 314 313 311 314 313 314 314 314 316
312 314 316 317 318 319 319 324 324 318 319 314 320 320 319 323 322 322 322 321 318 317 319 316 315 315 317 318 317 319 318 312 309 308 312 310 310 314 314 314 314 314 314 313
312 315 316 317 316 317 326 324 321 315 317 318 319 323 322 323 321 323 321 320 317 318 315 312 309 309 313 315 316 316 313 311 305 305 304 301 311 312 313 316 316 315 314 313
312 316 316 316 318 320 323 324 321 313 310 321 322 322 322 321 320 321 322 321 316 314 314 308 308 308 306 311 315 316 314 306 308 302 309 307 313 315 314 313 315 315 314 312
312 315 316 317 319 321 320 324 325 313 312 319 323 320 320 319 319 318 320 318 318 312 308 304 309 311 307 317 317 312 312 305 304 308 301 303 308 313 312 311 312 314 312 310
312 314 316 318 322 320 317 322 325 321 316 317 321 319 320 318 317 314 319 320 318 309 301 300 304 313 313 316 313 308 310 302 306 299 300 307 308 312 311 311 311 311 310 308
313 313 315 316 321 319 318 322 324 322 313 320 319 319 321 320 316 315 316 313 310 308 306 300 303 309 309 312 314 311 310 308 305 303 301 310 310 313 312 309 310 309 307 306
313 313 314 315 319 320 317 321 322 322 316 319 319 318 319 321 320 317 314 312 315 311 308 304 310 311 312 308 312 312 313 309 309 310 310 307 311 311 311 309 307 307 305 304
313 313 313 314 320 322 317 321 321 319 309 314 316 318 318 321 321 320 316 312 317 316 307 307 304 306 308 310 310 314 312 312 310 311 312 313 310 308 308 307 306 305 305 303
313 313 314 318 318 318 317 320 319 315 307 306 316 316 316 317 320 321 320 317 315 309 305 307 310 305 308 305 307 309 308 313 313 311 312 311 310 308 305 305 304 304 303 302
313 313 314 319 318 317 318 319 319 320 311 311 307 315 315 315 319 319 319 316 312 307 305 304 307 303 307 299 306 307 313 313 309 311 311 310 308 304 303 304 303 302 301 299
313 313 314 317 318 317 319 313 316 318 317 307 307 310 310 313 317 317 316 316 312 309 306 304 308 312 306 308 310 311 313 312 311 312 307 306 304 303 303 303 302 302 297 295
313 313 314 314 317 319 314 309 315 317 313 303 306 304 307 310 312 309 309 310 310 310 304 303 306 309 307 305 308 310 310 310 307 305 304 304 303 304 304 304 300 296 294 293
313 313 314 314 315 315 313 315 316 315 310 301 304 310 303 309 303 305 304 302 304 306 308 303 302 304 303 309 310 310 309 306 304 304 305 304 303 304 303 300 295 294 293 293
312 313 314 313 313 312 312 314 314 314 309 302 299 303 307 305 304 300 300 303 305 302 304 305 304 306 310 310 310 310 306 306 305 305 305 305 304 301 296 295 294 294 293 293
311 312 310 302 306 309 311 310 303 301 299 300 300 300 307 306 300 302 302 300 305 308 303 305 305 308 305 305 306 305 304 305 306 305 302 297 296 295 295 295 294 293 292 292
311 304 300 306 308 309 301 303 304 303 308 301 305 301 307 303 304 305 299 304 303 308 305 307 307 308 304 302 302 303 303 303 301 298 296 296 295 294 294 293 292 292 292 291
307 305 305 306 300 300 305 305 303 305 309 301 304 302 303 300 299 303 301 305 304 307 302 307 308 304 302 302 304 303 299 296 295 295 294 294 293 292 291 290 290 291 291 291
305 301 299 303 299 308 311 312 307 306 300 300 300 302 299 299 299 301 303 307 308 302 307 306 304 304 302 300 296 295 294 294 294 294 293 293 292 292 292 291 291 291 291 291
296 301 303 304 303 302 301 302 302 298 298 298 298 299 301 298 302 301 306 303 303 307 303 298 304 303 302 299 296 294 292 290 292 293 293 293 292 292 292 292 292 292 291 292
297 299 302 299 297 296 297 296 297 296 296 297 299 299 299 300 301 301 301 303 304 304 304 302 300 300 297 296 295 292 291 290 292 292 291 292 292 292 291 292 292 292 292 292
295 297 298 297 299 299 298 297 297 294 295 295 297 300 303 301 301 301 303 304 303 300 300 299 298 297 295 294 293 292 292 292 292 292 292 292 292 292 292 292 292 292 292 292
297 298 296 297 298 298 297 296 296 295 297 300 300 300 299 298 301 302 301 300 300 299 298 297 296 295 293 292 293 293 293 293 292 292 292 292 292 292 291 290 292 292 293 293

GFSNW_925_thetae_039.txt.gz
Theta_e
311 313 314 313 314 315 319 315 314 326 325 310 312 318 320 319 319 319 321 321 321 319 319 323 322 322 320 318 319 315 316 314 315 316 314 316 316 318 314 310 315 314 313 313
311 313 315 314 315 316 320 317 322 326 322 309 315 316 319 320 319 319 321 322 322 321 322 323 322 321 319 315 317 318 315 314 314 316 316 315 317 314 315 312 309 315 308 311
312 313 316 315 315 316 322 316 319 317 317 310 314 316 319 322 320 321 320 321 320 320 322 321 322 322 320 315 313 313 314 316 313 315 316 314 312 311 312 312 312 313 312 313
312 314 317 316 316 318 321 317 316 313 314 319 320 316 320 322 322 320 319 321 321 321 323 323 322 321 320 317 314 316 314 317 317 314 313 313 313 311 310 310 309 310 309 313
312 315 317 317 316 319 319 322 319 314 310 313 319 318 320 321 322 321 321 320 321 320 320 320 322 320 318 315 316 317 315 316 314 314 314 312 312 310 310 311 310 310 314 316
312 315 316 317 316 316 317 319 321 315 314 313 314 318 319 321 320 321 320 319 317 316 318 317 315 315 315 316 316 318 314 310 307 305 309 306 304 308 312 312 313 312 315 312
313 316 316 317 316 317 322 323 318 314 315 311 315 320 320 321 320 321 320 317 317 316 310 308 308 308 312 314 314 314 311 308 301 303 302 304 307 309 311 312 315 313 313 311
314 316 316 317 317 318 320 322 317 311 307 317 320 321 320 319 318 320 320 319 314 311 308 307 308 306 307 310 313 313 311 305 306 304 306 305 310 313 314 313 313 313 312 310
315 315 316 317 317 317 321 324 319 312 314 318 321 320 319 318 317 317 319 317 313 309 303 303 305 308 306 315 316 311 308 303 303 305 300 301 305 313 311 310 311 312 311 310
314 315 317 320 320 320 320 323 323 317 315 316 319 318 318 315 314 312 318 318 317 307 299 298 303 310 309 314 312 310 309 300 305 296 299 305 305 311 309 311 306 311 310 309
314 315 317 320 319 317 320 322 323 319 314 318 318 318 319 316 314 314 314 312 309 303 305 300 302 301 308 311 312 312 311 307 304 303 301 309 307 310 311 308 309 310 307 305
313 314 315 319 318 319 321 321 320 320 315 316 317 316 317 319 315 314 311 313 312 309 305 300 301 308 310 305 310 309 310 307 308 309 309 307 307 310 309 308 308 307 306 304
313 314 316 320 321 318 318 321 319 319 309 314 315 316 317 319 320 317 314 311 313 310 305 306 302 302 306 309 308 312 310 309 308 309 310 308 309 308 308 307 306 304 303 303
313 315 317 319 318 318 318 317 316 313 304 306 314 315 314 316 320 320 317 314 310 305 303 305 303 300 305 303 306 310 308 311 311 309 310 311 309 307 305 304 303 304 304 303
313 316 318 317 317 318 317 318 318 316 309 309 305 312 312 316 318 317 316 313 310 306 305 303 307 302 304 299 304 305 309 310 308 309 309 310 308 305 303 303 303 303 302 298
313 314 317 317 316 316 313 309 317 315 314 307 307 308 309 313 315 314 313 313 309 305 305 304 304 308 305 309 312 310 311 310 308 310 308 305 303 302 303 303 303 302 298 294
313 313 314 317 317 316 310 307 314 315 311 304 306 303 305 308 310 306 307 308 308 308 305 302 306 307 306 306 310 309 309 309 308 304 304 305 304 304 303 302 301 296 294 293
313 314 314 314 314 314 314 313 315 313 307 300 304 304 303 307 303 305 301 302 303 304 306 303 301 303 304 310 309 308 308 305 304 304 304 305 303 303 302 295 294 293 293 292
313 314 314 313 313 310 311 313 313 312 307 302 296 305 306 302 303 299 300 302 305 301 304 305 303 304 310 309 309 309 306 306 305 304 303 303 303 298 295 295 294 293 292 292
313 312 309 303 306 309 311 309 301 300 299 299 302 300 307 306 300 302 298 301 300 308 300 304 305 309 304 303 303 304 303 303 303 303 298 296 296 296 296 295 293 293 292 291
311 302 300 307 308 308 299 303 302 303 308 301 301 301 307 301 305 303 297 299 302 307 301 304 303 307 303 301 301 300 299 299 298 298 298 297 297 296 294 292 292 291 290 290
307 306 306 306 299 300 305 304 303 305 307 301 304 303 303 300 298 301 301 303 303 307 302 306 308 304 302 302 298 296 298 298 299 299 298 296 293 292 291 290 290 290 290 291
305 301 300 300 299 309 311 313 307 307 301 300 300 303 299 298 298 301 303 307 307 301 306 308 305 303 300 298 297 297 298 298 296 293 292 292 292 291 291 291 291 291 291 291
297 301 306 304 305 302 302 303 303 298 298 298 298 299 301 298 302 301 307 303 303 307 307 301 303 303 302 299 296 293 291 290 292 292 291 291 291 291 291 291 291 291 291 291
297 299 302 298 297 297 297 296 297 295 295 297 299 299 299 300 302 301 301 303 303 300 298 301 298 301 297 295 293 291 290 289 290 291 291 291 291 291 291 292 291 291 291 291
295 297 298 297 299 298 298 297 297 294 295 295 297 300 300 300 300 300 301 301 298 295 299 298 298 298 295 293 292 291 291 291 291 292 291 291 291 291 291 291 292 292 291 291
297 298 296 297 297 298 297 296 296 295 297 300 299 299 299 297 299 300 298 295 295 296 296 296 295 294 292 291 293 293 292 292 291 291 291 291 292 291 291 290 292 292 292 291

GFSNW_925_thetae_042.txt.gz
Theta_e
309 310 312 313 312 314 317 312 315 325 322 310 310 316 318 318 318 318 320 319 318 317 319 321 320 320 319 317 318 316 315 312 315 315 314 314 315 316 312 309 314 313 312 313
309 311 312 313 312 315 319 316 321 323 314 311 314 314 317 319 318 319 320 321 320 319 321 322 320 320 318 313 316 315 313 313 314 315 313 314 317 314 312 309 308 314 307 308
309 311 313 313 313 315 319 315 320 316 313 308 313 314 317 320 319 320 319 319 319 320 322 319 320 321 318 313 313 313 313 313 313 315 313 312 312 311 313 311 310 312 311 311
309 312 315 313 314 316 321 313 316 315 317 318 313 313 316 320 321 319 317 319 320 320 322 322 321 320 319 315 314 315 311 315 315 313 312 312 311 310 309 310 309 310 309 311
311 313 316 314 315 317 318 320 315 309 309 317 317 315 319 319 321 320 320 319 320 319 319 318 320 318 316 311 315 316 312 314 312 315 312 310 312 310 308 308 308 308 311 311
312 315 316 315 315 319 316 317 317 312 311 314 316 317 318 319 319 320 318 318 316 318 318 316 314 313 312 313 315 315 312 309 309 310 307 304 305 308 308 310 309 309 312 310
312 315 317 316 315 319 320 321 316 313 310 310 316 318 318 319 319 320 318 316 315 314 308 308 307 308 312 313 312 311 309 306 300 301 301 301 306 306 308 310 311 310 311 310
314 316 317 316 315 317 324 323 316 310 306 310 317 318 319 317 317 319 319 317 313 308 306 308 311 306 309 309 310 308 307 303 304 301 304 304 307 312 311 311 310 311 311 309
315 315 317 316 315 317 320 322 321 312 312 315 318 318 317 316 316 317 318 314 309 305 302 303 307 311 312 314 316 310 306 302 304 299 300 300 305 310 310 309 311 309 310 308
315 316 316 316 316 316 320 323 322 315 315 316 317 317 317 313 313 312 316 316 316 306 299 298 302 306 307 312 311 308 307 301 303 294 297 304 303 309 308 312 309 309 309 307
315 317 318 317 317 318 321 322 322 317 313 316 317 317 316 314 313 314 313 312 309 303 305 302 301 301 307 310 310 312 310 310 308 301 298 309 304 310 311 308 307 308 307 305
315 317 319 320 320 319 319 320 318 318 314 315 315 315 315 317 312 312 309 314 311 308 304 296 298 302 308 305 309 308 310 307 307 307 308 305 305 308 308 306 307 307 305 303
315 317 320 317 318 320 320 320 317 318 309 312 313 315 316 318 318 314 312 309 309 307 303 301 300 302 303 305 308 310 309 306 306 308 308 306 306 307 308 306 307 304 304 303
317 319 319 320 318 319 319 316 313 315 305 307 314 313 313 316 319 318 315 311 307 303 302 299 301 301 303 302 304 307 307 308 308 307 308 310 309 307 306 305 303 304 303 302
317 317 317 317 317 316 315 315 314 312 308 309 306 310 312 314 315 314 312 310 308 305 304 303 307 301 302 301 302 305 306 308 308 308 308 308 307 307 303 303 303 303 301 298
317 317 317 317 317 314 312 309 315 312 313 308 308 307 307 311 313 311 310 310 306 304 306 302 304 306 304 309 312 309 309 308 306 308 308 305 303 302 302 303 302 301 296 295
315 316 316 315 314 311 306 306 312 311 309 304 306 303 304 306 307 304 305 305 304 306 305 303 304 306 305 306 309 308 308 307 308 305 304 307 304 304 302 301 297 294 293 292
314 315 315 314 314 314 313 309 313 310 306 299 303 303 303 305 303 305 302 302 302 304 306 302 303 304 302 309 308 307 307 305 304 303 302 304 302 297 294 294 294 293 293 292
314 314 313 313 312 309 311 312 311 310 306 299 294 304 305 301 302 299 302 301 306 301 304 305 303 304 309 307 306 306 306 307 304 301 300 298 295 294 295 295 295 295 293 292
313 310 309 303 306 308 309 309 301 300 299 298 301 300 306 305 301 302 298 299 299 299 298 304 305 307 304 300 300 300 301 302 301 297 296 297 298 298 297 296 294 292 291 291
310 303 302 307 307 307 299 302 302 302 305 303 301 302 306 301 306 304 296 300 301 305 299 306 305 307 302 298 296 297 297 298 298 298 298 298 297 296 294 292 291 290 290 290
308 307 306 306 300 300 305 304 302 305 305 302 304 303 303 299 295 302 301 297 302 306 301 306 307 304 300 297 299 299 299 299 299 299 299 297 295 292 291 290 289 289 290 290
306 301 298 300 297 309 311 311 308 306 301 300 300 303 299 298 298 301 303 306 306 301 306 307 305 299 297 298 299 298 297 296 294 292 292 291 291 291 291 290 290 291 290 291
297 300 308 305 306 303 302 303 304 298 298 299 299 299 301 298 303 301 307 303 303 307 307 302 303 302 299 299 296 293 291 290 291 291 291 290 290 291 291 291 291 291 291 291
298 300 302 299 297 297 297 296 297 295 295 297 299 299 300 301 302 301 301 303 301 298 296 300 298 300 296 293 291 291 290 288 290 290 290 290 291 291 291 291 291 291 291 291
296 297 297 297 299 298 298 297 297 294 295 296 298 301 301 301 299 299 300 301 296 295 299 297 298 296 293 292 291 290 291 291 290 291 290 290 290 290 290 291 291 291 291 290
297 297 295 297 297 298 297 296 295 294 297 300 299 298 297 296 295 297 295 292 297 297 297 296 295 293 291 291 292 293 291 291 291 291 291 290 290 291 290 289 289 288 288 288

GFSNW_925_thetae_045.txt.gz
Theta_e
316 311 309 310 311 312 315 312 316 322 320 313 310 314 314 318 318 316 319 316 317 318 319 321 320 321 319 316 317 318 315 316 319 317 314 314 315 317 317 319 317 316 318 318
315 310 309 310 311 312 316 312 320 319 311 314 313 313 316 318 317 318 319 321 318 319 321 322 320 320 316 314 315 318 315 316 319 318 315 315 317 316 312 311 314 318 324 315
313 309 309 310 312 313 318 318 322 318 311 308 314 315 315 318 318 319 318 319 319 321 321 320 321 321 317 313 314 313 314 314 317 321 316 315 315 314 313 315 318 315 315 313
311 309 309 310 312 315 316 313 318 317 319 315 312 313 316 319 321 318 317 320 319 321 322 321 321 320 317 314 315 315 315 317 315 314 313 312 311 311 314 314 313 318 313 313
309 308 309 311 312 315 316 316 314 309 312 316 313 313 318 319 319 320 319 321 319 319 321 320 322 319 316 313 316 316 313 318 313 316 312 311 313 311 310 310 309 311 310 311
308 308 310 312 312 315 316 316 312 312 309 315 313 314 317 319 320 319 317 319 318 319 318 316 314 313 313 314 317 316 313 315 315 316 308 306 313 312 312 311 310 311 313 313
307 308 311 314 313 317 319 319 314 312 309 314 314 316 317 318 318 321 317 315 317 314 311 310 311 312 313 313 311 311 310 308 305 311 305 310 310 308 309 311 311 310 311 312
307 310 313 315 314 317 322 321 315 310 307 310 314 317 319 317 317 319 319 317 312 309 308 314 315 313 313 312 310 308 307 308 308 314 309 307 308 307 312 313 312 311 312 311
310 312 314 315 314 317 322 322 315 310 310 312 314 318 316 317 317 317 317 312 308 306 305 310 315 319 316 315 316 310 307 305 313 306 310 309 308 308 311 311 316 310 312 311
312 314 315 315 315 318 322 321 317 316 316 316 315 318 318 313 314 315 314 314 314 307 306 309 314 315 308 314 313 313 314 309 314 303 313 310 306 308 309 314 314 310 311 310
314 315 316 316 315 317 321 321 319 318 315 316 316 316 314 313 314 318 315 315 313 308 312 313 309 312 312 312 311 315 315 315 313 304 311 316 305 310 315 314 308 309 310 309
315 315 316 315 315 316 321 318 317 318 315 315 314 314 314 315 312 314 310 316 313 313 310 304 304 310 309 309 316 309 315 313 314 311 314 309 306 310 308 307 308 309 309 307
317 317 316 315 315 318 319 319 319 317 312 313 314 314 314 317 316 313 315 310 310 308 304 305 305 309 307 313 312 311 310 306 311 310 310 307 307 307 308 309 308 308 307 307
318 319 319 317 319 319 316 318 318 313 308 309 314 313 312 313 317 316 313 309 305 303 304 304 305 310 304 308 308 311 310 309 310 310 310 308 309 309 308 307 306 305 304 305
319 318 318 318 319 318 315 314 312 311 313 310 310 309 311 311 312 310 309 308 309 307 307 305 309 303 306 304 306 309 308 310 312 313 308 309 308 306 305 306 306 304 302 298
318 319 319 318 317 316 315 313 312 312 313 310 311 306 307 309 310 308 308 308 307 307 308 304 305 306 307 311 312 310 308 308 307 310 308 306 305 303 303 305 303 299 297 295
317 317 316 315 312 309 306 308 310 309 309 305 307 307 304 304 306 305 305 304 305 308 306 305 308 309 307 306 312 308 308 307 306 304 306 308 305 306 300 297 296 294 293 293
314 313 313 313 314 313 311 307 310 307 304 302 305 305 306 304 305 307 303 305 305 305 306 304 305 305 304 311 308 307 307 305 304 303 303 302 297 296 295 294 295 297 297 296
313 312 311 311 311 309 311 308 309 309 305 302 299 308 311 303 302 301 303 302 306 302 305 307 307 306 310 306 304 304 303 305 301 297 296 296 296 297 298 298 298 298 297 295
310 309 308 304 307 307 308 308 302 301 298 298 301 301 307 306 302 303 302 300 304 307 305 304 307 308 302 298 297 298 300 301 297 298 298 298 299 299 297 297 297 295 293 292
310 304 303 307 307 306 299 301 303 302 304 302 301 303 305 301 308 305 299 303 301 307 303 308 307 308 302 298 298 298 299 299 299 298 298 298 298 297 296 293 292 291 290 290
308 307 306 305 301 301 305 304 303 304 307 302 305 303 304 300 297 303 301 301 303 307 302 306 307 303 298 300 300 300 299 299 299 298 298 296 294 293 291 290 289 289 289 290
309 303 302 304 302 309 304 307 308 307 302 301 301 303 300 300 301 301 304 306 306 302 307 308 305 298 300 299 298 297 295 294 293 292 292 291 290 290 290 290 290 290 290 290
299 304 308 303 307 305 305 304 304 298 298 299 300 300 303 299 305 302 309 303 304 308 307 307 301 299 300 297 295 294 291 289 291 290 290 289 290 290 290 290 290 290 290 290
298 300 304 301 297 297 297 296 297 296 296 298 300 300 301 302 303 302 303 305 305 303 301 302 300 298 298 295 292 292 290 288 290 290 289 289 289 289 289 289 289 288 288 287
297 296 299 298 299 299 298 298 298 295 295 296 299 301 303 301 301 301 303 304 301 299 301 297 297 296 294 292 291 290 290 290 290 290 289 289 289 288 287 287 285 284 284 284
297 297 295 297 298 298 297 296 296 294 297 301 300 301 300 298 299 300 298 298 296 298 297 294 294 293 292 291 292 290 290 290 289 289 288 286 286 284 283 283 282 282 282 282

GFSNW_925_thetae_048.txt.gz
Theta_e
302 309 313 315 310 309 312 317 320 323 322 325 325 324 319 317 321 321 320 320 319 319 321 322 320 321 321 320 320 323 321 323 325 322 318 318 320 321 322 320 320 322 322 317
303 308 312 314 309 310 314 319 324 320 315 329 325 320 318 320 320 322 322 322 321 322 323 324 324 324 320 319 320 323 320 323 325 322 320 320 320 321 319 318 321 321 329 316
303 305 311 312 309 311 316 320 327 325 321 320 322 321 319 319 321 322 322 323 324 325 325 324 326 325 320 317 319 312 316 322 323 325 321 321 321 320 318 318 319 316 318 314
303 304 310 312 309 311 316 322 321 322 328 322 320 320 318 319 324 322 322 324 324 324 326 325 326 324 319 319 316 320 321 323 320 318 317 317 318 318 319 318 317 319 315 314
302 303 311 311 309 311 314 322 322 319 325 320 318 317 319 318 323 323 323 324 324 325 326 324 326 324 322 323 320 322 319 323 320 320 317 316 317 316 316 319 318 317 317 316
303 304 309 310 309 311 318 321 316 322 317 320 318 319 318 319 324 322 321 325 325 326 324 323 323 320 320 320 323 323 322 322 321 320 314 314 321 318 317 316 317 317 317 317
302 304 309 309 309 312 319 322 318 326 322 319 318 317 319 321 324 325 321 322 325 319 317 318 319 319 318 318 317 317 319 320 318 321 312 328 314 312 313 317 317 316 315 315
303 306 311 308 309 312 319 321 320 321 322 319 317 318 321 323 322 324 323 320 318 317 318 323 323 324 324 320 315 315 314 317 318 330 315 314 312 310 311 313 313 314 314 314
307 310 308 308 311 313 314 322 315 320 321 319 317 320 322 325 326 324 319 314 313 313 319 325 330 329 325 323 322 314 313 314 321 318 334 333 313 312 314 314 316 314 315 315
309 309 308 310 312 313 316 320 315 321 325 318 320 321 323 323 324 326 318 316 317 314 323 329 334 328 316 321 322 320 321 319 326 321 331 318 312 313 313 316 315 315 316 316
307 307 310 313 314 313 318 318 317 324 324 321 321 319 321 320 324 327 320 320 320 320 328 327 324 329 318 317 316 319 322 325 323 318 327 326 311 314 319 317 315 314 316 316
307 310 313 314 314 314 319 319 317 318 322 320 316 315 316 318 318 322 319 324 321 323 325 322 319 321 314 322 325 315 320 319 321 319 319 314 312 316 315 313 314 314 314 314
312 313 315 315 314 316 318 319 317 319 322 319 321 320 316 315 315 316 322 319 318 317 316 319 319 322 319 322 321 318 316 312 317 316 314 314 313 312 312 312 313 313 312 313
314 314 315 316 314 316 318 319 317 318 316 317 321 314 315 312 315 317 316 316 312 312 315 320 316 325 313 318 316 318 315 314 316 316 315 314 313 313 313 312 311 311 310 310
315 315 315 315 314 315 318 317 316 317 321 317 320 315 312 312 313 313 313 314 316 318 318 314 323 313 315 312 313 317 313 315 318 318 312 313 313 311 310 312 311 310 307 306
318 316 315 314 315 317 316 318 314 314 315 318 321 312 313 313 313 313 314 315 317 317 317 312 313 309 316 316 320 314 312 312 311 314 312 313 311 309 309 310 307 305 303 299
318 318 315 317 316 313 314 315 313 315 312 315 315 320 311 310 313 311 314 312 312 317 311 312 313 312 314 311 322 312 312 311 311 309 310 312 308 307 305 302 299 297 298 298
317 317 315 312 311 311 312 305 309 307 309 314 312 316 317 309 313 312 308 311 313 310 309 309 311 310 312 318 312 310 309 309 308 307 307 305 301 299 298 298 299 299 297 296
312 312 312 311 312 317 312 307 307 306 311 310 307 317 317 308 306 306 310 308 310 306 311 311 312 309 314 308 306 308 307 308 305 303 302 300 299 299 299 299 299 298 298 297
309 309 313 315 309 307 307 309 314 309 305 304 304 306 310 309 309 309 310 307 311 312 310 307 314 313 302 300 300 303 305 305 303 300 300 300 301 300 299 299 298 298 298 295
310 312 309 307 307 308 308 308 310 310 309 306 305 308 309 304 311 308 305 308 307 313 311 312 312 312 303 300 302 302 301 300 300 300 299 299 298 298 298 296 294 292 292 291
310 310 307 306 308 309 310 308 308 310 310 306 308 307 306 303 304 308 306 305 309 314 306 312 310 305 301 301 301 302 301 300 299 299 299 298 296 294 293 292 292 291 290 290
308 308 305 312 306 313 320 313 312 309 306 304 305 306 305 304 305 305 310 313 310 306 311 310 306 302 301 301 300 299 298 298 297 295 293 292 292 291 291 291 290 290 291 291
303 307 310 311 314 307 308 308 309 300 301 304 304 304 306 304 309 307 315 306 307 310 311 309 301 302 299 298 298 295 293 292 293 292 292 291 291 290 289 289 288 288 288 287
303 306 308 305 299 299 298 298 300 298 299 303 306 305 307 306 306 305 306 308 310 308 309 304 300 298 299 297 295 294 293 292 293 292 290 289 289 290 290 288 286 285 285 284
299 300 301 299 301 300 299 299 299 297 298 301 304 305 309 305 307 309 310 310 309 305 302 299 298 298 298 296 294 293 292 292 292 292 291 289 287 287 286 285 283 282 283 282
301 299 296 299 299 299 298 297 297 294 300 303 305 309 306 302 305 305 303 306 303 300 298 296 298 298 295 294 292 291 292 292 291 289 287 286 285 283 283 282 281 280 281 280

GFSNW_925_thetae_051.txt.gz
Theta_e
302 304 304 307 314 315 309 316 322 321 320 318 323 327 323 320 319 323 323 320 319 320 320 321 320 318 321 322 322 322 322 322 322 323 321 321 322 322 322 324 322 321 324 320
300 301 303 306 313 312 311 320 323 323 320 323 329 324 323 321 319 322 323 320 319 320 320 321 321 320 324 322 323 322 324 320 322 323 323 321 321 321 320 321 322 323 328 320
300 301 304 306 312 312 314 320 326 324 325 320 325 325 324 321 320 322 323 321 320 321 320 321 323 323 323 322 322 313 318 321 322 324 322 322 324 322 321 321 324 321 318 318
299 302 304 305 311 311 315 321 321 323 325 323 326 325 323 321 319 322 323 323 323 323 322 322 324 325 324 322 318 320 323 324 322 321 321 320 321 321 320 321 320 322 319 317
300 303 303 308 311 310 315 322 321 321 320 321 326 323 325 320 319 321 324 323 321 323 324 324 324 325 325 325 323 324 323 324 324 324 322 321 321 320 319 319 319 317 317 317
301 304 302 304 309 310 314 320 321 322 323 324 326 327 324 320 319 326 325 323 321 325 325 327 327 325 324 324 326 326 325 324 324 322 319 318 323 320 319 318 318 318 320 318
302 303 300 303 308 310 314 319 322 325 327 327 323 321 322 320 320 325 324 325 324 325 323 323 323 323 322 322 323 324 325 325 325 323 317 326 316 315 315 317 318 317 317 317
303 302 301 302 308 309 315 320 324 326 331 324 321 319 321 319 324 325 326 324 324 323 324 326 325 326 325 321 319 319 320 322 322 329 319 317 316 314 313 314 315 314 315 314
303 302 301 302 305 310 311 319 324 325 329 325 319 319 319 322 326 327 322 321 320 320 326 330 328 326 322 324 324 317 316 318 323 323 331 331 317 315 315 315 315 314 315 315
303 300 301 303 304 310 309 317 323 324 323 319 321 321 323 320 324 327 323 322 321 320 331 328 336 329 322 325 328 324 325 326 328 324 331 324 317 315 315 317 318 316 315 315
303 302 303 303 307 309 308 316 322 325 326 322 323 320 320 321 325 329 324 324 324 325 329 330 332 333 325 323 321 323 325 328 324 328 324 326 314 315 318 319 316 316 316 317
303 303 304 304 309 308 308 317 321 323 325 324 321 320 320 322 324 324 323 323 325 326 328 330 331 326 321 327 325 319 323 323 325 322 323 317 315 315 318 316 316 317 316 316
304 306 307 309 308 308 310 319 322 323 325 322 323 323 319 318 320 321 325 326 324 325 325 327 329 326 326 326 327 322 319 317 319 319 316 315 315 315 315 315 315 315 315 315
308 308 308 307 309 312 312 321 321 322 322 328 323 318 318 316 319 321 322 323 321 321 323 326 319 325 321 327 322 321 319 317 317 317 315 314 315 316 316 316 315 314 313 314
307 306 308 311 314 313 317 317 315 320 325 323 323 318 316 317 319 319 319 320 321 323 324 321 328 320 321 319 318 321 317 317 319 320 316 316 317 315 314 315 315 313 311 310
310 311 313 314 313 315 316 322 317 317 321 323 325 317 317 317 318 318 320 321 322 324 320 322 319 315 322 323 323 318 315 314 315 317 315 315 314 313 312 312 309 307 305 303
313 314 314 314 313 316 319 317 315 316 317 317 318 321 317 316 318 317 319 318 319 322 319 316 320 318 320 317 324 316 314 314 313 313 314 314 312 310 306 303 302 301 300 298
313 313 312 312 314 312 314 307 312 312 315 316 317 319 319 315 319 318 316 318 319 315 314 314 316 315 316 323 317 314 313 312 311 310 310 308 305 304 303 301 300 300 299 298
312 312 313 313 316 319 311 306 308 310 315 312 311 320 320 312 312 313 314 314 314 312 314 315 317 314 319 312 310 311 310 311 309 307 306 304 303 302 301 301 299 298 298 298
312 313 316 319 312 307 306 310 317 313 312 308 311 312 317 313 313 312 315 310 314 315 312 312 317 316 306 305 305 306 309 308 307 306 303 302 301 302 300 299 299 299 298 296
315 316 313 310 307 312 312 311 319 317 315 310 310 313 313 309 315 309 309 311 311 315 314 315 315 314 306 304 305 305 305 304 302 302 301 301 300 299 299 296 294 293 293 292
313 313 309 310 312 313 316 311 311 314 313 308 309 309 309 307 309 310 308 309 310 315 311 317 313 306 304 304 304 303 302 301 301 299 299 298 296 295 294 293 293 292 292 291
311 311 310 316 310 316 315 315 314 310 308 306 308 307 307 306 308 308 313 311 313 309 313 312 309 305 304 303 302 301 300 300 299 296 294 293 293 293 293 292 292 293 292 290
305 309 312 312 311 310 309 312 309 303 304 307 307 306 309 308 309 312 310 308 309 311 313 312 306 303 302 301 301 300 297 296 295 294 293 292 292 291 290 288 287 286 287 286
305 307 310 306 300 300 300 300 302 300 303 306 307 308 309 309 309 309 307 309 313 311 313 307 302 300 299 299 298 295 294 294 294 293 291 291 292 291 290 287 285 285 284 283
300 301 303 300 302 301 300 300 300 299 303 307 309 309 313 309 310 313 315 313 312 308 305 301 299 300 300 298 296 295 295 294 294 293 291 289 287 287 286 285 283 282 283 282
300 300 297 300 299 299 298 298 298 297 304 307 308 312 309 306 307 308 306 309 305 301 299 298 299 299 298 296 295 293 294 294 293 291 290 288 286 285 284 284 282 281 281 280

GFSNW_925_thetae_054.txt.gz
Theta_e
304 304 302 302 305 309 314 314 315 317 320 321 318 325 323 321 323 320 322 321 320 319 319 320 318 318 319 321 321 322 321 323 325 323 321 321 321 322 322 331 323 326 329 324
304 303 302 302 305 309 311 315 320 321 321 321 320 319 322 323 322 321 322 323 320 320 320 320 320 320 324 322 322 322 323 324 326 322 323 322 321 320 320 322 327 326 336 325
303 302 302 304 305 309 312 316 322 323 323 319 317 321 323 324 323 320 320 322 320 320 320 321 321 321 324 323 322 315 323 323 321 325 321 323 324 322 320 321 333 326 325 321
303 302 301 304 305 308 312 318 319 321 325 325 321 324 322 323 323 321 321 322 321 320 321 320 321 321 326 323 318 321 323 321 319 319 320 321 322 322 321 320 321 324 324 319
302 301 301 302 304 307 312 318 321 323 323 322 322 320 327 324 323 321 322 324 322 321 322 321 321 323 327 324 324 324 324 326 324 326 323 322 322 320 320 320 320 319 320 319
301 300 301 301 304 306 312 315 319 322 322 323 321 324 327 324 325 322 320 323 324 323 324 326 327 326 326 324 327 326 326 328 329 329 321 319 322 321 319 319 319 319 320 320
299 300 302 303 304 305 312 314 322 325 325 322 322 323 325 326 323 324 323 325 325 325 325 326 325 324 325 325 325 326 328 330 332 332 318 325 318 317 316 316 316 316 316 317
299 301 302 303 304 304 308 314 321 325 324 321 320 324 326 326 325 322 325 326 327 326 327 330 328 327 322 323 322 322 324 328 329 327 324 319 318 316 315 315 316 316 316 316
300 301 302 303 304 306 308 311 315 326 326 325 319 323 325 327 326 328 326 324 325 327 332 333 330 333 325 323 322 318 318 325 328 328 330 327 320 316 315 315 319 315 314 316
300 301 303 301 301 305 304 310 312 321 325 323 322 322 323 325 327 330 326 324 324 324 333 322 330 334 320 327 329 323 326 327 327 326 328 327 320 317 315 319 323 316 316 315
300 302 302 300 302 304 305 309 310 315 327 324 324 322 323 323 327 330 327 325 326 332 326 323 337 335 329 325 323 326 326 330 324 331 326 327 317 315 318 321 319 317 317 319
301 302 301 300 302 302 302 310 312 313 324 327 324 321 321 323 326 328 326 326 326 329 333 332 336 325 323 331 332 320 326 326 330 327 326 321 316 318 319 317 316 316 317 317
301 302 300 301 303 303 304 309 313 321 327 324 324 325 321 320 321 324 328 330 326 328 330 332 334 326 332 326 333 324 321 320 325 322 317 317 316 316 317 316 317 316 316 315
302 302 302 303 304 304 305 309 313 321 325 324 324 321 320 319 321 323 325 327 326 329 330 331 319 324 326 333 326 326 322 320 319 319 318 316 318 317 316 316 316 315 314 314
301 302 303 303 304 305 308 308 313 318 324 323 323 319 319 319 321 322 322 326 327 328 323 313 333 326 328 325 325 325 319 319 325 326 318 319 318 315 314 315 314 312 310 306
304 304 304 304 307 307 309 318 315 318 320 324 323 318 319 320 320 321 323 324 327 327 323 327 323 318 328 324 329 319 317 316 317 319 316 316 314 312 311 309 308 306 304 302
304 305 306 307 308 312 317 316 314 317 320 320 315 320 317 319 319 321 321 322 322 324 322 322 323 320 321 318 330 318 316 316 314 314 315 314 313 308 305 304 302 301 300 300
307 306 307 309 312 314 315 310 314 314 316 317 314 314 318 316 321 321 317 321 320 316 315 317 319 318 321 327 318 316 315 313 312 311 311 309 306 305 304 302 301 299 299 298
307 308 309 312 315 316 313 313 312 312 315 311 310 314 318 315 314 314 315 316 313 314 314 316 319 314 318 317 315 314 312 312 310 308 307 306 305 303 302 300 300 299 299 298
309 312 315 311 311 309 311 311 318 312 312 310 314 313 317 314 315 313 315 312 314 317 314 315 317 315 309 308 308 309 310 310 308 307 305 303 303 302 300 300 299 298 296 294
316 315 309 308 310 313 311 311 312 313 313 312 313 314 315 311 314 311 310 313 313 318 315 317 315 315 307 307 307 308 307 305 305 304 303 302 302 301 298 295 294 294 293 292
315 313 312 311 314 311 312 310 311 314 314 309 313 312 310 309 312 310 308 311 312 318 312 314 315 307 306 306 305 304 303 302 302 301 300 300 297 295 295 294 293 293 291 288
311 310 306 313 308 314 314 313 314 311 307 307 309 309 307 308 308 308 310 313 316 312 313 313 311 306 305 304 304 303 302 301 300 297 295 295 294 293 293 291 291 290 288 286
305 309 310 311 313 310 308 308 309 302 304 307 307 308 309 308 307 309 310 309 310 313 314 313 307 305 304 303 302 301 298 295 296 294 293 292 291 289 287 287 286 286 285 284
304 306 308 305 300 300 300 300 301 300 304 307 309 309 308 308 308 309 307 310 312 313 314 308 305 303 302 302 300 296 295 293 294 293 292 291 291 289 287 285 284 284 282 282
300 300 303 300 303 302 301 300 301 299 302 308 310 309 307 310 311 311 310 313 313 311 305 302 301 300 300 298 296 295 295 294 293 292 290 288 288 288 286 284 282 283 281 280
299 300 296 299 299 299 298 298 298 298 304 306 310 311 309 308 310 309 307 308 305 301 299 299 299 299 299 297 296 295 295 294 293 291 289 288 286 285 285 284 282 282 282 280

GFSNW_925_thetae_060.txt.gz
Theta_e
297 297 296 300 301 305 305 308 315 314 313 315 311 318 318 315 319 320 322 323 322 318 316 317 317 317 317 317 319 320 320 320 322 322 321 321 318 319 319 318 318 319 316 317
297 297 297 300 301 305 306 311 314 313 315 316 312 314 318 317 317 320 322 323 322 319 319 318 317 317 321 319 319 319 320 320 320 322 319 318 321 317 318 319 316 317 316 317
296 297 298 300 303 305 306 312 315 316 315 313 311 313 316 319 316 317 319 321 322 321 321 319 318 322 322 321 319 317 318 320 318 322 319 317 320 320 317 316 315 317 318 318
297 298 299 300 301 305 305 312 315 315 318 316 313 312 314 317 318 316 320 321 321 322 321 319 319 324 322 322 316 319 318 319 319 317 318 320 320 320 320 319 318 318 317 318
297 297 299 300 301 305 305 313 316 315 316 315 314 312 313 315 315 316 316 319 322 321 319 317 318 323 322 320 320 319 319 318 318 320 317 317 318 317 317 318 317 317 317 316
297 297 299 301 301 305 305 305 309 314 314 316 316 314 313 314 314 316 315 320 322 321 321 317 316 320 321 320 319 319 320 320 316 319 313 316 316 316 316 317 316 316 316 314
297 298 299 299 300 304 305 305 311 317 317 319 318 315 315 314 314 314 318 315 319 320 319 318 317 317 321 321 321 319 320 319 313 314 311 316 318 315 315 314 312 312 314 314
298 298 298 299 299 300 304 305 308 316 312 319 320 317 318 316 314 317 315 320 319 319 321 321 319 317 318 321 318 319 320 315 316 313 315 316 316 315 310 312 313 312 314 313
298 298 299 297 297 299 304 305 308 311 318 318 319 320 317 317 317 318 322 322 320 322 321 317 320 320 319 322 318 316 317 313 315 315 312 313 314 313 312 310 312 314 312 313
298 298 297 295 297 298 304 303 305 306 315 318 317 319 318 316 316 319 324 323 323 319 312 316 315 318 319 320 318 313 311 311 312 306 307 310 312 314 312 311 310 313 315 315
297 297 295 296 297 303 304 303 304 304 312 313 320 316 315 315 315 320 320 321 319 318 317 317 317 311 317 317 319 315 315 314 312 310 306 315 314 313 313 310 312 314 315 313
297 297 297 297 303 303 303 303 303 304 307 311 311 314 320 316 315 320 318 320 320 320 318 314 315 317 309 314 319 318 318 313 314 315 314 312 314 314 312 312 312 313 312 313
299 298 301 303 303 302 303 302 302 303 309 311 317 320 319 321 320 320 320 318 320 320 318 319 317 316 313 314 312 318 319 318 318 318 316 315 314 313 312 311 311 309 310 311
300 300 301 301 301 302 302 302 306 307 312 313 318 319 318 320 323 321 321 322 320 316 314 311 312 312 315 312 316 315 316 316 316 316 316 315 314 313 311 304 302 301 300 304
300 300 300 301 301 303 303 303 302 305 310 313 318 317 318 320 322 323 323 321 321 318 311 306 315 314 315 313 312 316 314 315 314 313 315 312 313 309 306 303 301 300 299 298
299 299 300 302 301 302 303 303 301 303 304 309 313 314 316 317 319 318 317 316 318 318 315 313 314 315 310 309 309 314 314 314 313 315 309 307 304 303 302 300 300 299 298 298
300 301 301 301 301 302 304 305 309 304 304 309 310 313 315 314 314 312 315 312 312 316 316 314 314 315 310 305 310 314 313 311 307 305 305 304 303 300 300 299 299 298 297 296
300 300 301 301 303 304 305 310 309 307 309 311 308 314 315 312 312 313 309 310 309 311 312 310 309 311 306 310 313 312 309 309 307 305 305 302 300 299 298 298 297 296 294 292
301 302 302 303 304 307 305 308 311 311 309 306 304 314 315 310 309 308 307 305 309 305 307 309 310 307 309 312 311 309 309 308 305 303 302 301 299 298 297 297 296 293 292 291
302 301 305 305 309 308 306 308 309 303 302 303 307 306 312 310 304 306 306 303 307 314 306 309 305 308 307 307 308 308 305 304 303 302 301 299 298 297 297 296 294 292 290 289
302 305 304 306 310 310 306 306 306 304 304 304 308 307 311 308 308 307 302 306 305 311 311 310 310 310 308 306 306 305 305 303 304 302 300 298 297 295 293 292 290 289 288 286
308 309 308 308 306 303 308 305 304 306 307 304 308 307 305 304 305 305 303 307 305 310 307 310 312 307 307 305 304 305 304 303 302 301 298 295 294 293 291 288 287 286 284 283
308 304 308 306 302 308 306 308 307 307 303 304 303 305 302 302 303 303 305 308 309 300 306 309 305 307 304 303 302 301 299 298 297 295 294 294 292 290 287 285 284 284 282 280
302 307 306 307 308 304 303 305 305 300 301 302 303 303 304 301 305 303 309 305 305 303 302 307 306 305 303 302 299 296 294 293 293 292 291 289 288 286 285 283 282 282 281 279
299 300 304 302 299 299 299 298 299 298 299 300 301 302 303 303 306 303 303 308 309 305 305 305 304 302 301 298 295 293 292 291 290 289 287 286 285 284 283 282 282 281 279 279
297 297 302 300 302 302 300 299 300 297 298 299 301 304 306 306 305 307 307 306 307 306 302 302 301 298 296 295 293 293 292 290 288 287 286 285 284 283 282 280 280 280 279 279
298 297 295 297 298 298 297 297 297 295 299 304 298 306 307 302 306 306 303 303 300 299 298 299 297 295 294 293 292 291 291 289 288 287 285 284 283 282 281 280 280 280 279 278

GFSNW_925_thetae_063.txt.gz
Theta_e
299 298 298 299 298 301 304 306 308 311 312 316 315 314 316 315 316 315 320 321 323 322 315 315 315 316 316 313 316 315 317 315 316 319 319 319 317 317 317 317 318 317 315 316
299 298 297 299 298 301 304 306 308 312 312 317 316 313 314 316 316 316 318 322 321 320 316 316 316 316 316 317 316 318 318 317 318 318 317 319 321 317 318 317 313 317 315 317
298 299 298 298 298 298 304 306 309 314 313 314 315 314 315 316 316 316 317 319 320 322 321 318 317 318 321 319 318 317 316 317 318 319 318 317 320 319 316 316 316 316 316 316
298 299 298 297 296 296 301 305 308 312 314 314 316 313 313 316 318 316 315 316 318 321 322 318 318 322 321 320 316 318 316 319 317 316 316 317 318 318 317 317 316 317 316 315
298 298 298 298 296 296 299 305 311 312 312 313 315 314 313 315 315 315 316 316 320 316 320 319 318 322 320 320 319 318 317 316 316 318 316 316 319 317 316 316 317 316 315 315
298 298 298 296 296 298 299 304 305 310 313 314 314 314 313 313 314 315 314 314 317 316 320 319 316 317 318 318 318 317 317 317 314 317 314 315 315 314 315 316 315 315 315 313
298 298 297 298 298 298 303 303 306 314 312 314 313 313 313 313 313 314 315 313 314 315 317 316 316 317 319 319 319 317 317 315 310 313 312 315 315 314 314 314 312 310 313 313
298 298 298 298 298 297 301 303 306 313 309 313 315 313 312 312 312 314 313 314 311 315 320 318 320 316 319 319 318 320 317 312 312 313 315 315 318 315 312 311 312 312 312 312
297 298 298 298 298 299 300 304 305 308 314 314 314 314 313 312 313 313 313 312 320 319 318 315 319 321 322 323 318 315 314 312 314 308 313 316 316 314 311 309 311 312 311 312
297 298 298 299 299 301 300 303 306 306 312 313 315 316 315 313 314 314 314 321 323 317 310 313 313 317 319 319 318 314 312 310 313 306 308 313 311 312 310 311 311 311 310 310
298 298 298 298 298 299 300 300 305 305 309 309 314 315 315 315 315 316 316 322 319 315 316 315 314 311 317 316 316 314 317 315 310 305 305 318 311 312 311 309 313 314 312 311
298 298 299 299 299 298 298 300 303 304 305 308 307 308 311 314 314 314 317 317 319 318 317 313 314 315 310 314 318 315 316 314 315 314 314 312 312 311 311 310 312 313 311 308
298 299 298 298 296 296 298 300 303 302 303 305 310 314 316 318 318 314 318 317 319 319 316 315 316 318 312 318 315 318 317 314 314 314 316 315 314 312 311 311 311 310 310 304
298 297 296 296 296 297 298 303 303 303 305 310 316 318 317 318 320 315 315 318 316 314 314 313 312 313 316 315 317 316 316 316 316 315 315 314 313 311 305 303 303 303 303 302
297 297 297 295 298 301 302 303 302 302 305 310 312 313 317 318 321 320 320 318 316 313 312 307 314 314 315 311 313 315 313 315 315 315 313 312 313 307 303 303 301 300 299 298
297 297 298 299 303 302 301 303 304 305 305 307 309 311 316 317 317 317 318 317 316 315 314 313 312 313 309 309 311 313 313 313 311 314 311 307 305 302 301 300 299 298 298 297
299 300 300 302 302 301 303 301 303 302 303 306 307 312 314 314 315 312 313 312 314 315 315 313 314 314 309 304 309 313 312 308 306 304 304 303 302 301 299 298 297 297 296 296
299 300 301 302 302 302 302 307 305 303 304 308 307 311 313 312 313 314 308 309 309 311 312 310 310 312 305 314 313 311 307 306 305 303 303 302 299 298 297 296 296 294 293 292
301 301 301 301 301 301 304 307 304 305 308 305 303 312 315 310 309 309 306 306 309 306 307 306 310 307 315 315 315 310 307 308 303 301 300 300 299 297 296 295 293 292 291 291
300 301 302 302 303 304 308 306 305 305 302 302 306 307 313 310 305 305 306 303 308 312 309 306 302 309 307 307 308 307 305 303 302 301 300 299 298 296 296 293 292 291 290 289
300 301 302 306 306 305 304 302 301 303 305 303 307 308 311 306 309 307 302 306 305 314 312 312 311 311 306 306 305 304 304 303 303 303 301 299 297 296 293 291 290 288 287 286
301 304 307 307 306 303 306 304 301 304 307 305 308 306 307 303 303 305 303 307 305 314 306 311 313 306 304 304 303 303 302 301 300 299 298 296 295 293 291 289 287 285 283 282
304 304 304 305 301 308 310 310 306 307 303 304 303 305 302 301 299 303 305 308 307 303 310 312 308 307 304 303 303 302 301 299 297 296 294 292 290 289 288 285 284 283 281 281
303 305 307 306 307 305 304 305 305 301 300 302 302 301 302 298 305 303 307 305 306 306 305 304 304 304 302 299 298 297 296 294 294 292 290 288 286 285 284 283 282 281 280 280
300 302 303 302 299 299 299 298 300 298 298 300 300 301 301 303 305 301 305 308 310 305 300 303 303 301 297 296 295 293 292 291 290 289 287 285 284 284 283 282 281 280 279 279
297 296 302 300 302 302 299 299 300 297 298 297 298 302 306 305 304 305 303 306 306 302 302 301 300 297 296 294 293 292 290 289 288 287 286 285 284 283 282 281 279 279 279 278
297 297 295 297 298 298 297 297 297 295 299 303 295 304 307 303 305 305 302 302 300 299 298 297 296 295 293 292 290 289 288 287 286 285 285 283 282 280 280 280 279 279 278 278

GFSNW_925_thetae_066.txt.gz
Theta_e
302 301 299 299 300 300 300 303 306 305 306 312 314 317 313 313 316 316 316 318 321 322 314 314 314 315 314 312 312 313 315 313 313 317 317 316 316 317 316 317 317 315 314 315
302 300 299 299 299 300 301 304 306 309 308 311 313 315 315 314 316 315 316 318 319 320 318 315 314 314 314 312 313 315 316 314 314 314 315 317 320 317 316 314 312 317 315 317
302 300 299 299 299 300 301 304 306 310 309 309 310 315 316 314 315 315 315 317 318 320 320 316 315 315 317 315 314 315 315 315 314 315 315 315 319 317 316 316 315 316 314 315
302 300 299 299 299 299 299 304 307 310 311 309 311 312 313 314 314 315 314 316 318 320 321 318 317 320 321 318 317 315 315 316 315 315 315 315 315 316 314 315 314 316 316 313
302 300 300 299 299 299 299 301 307 308 309 310 310 313 313 314 314 315 315 316 315 317 319 318 318 321 319 319 317 316 313 316 315 317 316 316 319 317 315 315 315 314 314 314
302 300 300 299 298 299 299 298 299 305 310 311 310 311 312 313 313 313 314 314 314 317 315 314 315 316 316 316 317 315 315 315 313 317 313 315 315 314 315 315 314 314 315 313
302 300 299 299 298 299 298 298 301 307 310 312 311 308 312 312 313 314 314 314 315 313 315 316 316 315 317 316 317 315 315 313 310 313 310 312 314 313 313 314 312 311 310 312
301 300 299 299 298 299 297 298 300 308 308 310 312 310 311 312 311 312 313 313 312 312 317 319 319 316 319 318 317 319 315 311 312 316 314 313 315 314 313 312 312 309 310 311
301 300 299 299 297 299 297 298 302 305 310 308 311 312 310 312 311 311 311 311 313 316 315 314 320 321 320 322 318 314 312 310 313 308 313 315 314 314 309 309 311 309 310 311
301 300 299 299 298 299 298 297 299 300 305 312 310 311 311 310 310 309 310 312 318 315 304 306 316 319 318 320 320 317 314 309 312 305 309 313 313 311 307 311 311 308 309 310
300 300 299 299 298 298 298 297 297 300 305 307 311 312 311 311 311 310 310 315 315 311 312 310 311 310 316 316 318 318 320 317 310 305 308 319 310 311 310 309 310 310 308 308
300 299 299 298 298 298 298 299 298 303 305 307 304 305 307 310 310 310 314 313 315 315 315 310 310 313 310 315 319 313 320 318 317 316 316 314 309 310 308 307 311 311 310 307
299 298 298 298 298 297 298 299 299 303 304 305 306 308 311 312 313 312 315 313 316 315 314 313 315 315 312 315 314 319 315 312 314 314 314 312 312 312 310 310 311 309 307 302
298 298 298 298 298 299 298 299 300 303 304 305 311 314 316 317 318 317 314 315 314 311 311 310 312 315 314 314 317 316 315 315 314 312 314 314 312 310 308 306 306 305 301 300
298 297 297 298 299 298 298 299 300 303 305 307 308 307 315 316 318 318 314 314 312 310 310 306 313 313 314 311 313 313 313 315 315 316 313 313 312 307 304 305 304 302 299 298
298 298 298 298 296 297 300 303 301 303 303 305 306 309 315 316 317 316 315 314 314 312 312 308 313 312 313 311 311 313 312 312 312 315 312 307 305 301 301 301 299 298 298 297
297 298 298 296 297 300 302 303 302 303 303 304 304 308 313 313 315 312 311 309 310 312 312 309 313 314 308 303 310 312 310 308 308 305 306 305 303 303 298 298 297 297 296 296
297 296 296 296 299 300 301 306 303 304 305 305 304 309 313 311 314 314 307 308 308 309 311 308 307 311 307 314 312 310 306 305 303 302 302 302 298 297 296 295 295 295 294 292
297 298 301 301 301 300 302 304 304 304 305 304 303 310 314 309 310 308 307 307 309 306 309 308 312 307 313 315 313 309 306 308 303 301 300 299 297 296 295 295 294 293 292 292
300 300 300 298 301 305 303 305 304 305 305 302 305 307 312 310 305 305 307 303 309 313 310 309 308 311 308 306 308 308 306 303 301 301 299 297 297 296 295 294 293 292 291 290
300 300 301 303 304 305 303 301 303 302 305 303 305 308 311 306 308 306 302 306 304 313 310 312 311 312 307 305 306 304 302 301 302 301 299 298 297 295 292 291 290 290 289 287
300 302 303 304 304 301 303 305 301 303 307 304 307 307 307 303 303 304 303 308 305 314 307 311 313 307 303 303 302 301 300 299 299 298 297 296 294 292 291 290 288 286 284 283
302 304 307 304 301 307 307 308 303 306 303 303 304 305 302 301 302 303 306 309 309 303 311 313 307 305 304 302 301 300 299 297 297 296 294 292 291 289 288 286 284 283 282 282
300 303 306 305 307 305 305 305 305 300 300 302 302 302 304 300 304 304 309 305 305 308 309 307 301 303 301 301 299 297 295 294 293 291 290 289 287 285 284 283 282 282 281 280
298 300 303 302 299 299 298 298 300 298 298 299 301 301 301 303 304 302 305 308 306 302 300 302 301 298 297 296 295 294 292 291 290 288 286 285 284 283 282 281 281 280 280 279
296 296 302 300 302 301 299 299 300 297 297 297 299 302 305 305 303 301 302 299 299 303 301 300 297 296 294 293 292 291 290 288 287 286 285 284 284 283 281 279 279 279 279 278
297 296 295 297 298 298 297 296 296 295 299 302 297 305 306 302 304 304 301 301 300 298 296 295 294 293 291 290 289 289 288 287 286 284 283 282 281 280 280 279 279 278 278 278

GFSNW_925_thetae_069.txt.gz
Theta_e
302 303 303 302 301 299 299 301 303 303 303 309 310 312 313 312 315 316 318 317 321 322 315 315 315 316 316 312 313 315 317 318 318 320 317 316 318 320 321 326 321 319 319 320
302 303 303 303 301 299 300 303 302 304 305 308 310 310 312 313 314 316 316 317 318 320 319 315 315 315 314 311 314 317 317 316 318 317 317 318 321 318 317 317 317 321 327 323
302 302 303 302 301 299 300 302 303 305 306 306 308 311 312 314 313 314 315 316 317 318 319 318 315 315 315 313 314 314 316 317 318 319 317 318 321 320 318 320 323 323 321 321
303 302 303 302 300 299 300 302 305 305 307 306 307 309 311 312 314 314 315 316 318 319 318 319 317 317 320 317 317 316 318 319 317 315 313 316 318 319 318 320 320 323 322 317
303 303 304 302 300 299 300 302 305 305 308 306 306 309 311 313 313 313 315 317 316 316 320 320 318 318 320 319 316 318 315 319 316 317 315 316 317 316 316 317 316 316 315 316
304 303 304 302 300 300 301 300 300 303 307 308 306 306 309 313 313 313 313 314 315 317 315 316 315 315 316 318 318 317 316 318 318 320 315 317 319 318 318 317 316 318 319 319
304 302 303 301 300 299 301 300 301 305 306 309 308 306 308 311 313 313 314 314 314 313 314 314 314 316 316 317 316 317 317 317 315 320 313 323 320 314 315 317 316 314 314 313
304 302 302 301 300 299 299 299 300 305 306 307 309 308 306 311 312 312 313 314 313 313 315 316 315 315 318 318 317 316 315 315 316 322 320 317 315 315 316 317 316 314 314 312
304 302 302 301 300 300 299 298 299 303 306 308 309 310 307 310 312 312 312 311 312 313 313 315 318 315 320 323 319 313 312 312 321 313 321 322 318 313 311 312 318 313 312 314
303 303 302 301 300 300 298 298 299 301 307 306 308 310 310 308 311 311 311 312 315 315 309 313 316 321 320 324 322 320 317 314 319 314 321 318 314 311 310 321 320 311 312 314
303 302 301 301 300 300 298 297 300 300 302 304 305 308 310 309 310 311 309 313 314 313 314 314 315 316 319 321 319 319 321 320 320 314 319 323 312 309 316 317 310 310 311 313
303 302 301 300 300 300 298 297 297 299 301 304 304 305 305 307 309 310 312 312 313 314 315 312 313 315 313 319 321 315 323 320 321 319 322 317 311 315 311 310 313 312 312 310
302 301 301 300 300 299 298 297 297 298 300 300 303 305 307 309 307 309 313 312 313 314 313 314 317 317 315 319 319 319 315 313 319 318 317 315 313 311 312 310 312 311 310 307
301 301 300 300 299 299 298 298 297 299 303 303 306 308 305 308 310 309 310 312 313 313 313 312 311 317 315 318 320 320 317 316 316 317 315 315 315 314 312 310 310 307 304 303
301 300 300 300 299 299 297 297 298 299 304 306 305 305 307 313 311 312 311 314 313 314 313 308 317 315 316 313 315 317 315 317 319 320 316 317 316 314 310 310 310 305 302 300
300 299 298 298 297 297 297 299 299 298 299 304 305 307 309 315 315 314 314 314 314 314 314 312 314 312 316 317 320 315 314 313 313 316 313 309 306 304 305 307 305 301 301 299
298 298 298 298 297 298 299 301 301 299 301 304 304 306 311 314 313 312 312 310 312 315 314 312 315 315 312 309 319 313 312 310 310 307 307 308 305 307 301 301 299 298 297 297
297 297 298 298 297 299 302 304 302 301 302 304 304 307 311 312 313 313 309 311 310 310 313 310 314 312 308 317 313 310 307 306 306 304 303 305 300 299 298 298 297 297 296 295
297 297 297 298 299 300 301 303 302 303 303 303 303 307 315 310 311 309 307 308 311 307 311 311 314 312 317 316 314 310 308 309 306 301 300 300 301 299 297 297 296 295 294 294
297 296 299 299 300 303 303 303 303 304 305 302 305 306 311 310 308 307 310 304 309 314 312 310 313 312 309 310 311 311 309 304 302 301 300 299 298 298 297 298 296 295 293 291
300 301 300 300 302 302 301 301 302 302 304 303 305 308 310 305 310 308 303 306 305 316 314 316 314 314 309 305 306 305 303 302 302 301 301 300 299 297 294 293 292 292 290 288
300 301 303 303 303 302 303 304 302 305 308 305 307 308 307 303 303 306 303 308 306 316 308 313 315 308 304 304 302 301 301 300 299 298 297 295 294 293 292 291 289 287 285 285
303 300 301 301 300 305 305 305 305 306 303 303 304 305 303 301 301 303 304 309 311 305 312 315 308 306 304 302 300 299 298 297 295 294 292 291 290 289 288 286 285 285 284 283
298 301 306 306 306 306 306 302 304 301 301 302 302 302 304 301 304 303 310 305 305 311 313 309 305 302 300 299 297 296 294 292 292 290 289 288 286 284 284 284 283 283 282 281
298 300 304 302 299 299 299 298 300 298 298 300 301 302 303 303 304 303 306 309 309 307 306 303 299 297 296 295 293 292 290 289 288 287 285 284 284 283 283 282 281 280 280 279
296 295 300 299 301 300 299 299 299 296 297 297 300 304 305 305 303 305 305 305 305 303 301 298 296 294 292 291 290 289 288 287 286 285 284 283 282 281 280 279 279 278 278 278
296 296 293 294 296 295 295 295 294 294 299 302 302 306 306 303 305 303 300 301 299 297 295 293 292 291 290 289 288 287 286 285 284 284 282 281 280 280 280 280 279 279 278 278

GFSNW_925_thetae_072.txt.gz
Theta_e
303 302 302 302 302 302 301 301 303 302 302 304 307 310 309 310 311 317 319 320 323 324 317 318 315 317 317 317 318 319 319 320 321 321 321 321 322 322 324 323 323 324 324 322
302 303 302 302 302 302 301 302 303 303 303 306 307 309 310 310 313 313 318 319 319 321 324 318 318 317 317 316 318 319 319 320 321 320 320 321 322 322 323 323 323 322 328 323
303 303 303 302 302 302 301 302 303 304 304 306 307 308 310 311 310 313 315 317 318 320 320 321 319 318 317 316 318 319 319 320 320 321 318 318 320 319 320 321 324 321 321 321
302 303 303 302 302 302 300 303 305 304 306 305 307 308 308 309 311 312 314 317 318 319 320 321 320 317 320 316 316 317 320 320 320 319 317 317 318 318 319 320 320 320 321 320
302 303 303 303 302 302 300 302 306 306 307 308 307 308 309 309 310 312 312 315 317 319 320 318 320 319 318 322 320 320 320 320 320 320 319 319 319 319 319 320 320 321 322 320
302 303 303 303 303 301 299 302 302 306 307 308 308 307 308 309 310 312 311 313 313 317 318 319 317 317 318 319 321 322 322 321 321 321 320 320 323 321 320 321 321 321 321 320
302 304 303 303 303 301 300 301 304 306 307 308 308 307 306 307 310 311 312 313 315 315 316 314 313 314 314 316 317 320 323 322 323 322 321 331 320 319 320 321 321 321 321 320
302 303 304 303 303 301 300 300 304 305 308 306 307 307 307 306 308 311 312 313 313 314 314 314 314 314 312 312 314 320 322 323 325 332 324 320 319 316 320 320 321 320 320 319
302 303 304 303 303 301 300 301 302 305 308 307 306 308 308 308 309 312 314 313 315 316 317 317 315 314 312 318 323 318 319 321 326 322 334 333 320 319 318 318 323 320 319 319
302 302 304 302 303 301 300 301 301 304 306 306 306 308 310 308 309 314 314 315 316 316 320 322 324 316 313 317 324 324 322 322 328 327 334 324 320 316 317 322 323 319 318 318
302 302 303 302 302 300 300 301 301 304 305 306 307 307 309 310 310 314 312 315 316 319 320 322 322 324 320 317 316 322 324 326 328 326 335 332 316 314 320 322 320 319 318 318
301 301 303 303 302 300 300 300 300 301 304 306 305 305 306 307 309 312 314 313 315 316 317 321 318 325 324 320 321 320 325 324 325 324 325 324 317 320 318 319 320 318 318 318
301 302 302 302 301 300 299 299 300 300 302 304 303 305 303 302 305 308 313 315 312 315 316 319 322 327 322 327 322 320 320 319 323 323 321 321 321 318 315 315 316 316 316 317
301 302 303 302 301 300 298 298 299 299 301 304 304 303 306 306 306 309 310 311 316 315 318 322 321 325 318 321 318 321 320 320 321 322 322 319 319 319 319 316 316 315 314 314
302 302 302 301 300 298 298 298 298 298 302 304 303 302 304 305 305 308 310 313 316 319 319 313 320 318 322 321 321 323 320 322 324 325 322 322 322 321 319 318 317 316 313 311
302 302 301 300 299 298 298 300 299 298 300 303 308 306 305 303 307 311 312 314 315 317 318 321 318 319 322 326 325 319 319 320 320 321 317 318 314 311 310 316 317 315 312 310
301 300 300 299 297 298 299 300 300 299 300 302 305 308 308 306 308 314 314 314 316 317 319 320 321 322 319 320 323 318 320 319 317 314 313 317 313 315 308 309 308 306 307 305
300 300 298 298 298 297 299 303 302 298 300 302 307 307 306 312 315 315 315 316 317 315 317 316 320 317 317 323 319 318 317 314 314 313 311 313 308 306 306 305 304 304 303 302
298 298 298 297 298 300 301 301 299 298 301 304 304 308 310 310 311 311 313 316 315 312 317 319 321 318 324 323 319 319 316 314 317 311 309 306 308 307 305 305 304 303 301 300
298 297 298 299 299 300 301 302 303 303 304 305 305 302 305 309 307 307 313 313 313 313 315 317 320 322 319 316 315 316 315 313 309 309 308 306 307 305 304 305 303 301 300 298
299 300 301 300 301 303 302 302 304 304 305 305 306 305 306 305 305 308 307 311 310 320 319 321 321 320 316 309 311 311 310 309 307 307 306 305 305 304 303 300 297 294 293 291
299 301 301 301 304 304 305 305 304 305 308 308 309 309 307 306 305 307 305 312 306 317 311 321 321 312 307 306 306 306 306 305 304 303 302 302 300 299 297 295 293 290 287 286
302 303 303 305 303 305 306 308 306 307 307 307 307 309 308 307 306 305 308 314 313 305 312 313 308 306 304 302 302 301 301 300 299 297 295 293 292 291 291 289 288 287 286 285
302 305 306 310 305 306 309 308 309 307 306 306 307 307 309 303 307 306 314 307 307 316 319 310 305 301 299 297 296 295 293 291 291 290 289 288 287 286 286 286 286 286 285 284
299 302 307 306 302 301 299 299 302 300 303 305 307 307 306 306 308 307 308 312 311 308 307 303 298 296 295 293 292 290 289 288 287 286 286 285 285 285 285 284 283 282 282 281
298 296 300 297 302 300 298 297 300 297 299 300 304 305 308 309 308 308 307 309 306 302 299 297 294 292 291 289 289 288 287 286 286 285 285 284 283 283 282 281 281 281 280 280
299 297 293 294 296 294 294 294 294 294 300 304 306 310 309 307 306 303 300 299 298 296 293 292 291 290 289 288 287 287 286 286 286 285 284 283 282 282 282 282 280 280 279 278

GFSNW_925_thetae_075.txt.gz
Theta_e
302 302 302 301 302 302 302 302 305 303 303 306 306 307 309 310 311 312 312 314 318 316 317 321 317 317 318 318 319 320 320 321 322 321 321 321 322 323 323 325 324 324 324 325
302 302 302 302 302 302 302 302 303 303 304 306 306 306 308 309 310 311 314 317 318 321 319 321 320 318 318 317 319 320 320 320 322 322 321 322 322 323 323 324 324 324 333 327
302 302 302 302 302 302 302 301 304 306 306 305 307 306 307 308 308 311 311 315 315 317 321 321 320 320 318 319 318 320 322 320 321 324 321 321 321 320 321 322 329 326 323 321
301 302 302 302 302 302 302 302 306 306 306 306 308 307 306 308 309 309 311 312 315 317 317 318 318 321 319 317 316 319 321 321 320 319 319 319 319 319 319 320 321 324 322 321
300 301 302 302 303 303 302 302 305 305 306 306 307 307 307 307 308 308 310 314 313 315 315 319 315 317 320 320 320 319 321 323 321 320 319 319 318 318 318 318 319 319 319 319
300 300 301 302 302 303 302 301 303 306 306 307 308 309 308 307 307 309 310 311 313 315 315 319 319 318 318 318 320 322 322 324 322 324 320 320 325 319 319 319 319 320 321 321
300 300 299 303 303 303 301 302 304 308 307 307 308 307 307 307 307 309 309 311 313 313 315 317 316 316 316 316 315 317 323 323 325 328 326 329 321 320 320 320 319 320 320 320
300 301 300 300 302 303 302 302 305 307 310 307 306 308 307 307 308 309 311 310 312 313 316 317 316 315 317 315 315 316 317 324 326 331 328 322 319 319 320 320 320 320 320 320
301 301 301 300 303 303 302 302 304 307 309 309 306 308 308 308 308 309 311 312 314 317 316 317 315 316 311 310 317 319 316 322 329 328 328 329 322 320 320 320 325 320 320 320
302 301 301 301 302 302 302 302 304 307 307 306 306 307 309 308 309 311 309 312 315 316 318 322 321 317 311 312 320 324 325 324 330 330 332 323 320 320 320 324 324 320 320 320
302 302 301 300 304 302 302 301 303 306 307 306 306 308 308 309 310 311 309 314 316 319 320 321 317 319 314 314 312 317 326 326 330 329 336 332 320 319 321 323 324 322 322 320
303 302 302 301 303 302 301 302 303 304 307 306 308 308 309 309 309 309 311 314 314 315 317 320 318 324 327 316 319 313 324 323 326 325 326 323 320 321 322 321 323 323 322 320
303 302 302 301 303 302 301 302 304 304 306 307 307 308 307 308 309 309 312 316 314 315 317 316 318 320 317 326 322 315 315 316 323 322 321 323 323 322 321 321 321 321 320 320
302 302 302 303 303 301 301 303 303 303 305 306 305 304 307 305 305 307 308 312 315 316 315 320 320 323 314 321 316 318 317 318 320 320 319 320 322 323 323 322 320 319 319 319
302 302 303 302 300 300 301 302 303 302 304 306 305 305 304 306 307 307 308 309 315 316 321 323 320 316 314 317 318 319 317 317 323 324 321 322 322 321 323 323 322 320 320 318
301 302 303 300 299 300 300 300 300 301 302 305 306 305 305 304 306 307 309 311 314 316 315 319 316 313 315 326 321 316 314 315 318 320 320 322 322 317 317 321 321 321 320 318
302 303 299 298 299 300 302 302 301 300 300 304 305 307 307 304 306 307 309 310 313 316 318 318 318 318 317 325 323 313 315 316 317 319 320 320 319 320 314 314 315 312 315 315
302 299 298 299 300 299 303 301 299 301 302 303 305 307 306 307 309 309 309 313 315 315 317 318 320 320 322 321 316 315 315 318 319 319 318 318 316 313 313 311 310 311 311 310
298 298 298 298 299 301 303 301 299 301 302 304 303 307 308 300 310 312 313 314 316 314 317 317 318 321 323 320 318 317 318 317 318 318 315 313 313 313 311 310 309 309 307 306
298 299 299 301 302 300 298 299 302 302 304 305 305 306 306 303 301 312 315 314 314 315 316 315 319 321 317 319 318 319 319 318 315 316 315 313 313 311 310 310 308 307 305 304
301 302 302 301 300 300 302 302 303 304 306 306 306 307 307 304 306 307 309 313 314 317 318 318 318 319 318 315 315 314 315 314 313 312 312 311 312 310 308 306 304 303 300 297
301 302 301 301 302 304 306 307 306 305 307 308 309 307 307 305 300 302 307 315 311 321 317 323 320 311 307 309 310 311 310 309 308 308 307 306 304 302 297 296 293 290 288 287
303 302 305 305 306 305 306 307 308 310 308 310 310 309 307 305 300 301 308 314 315 309 316 314 308 304 303 302 303 304 304 302 301 299 297 295 294 293 292 290 289 288 286 285
304 306 306 309 305 307 309 309 310 307 307 308 307 306 305 303 303 304 310 308 307 316 317 310 303 299 297 296 294 294 293 292 291 290 289 288 288 287 287 287 287 287 286 285
301 305 305 305 302 301 301 301 303 301 303 308 309 307 306 305 308 307 308 311 311 310 308 302 297 295 293 292 290 289 288 288 288 287 287 287 286 286 286 285 285 284 283 282
299 297 302 297 304 301 298 297 299 296 298 302 307 307 308 309 309 309 307 310 307 302 299 295 292 291 290 289 288 287 287 287 287 287 286 286 285 285 284 283 283 282 282 282
301 296 294 295 298 295 292 291 291 292 299 305 306 309 308 307 306 304 301 300 298 295 293 292 292 291 290 289 288 288 288 288 287 287 286 286 285 284 283 283 281 280 280 279

GFSNW_925_thetae_078.txt.gz
Theta_e
301 301 301 301 301 301 302 302 303 302 304 306 306 308 308 307 307 308 311 312 313 313 316 322 322 319 318 318 319 320 320 322 324 322 322 321 321 323 325 329 326 329 332 329
301 301 301 302 302 302 303 303 303 303 304 306 306 305 306 307 306 307 309 312 313 314 318 320 321 320 318 317 318 320 321 321 324 323 322 322 322 322 323 324 325 327 332 327
301 301 302 302 302 302 303 300 304 306 305 306 306 306 306 306 306 307 308 312 313 313 322 323 320 321 319 322 320 319 322 323 323 326 324 323 322 321 321 326 329 328 328 325
301 301 302 302 302 302 303 297 305 306 307 307 307 307 305 306 306 307 308 311 312 312 319 322 320 321 320 320 321 319 322 323 324 321 320 320 321 322 321 321 321 323 324 322
301 300 300 301 303 302 303 299 304 305 306 306 307 308 308 307 306 305 307 310 311 313 318 317 316 318 321 321 321 324 321 324 323 324 320 321 321 320 320 320 320 319 321 321
299 299 299 300 301 302 303 300 303 306 307 307 308 308 307 307 307 307 307 308 311 313 315 317 319 319 320 321 321 319 324 324 324 326 322 320 321 321 320 319 319 320 320 321
300 300 299 300 301 302 302 301 303 306 309 308 309 306 306 307 307 307 307 309 310 313 314 319 318 318 318 319 319 319 320 322 325 326 324 326 321 321 320 320 320 320 320 320
300 300 299 300 300 300 302 301 303 306 309 307 307 307 307 307 308 308 308 309 310 311 313 314 319 318 320 319 317 319 318 320 326 328 326 323 321 321 321 321 321 321 320 320
300 300 299 300 300 300 302 301 303 306 308 309 306 307 308 309 308 308 309 309 310 314 314 315 320 321 316 320 318 317 318 319 321 329 328 329 325 321 320 321 322 321 321 321
301 300 300 300 300 301 300 301 302 304 307 306 308 308 308 309 309 309 309 310 310 315 316 320 320 320 312 312 318 321 321 322 324 325 329 326 322 320 320 324 324 322 323 323
301 301 301 301 301 301 299 302 302 304 306 306 306 307 308 310 310 310 308 311 312 316 317 318 319 320 316 314 312 323 323 325 327 327 329 329 321 321 322 323 325 325 324 323
302 301 301 301 300 301 300 302 302 303 305 307 307 306 307 308 309 310 310 311 311 313 317 319 318 321 319 315 316 316 323 321 325 325 326 326 322 322 323 324 326 325 326 324
302 302 302 302 301 301 301 301 302 304 306 306 308 309 308 310 310 311 312 312 312 314 317 316 319 320 315 323 319 315 315 321 325 325 321 321 325 323 323 323 323 324 323 323
302 302 302 301 302 300 302 302 303 304 304 308 306 305 307 308 309 311 310 310 311 313 315 318 320 321 317 318 319 318 318 317 319 321 320 319 320 322 324 324 324 322 321 321
302 303 302 302 301 300 301 302 303 304 306 307 307 307 306 306 307 308 309 310 311 313 315 316 319 317 320 319 318 318 317 317 320 325 321 323 322 322 323 325 322 322 321 321
303 302 302 302 302 301 303 302 304 304 304 308 308 306 306 306 306 308 309 311 311 312 315 317 318 317 319 327 321 316 317 317 317 319 321 323 323 319 317 320 323 322 322 322
302 302 302 301 301 302 303 304 302 303 304 306 307 307 307 306 307 308 308 309 310 311 315 316 318 318 316 323 320 314 315 315 315 317 316 322 321 320 316 316 315 315 317 317
301 301 301 301 301 301 303 302 302 302 303 304 306 306 308 303 309 309 308 309 310 312 314 317 318 318 319 319 314 316 316 315 316 321 320 319 316 315 314 313 313 313 313 313
300 299 301 301 302 303 302 301 301 302 304 305 303 308 309 299 305 308 310 310 311 312 314 316 317 319 320 317 316 316 315 315 314 316 319 316 315 314 312 311 311 310 309 309
300 300 299 298 301 300 300 300 302 302 304 306 305 306 307 302 303 308 312 312 312 313 314 315 315 319 316 316 318 320 320 318 318 319 317 315 315 313 312 311 310 308 307 305
301 303 302 299 300 302 303 302 303 303 305 306 306 307 306 303 306 305 310 311 313 315 315 316 319 318 317 317 316 316 316 314 314 314 313 314 314 311 307 300 296 296 293 291
303 301 301 301 302 302 306 305 303 305 306 307 309 307 307 303 303 305 305 313 310 315 315 318 317 310 310 311 312 312 310 309 309 308 306 303 301 298 296 293 291 289 287 286
303 303 303 305 303 305 308 305 305 309 309 309 308 308 306 301 302 303 305 311 314 310 319 317 307 303 301 301 301 300 299 299 297 295 294 292 292 291 290 288 287 286 285 284
304 305 304 305 305 308 306 309 310 305 309 309 307 305 303 299 302 303 310 308 309 315 314 309 301 297 295 294 293 292 292 291 291 290 289 289 288 287 286 286 285 285 284 284
301 304 305 303 301 299 298 300 302 299 301 306 308 304 302 303 306 305 308 311 312 309 306 301 295 293 291 290 289 289 288 288 288 287 287 286 286 285 285 284 283 283 282 282
298 296 300 297 302 298 294 293 296 294 295 301 303 304 307 308 307 309 308 309 305 301 298 294 292 290 289 288 288 288 288 287 287 286 286 285 285 284 284 283 283 283 282 282
300 296 294 296 295 293 291 290 291 292 297 304 304 306 306 307 306 302 298 297 296 294 293 291 290 289 289 289 289 288 288 288 287 286 286 285 284 283 283 283 281 281 280 280

GFSNW_925_thetae_081.txt.gz
Theta_e
299 299 300 300 301 301 302 302 302 303 303 305 304 304 303 304 305 305 306 306 307 310 312 313 313 321 319 316 316 317 317 321 320 319 319 320 320 321 322 327 327 327 324 323
299 299 300 300 301 301 302 301 302 302 304 305 305 304 304 304 305 305 306 307 307 308 310 314 315 320 320 316 317 318 317 320 322 321 319 320 320 320 321 321 322 326 325 326
300 300 300 300 301 301 302 297 302 304 304 304 304 305 305 305 305 305 306 307 306 307 308 312 315 318 321 317 319 318 317 319 319 321 321 321 321 320 320 321 322 323 323 324
300 300 300 300 301 301 303 297 301 304 305 306 304 305 305 305 306 305 305 305 306 307 309 313 315 320 317 319 319 321 319 321 319 320 319 320 322 321 320 320 321 325 324 324
300 300 300 301 301 302 303 297 302 303 303 305 306 305 307 307 306 305 305 306 305 307 310 311 315 317 316 319 320 321 319 320 320 320 320 320 321 320 319 320 320 318 318 319
300 300 301 301 301 302 303 300 300 304 305 305 306 306 304 307 306 306 305 305 305 305 307 310 314 318 318 318 321 318 320 320 323 322 321 321 320 319 319 320 320 318 318 317
299 299 299 301 301 302 303 301 301 303 305 305 306 305 306 305 306 307 307 306 305 306 308 316 314 315 315 317 319 318 321 321 323 323 320 325 320 318 319 319 319 318 318 317
299 300 300 299 300 300 301 302 301 303 303 306 306 306 306 305 305 306 307 306 306 304 313 315 316 316 317 316 319 319 319 319 318 323 324 324 322 319 319 319 319 319 319 318
300 300 300 300 299 299 301 299 300 302 303 304 306 306 306 306 305 305 305 306 305 307 308 309 314 318 318 319 318 318 319 319 320 319 325 326 322 320 319 319 319 319 319 318
299 299 299 300 300 300 300 300 299 302 303 303 304 307 306 306 306 305 305 307 307 307 308 306 314 315 317 319 318 318 317 315 317 320 321 322 321 320 319 320 318 318 320 320
300 300 300 300 300 300 300 299 299 302 304 304 304 307 306 308 308 307 305 306 307 309 309 311 314 311 315 316 315 318 319 320 318 317 319 323 319 319 320 318 318 320 321 321
300 301 301 300 300 300 299 299 300 299 304 305 305 305 305 306 307 307 306 306 308 311 313 310 311 309 308 312 312 317 321 319 321 320 319 321 322 322 320 321 321 321 322 320
300 300 301 301 301 300 300 299 300 300 303 305 306 307 304 305 305 308 308 307 306 310 313 312 312 311 312 310 311 311 317 317 318 318 318 316 320 321 318 317 318 319 319 318
301 301 300 300 301 300 300 300 301 301 299 304 306 305 307 306 305 309 310 309 311 309 311 313 311 309 311 310 313 315 313 317 319 320 320 318 318 319 318 317 316 320 319 319
300 301 301 301 302 301 301 300 301 302 304 305 305 305 306 308 308 309 310 309 308 308 307 308 313 312 312 312 314 315 314 315 317 318 318 317 317 318 318 317 318 319 318 318
300 301 301 301 302 301 301 302 302 302 304 305 305 306 306 307 306 307 308 308 308 307 308 308 313 312 315 308 313 315 313 313 313 314 317 320 318 316 316 317 315 317 318 318
301 302 301 302 301 300 301 301 303 302 304 305 304 304 306 306 306 305 306 306 306 307 309 308 311 311 313 304 311 313 313 313 313 318 317 319 318 315 313 312 313 312 312 311
302 302 301 301 300 302 303 303 303 304 304 305 301 303 305 301 305 305 304 305 306 306 309 310 312 311 313 313 313 312 312 312 313 319 316 315 313 311 311 310 309 309 308 307
302 301 301 301 301 302 302 303 303 303 303 299 300 302 304 300 303 304 306 304 301 305 305 308 310 311 314 314 312 312 312 313 312 312 314 313 312 311 310 308 307 306 304 297
300 300 299 297 301 302 301 300 301 302 301 300 298 301 301 301 301 302 302 302 303 310 308 310 309 311 313 314 316 316 316 315 315 314 314 312 311 307 303 300 297 295 292 290
301 301 300 300 301 302 301 301 301 301 302 300 302 303 301 301 302 303 301 305 304 310 310 310 312 310 314 314 312 310 310 307 304 303 303 306 303 298 294 291 290 288 287 285
301 300 300 301 302 302 303 302 301 300 302 301 302 301 303 301 301 301 298 307 306 305 307 306 309 307 303 302 301 299 299 299 298 297 296 294 293 291 290 288 287 286 284 284
301 301 301 303 299 302 298 304 299 303 300 302 301 304 302 300 302 302 303 307 308 306 303 306 304 301 298 297 296 294 293 292 291 291 290 289 288 287 287 286 285 284 283 283
300 300 303 304 304 304 302 304 303 301 303 301 302 303 303 299 301 303 306 307 307 309 312 306 299 295 293 292 292 291 290 289 289 288 287 287 286 285 285 284 284 283 282 282
298 299 301 299 299 297 294 295 298 295 296 301 302 301 301 302 304 303 306 307 310 304 300 296 293 291 290 289 289 288 288 287 287 286 285 284 284 283 283 283 282 282 281 281
292 293 297 295 297 293 291 290 293 292 292 296 300 303 305 306 306 306 302 305 299 297 293 290 289 289 288 288 288 287 286 286 285 285 284 284 283 283 282 282 281 281 281 281
296 292 290 292 293 290 289 290 290 290 293 303 302 303 301 302 303 297 294 294 293 291 290 289 289 288 288 287 287 286 286 285 284 284 283 283 282 282 281 282 281 281 280 279

GFSNW_925_thetae_084.txt.gz
Theta_e
297 297 298 298 299 300 300 301 303 302 301 302 303 303 301 301 302 303 303 304 303 304 304 307 308 311 313 312 315 316 313 315 317 318 317 317 317 319 322 326 327 324 322 321
297 298 298 298 299 300 301 302 301 302 302 303 303 303 304 303 302 303 304 305 306 306 308 308 307 312 312 315 317 316 314 316 319 319 317 317 318 318 320 324 323 326 325 323
297 298 298 299 299 299 301 296 301 303 304 303 302 303 304 305 303 304 303 304 304 306 306 307 309 311 314 316 315 317 315 317 317 319 318 319 321 320 320 322 323 322 323 321
298 299 299 299 299 299 301 296 300 303 303 304 303 303 303 305 304 304 305 305 305 305 307 307 308 309 317 314 315 318 319 318 318 318 318 319 319 319 320 321 321 321 320 321
298 298 299 300 300 300 302 298 302 302 301 302 306 303 304 304 304 304 305 304 305 305 305 305 306 310 317 316 315 316 318 318 318 319 318 319 322 320 319 319 319 319 321 320
298 299 299 299 300 300 301 300 298 303 302 303 303 304 304 304 304 304 305 305 304 305 305 304 305 308 316 317 317 315 318 319 317 318 319 320 321 320 320 320 319 319 319 318
299 299 299 299 300 300 300 300 301 302 304 303 304 303 304 305 303 306 306 305 305 305 304 306 312 313 314 314 314 315 319 321 317 316 319 325 321 318 319 320 319 317 316 316
299 300 300 300 301 301 301 301 301 302 303 304 304 304 304 303 304 304 304 305 305 304 305 311 312 310 313 313 314 316 320 320 319 323 320 321 320 319 318 319 318 317 316 316
299 299 299 300 299 299 302 301 300 302 303 303 304 305 304 305 304 304 304 304 304 305 305 307 309 309 315 317 318 318 319 317 318 318 321 321 319 318 318 318 319 317 316 317
299 299 299 299 299 300 299 301 300 300 302 301 302 305 306 305 305 304 304 304 303 304 305 307 307 308 314 315 317 317 314 313 317 318 321 318 319 319 318 322 318 317 317 318
299 299 299 299 300 300 300 300 299 299 299 301 301 303 305 305 305 305 304 305 304 305 304 304 306 305 311 316 316 316 317 314 310 314 315 319 317 319 319 317 318 318 318 319
299 299 299 299 299 299 300 300 299 298 299 301 302 302 304 305 305 306 306 305 304 306 306 304 307 308 307 313 315 312 318 315 315 314 315 315 318 321 319 319 319 319 319 319
300 299 299 300 299 299 300 300 300 299 300 299 299 303 303 305 305 306 308 305 305 308 306 308 308 308 310 310 311 313 315 316 316 317 318 318 318 320 319 316 317 317 317 319
301 300 300 300 300 299 299 300 299 299 299 300 303 301 305 305 306 305 306 308 307 306 307 307 306 305 311 310 311 311 310 316 315 315 316 317 317 316 316 316 317 317 317 317
302 301 301 300 301 299 299 299 299 298 299 302 302 303 305 305 305 305 306 308 307 306 305 304 310 310 311 310 311 311 310 314 316 316 316 317 315 316 315 316 316 316 318 318
300 300 300 300 301 300 300 300 299 299 299 303 304 304 306 306 305 306 307 308 307 306 305 305 309 311 312 311 310 311 310 310 312 314 313 315 317 315 316 316 315 314 316 316
300 301 301 300 301 300 298 301 300 300 300 300 304 305 305 307 306 306 305 304 306 305 304 304 306 308 311 308 310 311 311 311 313 314 316 318 316 315 312 312 309 308 307 307
300 301 300 300 301 299 300 301 301 300 301 299 303 305 304 302 304 304 302 303 303 303 304 303 305 306 307 308 310 310 311 311 311 316 315 314 310 310 309 307 306 302 298 297
301 300 301 300 300 301 302 302 301 302 299 300 296 300 306 299 302 303 302 301 302 301 301 303 306 306 308 310 311 312 311 312 311 313 311 310 310 308 306 303 298 296 293 290
299 299 298 297 302 302 302 301 298 301 302 297 294 297 302 301 300 303 304 299 299 304 306 305 302 305 307 311 309 307 305 307 310 311 310 308 303 300 297 294 293 291 289 287
300 300 297 302 301 300 299 300 301 300 301 298 300 299 302 299 301 302 296 303 298 305 303 307 309 309 309 307 305 301 299 299 299 301 300 300 297 294 291 289 288 287 285 284
300 300 300 300 301 300 300 300 300 299 300 299 301 300 298 297 298 297 299 302 304 306 303 303 311 306 302 300 299 298 296 296 296 294 293 292 291 289 288 287 286 285 284 283
301 299 299 300 296 297 294 299 302 297 300 298 300 303 300 300 301 300 302 304 306 304 304 305 304 300 298 296 294 293 293 291 290 290 289 287 287 286 286 285 284 283 283 282
299 295 300 298 300 300 299 303 303 298 299 296 299 302 302 300 301 302 304 301 306 308 310 307 299 295 293 292 291 290 289 289 288 287 286 286 285 284 283 283 282 282 281 281
294 295 297 296 295 293 292 293 296 293 294 299 301 301 301 301 303 302 304 307 308 303 302 296 293 291 290 289 289 288 287 286 286 285 284 284 283 283 282 282 281 281 280 280
291 289 292 292 291 290 290 290 292 291 292 295 299 302 303 304 303 302 297 300 297 294 290 290 290 289 288 288 287 286 285 285 284 284 283 283 282 282 281 281 280 280 279 279
289 288 288 288 287 286 289 288 290 290 293 302 301 299 298 298 298 294 293 291 290 290 289 289 288 287 287 286 285 284 284 283 283 283 282 282 282 281 281 281 280 279 278 278

GFSNW_925_thetae_087.txt.gz
Theta_e
296 296 296 296 296 296 298 299 301 300 300 302 300 301 299 300 300 301 303 303 302 303 304 303 304 307 311 311 313 314 316 313 313 313 314 315 315 317 319 322 325 322 320 321
296 296 296 296 296 297 299 300 300 301 300 301 301 300 300 301 300 300 303 305 305 304 305 306 306 305 306 309 316 317 315 318 315 316 314 314 316 316 318 321 320 323 324 322
296 296 296 296 297 298 299 299 301 301 301 301 301 301 302 303 303 302 302 302 303 303 303 304 306 307 308 310 315 315 313 320 321 317 315 314 318 318 318 322 321 321 323 322
296 296 296 297 297 298 299 299 300 301 302 302 303 301 302 303 304 304 304 304 303 304 305 304 305 305 306 309 315 313 314 319 320 317 314 315 319 319 318 319 319 322 321 322
296 296 297 297 298 298 300 299 301 302 300 302 303 304 303 303 303 303 304 303 303 304 305 304 304 304 304 312 315 314 314 319 318 317 316 315 316 316 320 320 319 317 318 319
296 296 297 298 299 299 300 299 298 302 302 302 303 304 303 304 303 303 303 303 303 304 304 303 303 303 304 307 313 315 313 317 318 319 317 318 320 319 318 318 318 317 318 318
297 298 298 298 298 298 299 299 299 300 302 302 303 302 303 304 303 304 304 303 303 303 303 304 304 303 304 304 308 314 315 315 314 319 317 323 318 316 318 319 319 318 317 316
298 298 298 298 298 298 300 300 300 301 302 302 302 302 302 303 304 303 303 303 304 302 304 307 307 307 311 311 313 313 314 316 317 321 320 318 319 318 318 319 319 318 317 316
298 298 299 299 299 298 299 300 300 301 302 302 302 302 302 302 303 303 303 303 302 302 304 305 310 307 308 314 316 316 315 315 318 318 321 320 316 317 317 319 322 317 316 318
299 299 299 299 300 299 299 300 300 301 302 301 301 303 303 303 303 303 303 304 303 302 302 303 305 307 308 310 311 318 317 316 319 318 320 316 315 316 318 324 320 316 317 315
299 299 299 299 299 300 301 301 300 300 300 301 301 302 303 303 303 304 303 304 303 302 301 299 303 303 306 308 312 314 316 317 316 315 315 316 314 320 320 316 319 318 318 317
298 299 299 299 299 299 299 299 299 300 299 301 301 301 302 303 303 304 304 305 304 304 303 301 302 302 301 308 309 312 314 313 317 315 313 311 313 320 319 318 318 319 317 318
299 299 299 299 300 299 300 300 298 298 297 298 298 299 301 301 302 304 305 304 305 307 305 304 305 304 303 304 309 310 312 313 316 316 314 313 313 314 318 317 317 316 316 317
300 300 299 300 299 299 300 300 299 298 299 299 297 298 298 301 302 305 305 306 307 306 306 306 302 303 306 306 307 311 310 315 316 314 313 312 313 314 316 317 316 316 315 317
301 301 300 300 299 298 299 300 299 299 298 296 295 300 299 299 300 303 306 306 307 307 306 305 308 305 308 307 308 310 309 311 312 312 312 312 313 312 315 315 315 316 316 316
302 301 301 300 299 298 299 296 299 299 298 299 301 299 302 304 304 305 305 306 307 307 307 306 305 307 308 305 308 308 309 308 310 312 311 312 313 314 313 316 313 314 315 316
300 300 300 301 299 300 297 299 299 299 299 300 300 304 303 304 304 305 305 305 307 307 306 305 306 307 308 305 306 308 308 307 307 308 312 315 315 315 309 308 304 303 301 302
300 300 301 299 300 298 299 301 299 298 299 299 300 305 305 302 305 306 304 305 304 305 306 304 305 304 303 305 306 307 307 307 307 308 308 312 311 308 306 301 298 295 294 292
301 301 300 299 298 299 301 300 299 299 300 299 300 303 305 301 303 304 302 303 305 300 302 303 303 302 305 306 306 310 308 309 308 311 310 309 307 305 301 298 295 292 290 289
300 298 298 297 301 300 300 300 300 300 301 298 298 299 303 302 301 301 302 295 298 304 304 303 303 303 304 308 308 305 302 301 301 309 308 304 300 297 295 292 290 289 287 286
299 298 301 301 300 299 297 299 300 300 301 299 300 299 303 299 301 303 295 302 297 303 302 304 306 306 305 305 302 299 298 297 296 297 302 300 296 292 290 288 287 286 285 284
300 300 301 300 300 298 300 299 300 299 302 297 301 298 299 299 295 299 300 299 302 304 301 306 306 305 302 300 298 296 296 294 293 292 291 290 289 288 287 286 285 284 283 282
300 300 298 299 296 296 296 300 302 299 294 296 300 300 300 299 297 297 299 302 302 301 307 305 304 300 297 296 294 293 291 290 290 289 288 287 287 286 285 284 283 282 282 281
297 295 294 291 292 296 296 299 301 296 298 298 299 300 300 299 299 300 302 298 304 307 304 304 299 295 293 292 291 291 289 288 287 287 286 285 284 284 283 282 282 281 280 279
292 293 294 293 293 292 291 292 294 292 293 299 300 300 301 301 299 300 301 304 304 304 302 295 293 291 290 289 288 287 287 286 285 284 284 283 283 282 282 281 280 279 278 278
289 288 290 289 290 289 289 289 290 290 291 295 300 302 302 300 299 301 298 298 295 292 291 290 290 289 288 287 286 285 285 284 284 283 283 282 281 281 280 280 279 279 278 278
288 287 286 286 284 286 287 286 288 288 292 301 299 298 296 297 296 294 293 291 290 288 289 288 287 286 285 285 284 284 284 283 282 282 282 281 281 280 280 279 278 277 276 275

GFSNW_925_thetae_090.txt.gz
Theta_e
297 297 297 297 296 296 296 297 300 299 299 300 300 299 298 298 298 300 302 301 300 299 301 302 302 305 305 302 304 310 314 317 315 314 312 311 313 314 315 318 319 320 318 319
296 297 297 296 295 295 297 298 299 299 299 300 300 298 298 299 299 299 301 303 303 302 304 305 304 303 304 308 311 314 312 317 318 315 313 312 312 313 315 318 318 319 321 320
296 296 297 296 295 295 297 297 299 298 300 300 298 299 299 299 300 299 299 301 301 301 302 302 305 305 304 304 303 313 311 314 315 320 319 319 318 314 314 318 319 319 320 320
295 296 297 296 295 295 296 297 298 299 298 300 300 300 300 299 300 302 302 302 301 301 303 304 304 303 304 304 305 312 312 313 312 314 315 316 319 317 314 315 317 319 318 319
294 295 295 295 295 295 297 298 299 299 298 299 301 300 300 300 300 300 304 305 304 304 303 304 304 303 303 304 311 313 313 310 315 314 314 318 319 316 315 317 316 317 316 317
294 294 295 295 295 296 297 298 298 300 300 299 300 300 301 302 301 303 302 303 304 304 303 303 303 304 303 304 304 305 310 313 317 317 316 316 317 314 314 314 317 317 317 315
295 295 295 296 296 296 297 298 297 300 300 301 300 301 302 303 303 303 302 303 303 303 302 303 303 303 303 304 303 304 307 313 314 317 316 323 316 314 314 315 315 315 316 315
296 296 296 296 297 296 298 298 299 300 301 300 301 301 301 302 303 303 303 303 302 302 303 307 307 305 307 307 304 303 304 310 314 318 321 317 318 316 317 318 317 316 316 315
297 297 297 297 297 298 298 298 298 299 302 300 300 302 302 302 303 303 303 303 302 302 303 305 307 306 307 308 311 307 308 311 313 317 319 318 317 315 314 317 319 316 315 315
298 298 298 298 298 298 298 299 298 300 300 300 300 302 302 301 302 302 303 303 303 302 305 305 306 307 306 307 307 313 313 313 314 315 318 316 316 316 315 321 318 316 317 314
298 298 298 298 298 298 299 299 299 299 298 301 300 300 302 301 302 303 303 304 302 303 305 303 303 303 305 305 304 308 310 316 317 317 319 319 313 316 321 315 316 317 316 315
298 299 298 298 299 299 299 299 299 299 299 301 301 301 301 301 301 302 303 304 303 303 304 300 300 301 299 305 308 307 311 312 314 315 316 314 311 313 313 317 317 317 316 315
298 298 298 299 299 299 299 300 299 299 296 297 299 300 301 301 302 302 303 301 303 305 306 306 304 302 301 302 304 307 307 310 312 313 312 312 311 312 312 314 316 317 316 317
300 299 298 298 298 299 299 300 298 298 298 300 299 299 299 301 301 301 302 303 304 305 306 305 306 303 303 303 303 305 306 309 311 312 313 313 311 312 311 314 316 315 316 316
300 300 300 299 298 298 299 299 298 298 298 299 296 298 298 300 299 301 302 304 305 305 306 305 307 306 307 304 305 305 306 307 308 309 311 310 309 310 313 313 314 311 313 315
301 301 301 300 298 299 300 299 299 298 298 299 299 296 299 299 298 300 301 302 305 306 305 303 303 305 307 305 304 304 304 305 306 308 309 308 308 311 310 313 307 302 300 304
301 301 300 301 299 299 297 298 299 299 298 299 297 295 300 300 299 299 302 302 304 305 306 306 306 304 308 299 307 305 306 306 306 305 306 306 309 312 304 303 301 299 297 295
300 300 301 301 300 298 298 300 298 299 298 299 295 294 304 301 301 303 302 303 304 305 304 304 306 305 303 306 304 305 305 305 305 305 305 306 306 302 300 298 297 295 293 292
300 301 301 299 296 297 300 299 299 299 299 299 297 294 304 301 304 304 304 304 303 301 303 303 305 305 307 305 304 304 304 307 308 308 309 307 304 301 299 297 295 293 291 289
298 295 295 297 300 299 299 299 299 298 300 299 295 299 303 302 302 303 302 302 304 306 305 302 305 305 302 303 303 303 305 304 303 306 307 303 300 295 292 291 290 289 287 286
298 300 300 300 299 298 298 298 298 299 299 298 298 299 302 298 303 303 299 303 301 301 300 303 305 304 302 302 302 298 297 297 296 297 295 299 295 290 289 288 287 286 285 284
300 300 300 300 299 299 298 295 299 300 300 299 299 300 301 298 298 301 299 301 302 303 299 305 304 301 301 300 298 296 294 292 291 291 290 289 288 288 287 286 285 284 283 281
300 297 296 298 295 298 300 294 300 299 297 299 299 300 299 298 295 298 300 301 302 299 306 306 302 299 297 296 294 292 291 290 289 288 287 286 286 286 285 284 283 281 280 279
295 294 295 291 286 291 294 297 299 295 297 299 295 298 300 298 299 299 300 295 301 307 305 305 299 295 293 292 292 290 289 288 287 287 286 285 284 283 282 281 280 280 279 278
290 291 291 292 291 290 290 291 293 291 293 298 298 300 299 299 300 300 300 303 304 303 295 292 292 291 290 289 288 287 286 285 285 284 283 282 282 281 280 279 279 278 277 277
287 285 288 287 289 287 287 287 289 290 290 294 299 300 300 299 297 302 298 299 296 288 288 288 289 288 287 287 286 285 284 284 283 283 282 281 280 279 279 278 278 278 277 276
286 285 284 285 284 284 284 284 286 287 291 299 297 297 295 295 294 293 292 289 289 286 286 286 286 286 285 284 284 283 283 282 281 281 280 280 279 278 278 277 276 275 275 274

GFSNW_925_thetae_093.txt.gz
Theta_e
296 297 297 296 296 296 297 296 297 298 298 300 300 298 296 297 297 297 299 301 301 299 298 298 298 299 304 302 304 308 315 316 318 317 315 313 313 315 315 318 318 322 321 320
295 296 296 296 295 295 296 298 297 298 299 299 299 298 298 297 298 298 300 303 303 302 303 301 302 304 303 305 305 306 305 314 315 317 315 316 317 316 317 317 317 318 322 321
295 296 296 296 295 295 296 296 297 298 299 299 298 298 298 298 299 298 298 299 301 302 302 303 304 304 303 304 303 306 307 311 308 312 317 314 316 316 314 318 321 319 319 317
296 296 296 296 296 295 296 296 297 297 298 299 299 299 299 299 299 300 300 300 299 300 301 301 303 303 303 304 304 306 311 312 312 311 310 310 313 313 313 317 320 319 317 318
295 295 296 295 295 295 296 296 296 297 297 297 298 299 301 299 299 299 301 301 302 302 301 301 304 304 304 305 305 307 306 315 313 312 311 312 312 313 316 318 319 319 316 317
295 295 295 294 294 295 296 295 297 299 297 298 299 299 299 300 299 300 300 300 305 306 304 304 303 303 304 304 305 305 305 308 314 314 314 315 318 315 317 319 318 317 319 319
294 294 294 294 294 295 295 295 296 298 298 299 298 297 298 299 300 300 301 302 303 302 302 303 303 304 304 303 304 304 305 308 309 312 315 318 314 314 317 317 316 316 318 318
294 295 294 294 294 295 296 295 297 297 297 299 299 300 299 299 300 302 302 302 302 302 303 306 306 305 306 307 305 305 305 306 308 311 314 315 309 317 317 319 320 317 315 316
295 296 296 295 295 295 296 296 296 297 300 299 299 300 300 301 302 302 302 303 302 302 305 306 306 305 306 306 307 307 305 306 308 312 315 314 313 316 317 317 321 319 318 319
296 296 296 296 296 296 296 296 296 296 297 298 300 301 302 301 302 303 303 303 303 303 306 306 305 304 306 308 308 311 307 306 308 310 312 314 314 316 318 320 322 318 319 319
297 297 297 298 297 297 297 298 298 296 298 299 300 300 300 301 302 302 303 304 304 305 306 306 305 305 305 304 304 304 312 311 310 310 314 313 314 317 318 317 316 316 318 318
297 298 298 297 298 298 297 298 297 298 298 299 299 300 300 300 301 301 302 304 303 304 305 304 304 305 304 306 305 305 307 310 315 314 311 315 313 313 313 316 315 317 319 318
297 296 297 298 298 298 298 298 298 298 298 296 300 300 300 300 300 301 302 302 303 303 304 305 304 304 304 308 307 307 306 308 312 312 311 312 312 312 312 312 314 315 317 317
298 298 298 297 298 298 298 299 298 298 297 300 301 299 299 300 300 301 301 302 303 304 305 306 306 306 305 306 305 306 306 308 310 310 309 311 312 311 310 312 314 315 315 317
299 299 299 298 298 299 299 299 298 298 299 300 299 297 299 300 300 301 301 302 303 304 305 304 306 306 307 306 306 308 306 307 309 309 308 310 311 309 309 313 310 308 312 316
300 300 299 300 298 298 299 299 298 298 298 299 300 297 298 299 299 300 301 302 303 304 305 305 305 305 308 307 308 306 306 306 306 307 306 309 308 308 309 311 305 303 303 304
301 300 300 300 299 298 298 299 299 298 298 299 299 298 297 299 299 300 300 301 303 303 303 303 305 306 307 305 307 305 306 306 306 306 306 308 306 307 306 304 301 298 297 296
299 300 301 300 298 298 298 299 299 298 298 299 297 296 300 299 300 300 300 302 303 303 304 304 306 306 306 308 306 306 306 306 306 306 305 306 306 304 301 300 300 298 296 294
299 300 301 300 295 294 298 299 299 298 298 300 298 297 301 300 301 302 302 303 304 303 303 305 305 306 307 307 306 306 306 306 306 307 307 309 307 304 301 299 296 294 291 289
300 300 293 296 297 299 298 300 297 298 300 298 297 296 300 301 302 301 301 302 304 304 303 304 305 306 305 304 305 305 303 304 306 307 309 306 303 298 295 295 293 291 289 287
296 295 299 299 299 299 298 299 299 299 300 298 298 299 301 300 303 303 301 304 303 305 305 306 307 306 304 302 301 298 297 297 296 297 297 298 301 294 291 289 289 288 286 284
300 299 299 299 299 298 299 299 299 298 299 299 300 300 300 299 299 302 300 302 302 304 302 306 305 303 300 299 298 296 294 293 292 292 291 291 291 290 289 287 286 285 282 280
299 296 296 298 292 294 293 299 300 300 298 300 300 301 299 298 298 299 301 303 304 301 306 305 303 297 297 295 294 292 291 290 289 288 288 287 287 286 286 285 283 281 280 278
294 291 289 288 288 291 292 296 297 294 296 299 299 299 300 299 300 300 301 299 302 305 307 305 296 294 293 291 291 290 289 289 288 287 286 285 284 283 281 281 280 278 277 277
289 289 289 288 289 288 289 289 293 291 292 298 299 300 300 299 300 300 300 302 304 304 300 292 291 290 290 289 288 287 286 285 285 284 283 282 281 281 280 279 278 277 276 275
285 283 286 285 287 286 286 286 289 288 289 293 299 300 298 299 300 301 298 301 300 292 289 288 288 287 287 286 285 284 284 283 282 281 280 280 279 278 278 276 276 275 274 274
285 284 283 284 283 282 283 284 286 286 290 298 296 295 294 295 295 292 291 290 290 288 287 286 285 285 285 284 283 282 282 281 280 280 279 278 278 277 277 276 275 274 273 272

GFSNW_925_thetae_096.txt.gz
Theta_e
296 295 296 296 296 295 297 298 299 298 299 301 300 300 297 297 297 298 297 298 300 299 299 299 298 298 299 301 302 303 308 312 314 316 316 316 318 316 315 318 317 320 321 321
295 295 296 296 297 296 297 300 299 298 299 301 300 298 299 298 298 298 297 297 299 299 299 298 299 300 302 304 308 308 307 312 314 316 317 317 318 318 318 319 319 320 324 322
294 296 296 296 295 296 296 299 300 299 299 300 300 299 299 299 299 299 299 299 300 301 302 302 301 303 305 306 305 307 306 308 309 311 314 313 315 316 316 317 322 321 320 319
293 296 296 295 296 295 296 297 298 298 299 299 301 299 299 299 299 299 300 300 300 299 299 300 301 303 303 304 305 307 307 309 308 309 308 308 309 310 311 316 317 320 320 320
295 295 295 297 295 295 296 298 299 299 298 298 299 299 300 300 299 300 300 301 300 302 303 302 303 305 305 306 306 308 308 309 311 312 311 311 310 309 310 312 315 316 317 319
295 295 295 294 295 295 295 296 297 298 297 298 299 299 299 299 300 300 300 301 301 302 303 304 306 305 306 305 306 307 308 309 311 312 312 314 316 313 312 312 313 318 322 320
295 294 295 295 295 295 295 296 297 298 298 298 297 298 298 299 300 301 300 300 302 301 303 303 304 305 306 306 307 306 307 307 308 311 312 317 312 314 314 314 317 319 320 320
295 294 294 294 293 294 296 295 297 298 298 297 298 298 298 299 299 300 300 300 300 302 303 306 305 308 307 307 307 308 307 308 309 310 309 309 310 312 317 319 318 318 323 320
295 294 295 294 294 293 295 295 296 297 298 298 297 298 299 300 300 301 301 301 301 302 305 308 307 307 305 305 309 309 308 308 310 309 309 308 307 315 317 316 317 321 320 322
295 295 295 295 295 293 294 295 295 297 298 297 300 301 299 300 300 302 302 303 303 304 306 307 307 307 304 307 308 311 310 311 311 310 311 308 308 312 316 318 318 317 318 318
295 295 295 295 296 295 295 296 296 296 297 297 297 297 298 301 302 303 303 303 304 306 306 307 306 306 305 305 305 310 311 312 311 310 312 312 311 316 318 316 315 316 316 316
295 295 296 296 296 296 296 296 296 296 297 297 297 296 298 299 299 302 301 303 304 304 306 307 306 307 306 305 307 306 307 307 309 311 311 309 310 313 312 312 314 313 316 315
296 297 297 297 297 297 297 297 297 296 297 296 298 298 300 299 300 300 303 303 302 304 305 306 307 307 306 307 307 306 306 307 310 311 308 311 311 309 311 311 313 315 316 317
297 297 297 298 298 298 297 298 297 297 296 299 301 298 299 300 300 301 301 302 302 303 305 306 307 308 307 307 307 308 307 307 307 308 308 308 308 310 309 310 313 313 313 318
298 297 297 297 297 297 298 298 297 297 299 302 301 300 300 300 300 301 301 302 303 305 305 306 306 306 306 307 307 308 308 308 308 309 308 308 307 307 309 310 313 311 312 319
298 298 298 298 297 297 299 295 298 298 298 300 302 301 300 301 301 301 302 303 304 305 304 307 306 306 307 309 308 306 307 307 308 309 308 308 308 308 309 311 310 307 309 312
299 299 299 298 299 298 297 300 298 298 297 300 302 302 301 301 302 302 303 302 303 304 303 305 306 306 307 307 308 306 306 306 307 307 307 308 308 308 309 308 305 303 302 301
299 299 300 298 299 299 298 300 298 297 298 300 303 302 303 301 303 304 303 303 303 303 305 305 307 305 306 310 306 306 306 306 307 307 308 308 308 307 307 307 306 303 300 298
300 299 300 300 297 297 298 299 298 298 300 301 301 303 304 303 303 302 303 303 304 303 304 304 304 305 306 304 304 304 306 307 308 308 308 308 308 311 307 305 304 302 296 293
299 299 293 296 294 298 298 299 297 299 300 300 302 302 303 302 302 304 304 304 303 303 303 304 306 306 304 304 304 305 306 306 307 308 308 308 310 308 304 303 301 298 292 289
296 294 299 298 299 298 298 300 302 302 302 301 302 302 304 302 304 305 303 304 304 304 305 305 305 305 305 305 305 304 302 302 302 303 304 304 305 306 300 298 296 293 289 287
297 299 299 298 298 300 303 302 301 300 301 299 300 301 303 300 302 305 303 305 304 308 305 306 306 305 300 301 300 298 297 296 297 297 298 298 298 299 297 294 291 288 284 282
299 299 297 301 298 303 302 300 301 301 301 300 301 302 300 300 302 305 304 306 307 305 307 307 304 297 296 295 295 294 292 291 291 292 293 293 293 292 291 288 284 282 281 280
296 299 295 298 298 297 299 301 301 298 299 300 301 301 303 302 303 305 304 304 305 307 308 306 296 293 293 293 291 291 290 289 289 289 288 288 287 286 284 282 281 279 279 278
293 294 294 293 291 291 292 292 295 293 293 300 302 302 301 302 304 303 303 304 306 306 303 295 293 291 290 290 290 288 287 286 285 284 283 283 282 281 280 279 279 277 277 276
288 287 291 290 293 291 291 291 293 291 291 295 301 303 301 302 303 303 302 305 303 296 293 291 290 289 288 287 286 285 284 283 282 281 280 280 279 278 277 276 275 275 275 274
287 287 286 287 288 288 288 288 289 289 292 302 301 302 299 298 299 296 294 294 292 291 290 288 287 287 286 285 284 283 283 282 281 281 279 278 277 277 277 277 275 274 273 273

GFSNW_925_thetae_099.txt.gz
Theta_e
296 296 296 295 296 297 296 299 303 301 300 302 301 303 301 299 299 299 299 299 300 301 301 302 302 302 302 302 302 302 307 312 317 315 315 316 318 314 315 319 318 318 322 323
296 295 294 296 295 296 297 299 301 300 300 303 302 301 300 300 300 299 299 299 299 300 300 301 301 301 301 301 303 308 310 309 312 313 314 316 317 318 318 317 317 317 322 321
295 295 294 295 295 295 297 300 301 302 301 302 302 303 301 300 300 300 300 300 300 300 300 301 301 302 303 304 306 307 307 308 310 313 313 314 317 318 319 319 322 320 319 318
295 295 295 295 295 295 295 298 301 301 302 301 302 301 302 301 300 300 301 301 301 301 301 301 302 303 303 303 304 305 308 310 308 308 308 309 310 311 312 314 316 320 320 320
294 295 295 296 296 295 296 299 300 300 300 300 300 300 301 302 300 301 301 301 301 302 301 300 300 301 302 304 304 304 306 310 309 308 308 309 310 310 310 310 312 314 316 318
294 294 294 295 296 295 294 296 297 300 300 300 300 301 300 300 300 301 301 301 302 302 302 304 305 306 307 306 309 308 310 310 309 312 308 308 313 310 309 309 309 310 314 315
295 295 295 295 296 294 296 297 298 299 300 299 299 299 299 300 300 301 301 301 302 302 304 304 304 305 306 306 307 307 308 309 310 311 311 314 311 312 313 314 313 311 310 310
295 295 295 295 295 295 295 297 298 300 301 298 298 299 299 300 300 300 301 301 302 304 303 306 306 307 307 307 308 307 307 308 311 310 310 309 308 310 312 315 317 316 318 319
295 294 294 294 294 294 296 296 297 299 301 299 298 298 299 300 300 301 301 302 302 303 304 308 306 308 307 309 310 308 307 308 311 311 310 310 308 314 315 317 321 320 319 320
295 295 294 294 294 294 295 296 297 297 298 298 299 300 300 300 300 303 302 303 303 303 306 308 307 308 306 307 308 313 312 312 311 311 312 310 309 309 313 318 320 318 317 317
294 295 295 295 295 294 295 296 296 297 297 298 298 298 300 300 303 303 303 305 305 308 307 306 306 308 307 307 307 312 313 314 313 311 314 315 309 311 314 316 315 315 315 316
294 295 295 295 295 295 295 296 296 296 298 298 297 297 297 298 299 302 302 303 303 305 307 306 308 309 308 307 310 307 312 311 313 312 312 309 309 313 313 312 312 315 314 316
295 295 295 295 295 295 296 296 296 296 298 298 299 299 298 299 298 298 302 302 303 303 305 307 307 310 307 310 308 308 309 308 309 310 310 310 310 311 308 309 310 312 313 314
296 296 296 296 296 296 296 297 297 297 297 298 299 298 298 297 299 300 299 301 301 303 305 306 308 306 306 308 309 309 308 309 311 310 309 309 308 309 310 310 310 310 312 313
296 297 296 297 297 296 297 297 298 297 298 302 301 300 300 300 299 298 300 302 303 304 305 306 308 306 307 307 308 308 307 308 310 310 309 309 309 309 309 309 310 312 312 317
297 296 297 297 297 297 298 298 298 297 297 300 301 301 302 302 301 301 303 304 304 304 304 306 305 304 307 308 308 307 307 308 308 308 308 308 308 308 309 309 311 309 311 312
298 297 297 297 297 298 295 300 298 296 297 298 302 301 303 302 302 303 303 303 304 304 303 305 305 305 306 309 309 307 307 306 307 307 307 308 308 309 309 309 309 306 305 303
298 298 298 298 298 297 297 300 298 297 297 298 304 304 304 302 304 304 303 304 304 304 305 305 305 306 306 307 305 305 306 307 307 307 308 309 309 308 308 308 309 307 304 298
299 299 298 299 297 296 298 298 298 298 299 303 304 305 305 303 305 304 304 304 304 304 305 304 305 306 306 305 305 304 305 306 306 308 308 309 309 309 310 309 309 308 301 295
300 299 293 296 295 298 298 297 297 299 301 302 302 303 305 305 305 305 305 304 304 305 305 304 305 306 305 305 305 305 305 306 307 307 307 308 311 310 309 308 307 305 299 292
295 294 298 297 298 299 299 300 302 303 303 302 302 303 305 303 305 305 304 307 305 305 305 305 306 305 306 305 305 305 304 305 305 305 304 306 306 307 307 305 302 297 292 289
296 299 299 298 298 300 303 303 303 302 302 303 303 304 304 304 304 306 305 304 307 306 306 307 306 303 299 300 300 299 299 299 299 299 299 301 301 303 305 302 298 291 286 283
299 300 299 302 301 305 304 303 302 303 303 301 302 305 303 303 303 308 305 307 305 307 306 306 303 298 296 296 295 295 294 294 294 293 293 295 296 296 297 293 288 285 283 281
299 301 299 303 302 302 303 303 304 301 303 302 303 303 303 304 304 306 303 306 306 306 306 306 297 294 293 293 293 293 292 290 290 290 289 289 288 287 286 285 284 282 280 279
296 298 298 295 294 294 295 296 299 296 297 301 302 303 303 304 305 304 307 306 307 308 304 298 293 292 291 290 290 289 289 287 287 286 285 284 283 282 282 281 280 279 277 277
291 291 294 294 296 296 295 296 296 293 294 298 301 304 305 305 305 306 305 306 305 298 294 292 291 290 289 288 287 286 286 285 284 283 282 280 279 278 278 277 276 276 276 275
291 290 290 292 292 292 292 292 292 292 295 304 304 307 304 302 304 300 297 297 294 291 291 290 288 288 287 286 286 285 284 284 282 281 280 278 278 277 277 277 276 275 274 274

GFSNW_925_thetae_102.txt.gz
Theta_e
296 296 296 297 297 296 296 297 301 300 301 305 302 302 301 302 302 301 300 300 300 301 302 302 303 303 305 304 303 302 303 304 311 311 315 315 318 315 313 316 317 320 321 321
296 296 296 296 295 296 297 299 299 300 301 304 303 301 301 301 302 300 300 300 300 300 300 301 302 303 303 303 302 301 308 309 309 308 308 310 313 316 317 315 317 318 322 321
295 295 296 296 295 295 296 298 300 302 301 302 302 304 303 300 302 301 301 301 301 300 300 301 301 301 302 303 303 308 307 308 311 312 309 312 314 314 315 318 323 319 317 316
295 295 295 296 295 296 295 295 300 299 302 302 302 301 303 305 302 301 301 300 300 301 301 301 301 302 302 303 306 306 306 306 306 306 306 307 308 309 311 313 316 322 321 319
294 295 295 295 295 295 293 299 300 300 301 302 302 301 301 301 302 302 303 301 300 301 301 301 301 302 302 303 304 304 305 305 304 306 307 307 307 307 309 310 311 312 313 314
294 294 295 294 294 295 294 295 296 299 301 300 300 301 302 300 299 302 302 302 304 304 303 304 305 306 305 306 307 308 308 308 305 307 308 307 308 307 307 309 310 311 312 313
295 294 295 294 295 295 294 297 299 300 301 299 299 301 300 301 301 301 301 302 303 303 303 304 304 304 304 304 304 305 308 311 310 310 310 313 310 309 310 311 311 310 311 310
295 295 295 295 294 295 296 295 299 300 300 299 299 299 300 300 300 302 302 302 302 304 304 304 303 304 305 305 306 305 307 308 310 310 309 309 308 309 313 319 319 320 321 321
295 294 294 294 294 294 296 297 297 299 301 299 299 299 300 300 301 301 301 301 303 305 304 304 303 305 307 311 306 306 306 308 309 311 310 309 307 311 311 312 317 319 317 318
294 294 294 294 294 294 295 296 297 298 299 298 298 300 301 301 301 302 303 304 304 304 304 304 305 306 305 309 309 312 309 310 310 312 313 311 309 309 310 312 317 316 316 315
294 294 294 294 295 294 294 295 296 298 298 298 298 298 299 300 301 302 303 304 304 306 306 306 305 306 307 308 307 313 311 312 312 311 312 312 311 312 314 316 312 313 314 314
294 294 294 294 295 295 294 295 296 297 298 298 298 298 298 298 299 301 301 302 302 303 307 307 308 308 309 309 311 309 313 310 312 311 311 311 311 312 313 312 312 312 312 313
294 295 295 295 295 295 295 295 296 297 298 298 298 298 297 298 299 299 302 301 300 301 303 305 308 307 308 312 311 311 310 310 311 312 312 313 311 310 310 309 309 309 309 312
295 295 295 295 295 295 295 296 296 297 298 298 298 297 299 298 298 299 300 301 300 302 303 304 307 306 305 308 309 310 310 308 310 311 312 311 311 310 310 309 308 310 310 312
296 296 296 295 295 295 296 297 297 296 297 299 299 299 299 299 300 299 299 301 303 304 304 304 307 304 306 307 307 308 307 307 309 312 311 310 311 310 309 309 309 311 311 314
296 296 296 296 296 296 297 297 297 297 297 299 298 300 302 302 300 301 302 301 302 304 302 305 304 305 306 307 306 306 307 308 308 309 308 308 308 308 308 309 310 309 309 306
297 296 296 297 296 297 297 299 299 297 297 296 300 299 301 301 303 304 303 302 304 303 303 304 304 304 306 308 307 305 306 306 306 307 308 308 308 310 310 309 308 306 301 298
299 297 296 297 297 297 296 297 299 298 296 296 302 303 303 303 304 304 303 304 304 303 304 304 305 305 306 307 305 305 304 305 306 307 307 308 309 310 308 309 309 308 300 296
299 298 297 297 298 294 297 298 298 297 298 301 300 303 303 304 305 304 304 304 305 305 305 305 304 305 306 305 304 305 305 305 305 306 307 308 307 310 310 310 309 306 299 293
299 298 292 295 294 298 297 297 298 297 298 301 303 303 305 305 306 306 307 305 305 305 305 304 306 306 304 304 305 305 305 305 306 307 307 307 307 307 309 309 307 305 296 291
293 293 298 297 298 298 297 299 301 301 302 302 303 304 305 304 307 306 305 305 305 305 305 306 306 306 305 303 302 301 301 302 303 303 303 303 304 305 305 306 300 296 292 288
297 299 299 298 299 300 303 303 302 302 302 304 304 305 305 305 305 304 303 304 304 305 307 309 306 301 298 298 298 298 297 297 298 298 298 299 300 300 302 299 294 289 285 282
299 300 299 301 300 303 302 302 303 304 305 304 304 305 303 304 304 304 305 303 304 306 308 306 301 296 295 295 295 295 295 291 292 293 292 292 291 290 290 288 286 284 282 280
300 301 303 303 302 303 303 304 305 304 306 305 306 305 305 305 304 303 302 305 306 305 306 303 295 293 292 292 291 291 291 289 288 288 287 286 286 285 284 284 282 280 280 279
298 301 300 298 296 297 298 299 300 298 300 304 304 304 303 305 304 304 304 305 305 305 300 296 293 291 290 289 289 288 288 287 286 285 284 283 282 282 281 281 280 279 278 277
291 294 296 297 298 297 296 298 296 294 296 300 302 302 302 304 304 304 304 305 302 296 294 292 290 289 289 288 287 286 285 285 284 282 281 279 279 278 278 277 277 276 276 275
292 292 292 295 294 294 293 293 293 293 296 303 302 305 305 304 304 302 297 296 294 292 291 289 288 288 287 287 286 285 285 283 282 280 279 279 278 278 277 277 276 276 275 274

GFSNW_925_thetae_108.txt.gz
Theta_e
295 296 295 296 296 295 296 295 294 295 297 299 300 300 299 301 301 300 301 300 300 301 300 300 299 301 301 301 302 302 303 301 301 303 303 306 313 313 315 318 314 316 316 315
295 295 295 295 295 295 296 296 296 295 296 289 300 300 300 300 300 301 301 300 302 301 299 299 301 300 301 301 302 303 302 302 308 303 304 309 310 310 307 315 316 317 316 313
295 295 295 295 295 294 294 293 291 291 296 296 297 298 299 299 299 300 301 301 302 301 300 300 300 301 301 302 301 307 305 304 304 305 307 304 303 304 304 313 313 315 313 317
294 294 295 295 295 294 294 293 292 294 289 293 298 299 299 300 300 299 302 302 302 301 299 299 299 300 304 304 306 305 304 304 304 304 304 303 302 302 302 303 307 313 311 310
294 294 294 293 294 294 294 291 292 294 295 295 296 297 299 299 300 302 303 302 302 303 302 299 300 304 305 305 304 305 305 304 304 304 304 304 304 303 303 303 303 304 306 308
294 293 294 293 293 294 294 294 293 294 293 294 295 296 299 301 300 301 301 302 303 304 303 303 303 303 303 304 304 303 305 305 305 305 305 305 306 304 303 303 304 305 305 308
294 294 294 294 293 293 293 293 295 295 294 295 297 299 298 300 300 301 301 301 302 302 302 302 301 301 302 303 303 303 304 305 304 305 305 305 302 305 306 305 305 309 315 317
295 295 295 294 293 294 294 294 293 295 297 298 298 299 299 299 299 299 300 300 300 301 301 297 301 300 301 302 301 302 302 303 301 301 305 304 304 307 311 311 310 316 317 316
293 294 294 294 294 294 294 294 294 295 295 295 297 297 299 299 298 298 299 301 301 301 296 296 301 301 303 301 306 305 302 302 303 304 305 308 308 309 309 310 314 314 315 315
293 294 294 294 294 294 294 294 294 295 297 295 296 294 297 298 297 296 300 299 301 301 295 299 299 302 303 304 307 308 307 304 304 304 301 306 307 306 307 313 314 314 312 313
293 294 294 294 294 294 294 294 294 295 297 294 295 295 295 295 296 298 299 298 301 301 298 300 301 302 304 306 306 307 309 307 304 305 302 305 310 311 311 310 310 311 310 310
294 293 293 293 293 294 294 295 294 293 295 294 296 296 296 297 296 296 298 298 301 301 299 300 300 305 304 306 308 306 309 309 306 302 304 307 310 310 310 309 308 309 308 306
292 292 294 294 294 294 295 295 294 294 295 294 294 295 295 295 295 296 296 296 300 300 299 299 298 301 303 304 306 306 306 306 309 309 309 308 310 310 309 308 306 306 306 310
292 292 292 294 294 294 295 295 295 294 294 297 292 296 296 297 297 296 296 296 297 297 296 297 299 299 301 303 303 305 306 305 308 309 306 307 309 310 309 307 306 306 307 306
292 293 293 293 293 294 295 295 295 294 294 294 294 295 295 296 297 297 297 297 297 297 299 301 301 301 301 301 304 306 307 308 306 307 307 308 308 308 308 307 308 309 304 300
292 293 294 294 295 295 296 296 295 295 295 297 295 295 297 298 299 298 298 297 297 297 299 301 301 301 302 304 306 305 304 303 302 304 306 306 306 307 308 305 302 300 298 297
293 294 294 294 296 296 296 295 295 295 295 295 294 295 297 297 297 299 298 299 300 299 299 300 300 301 303 301 302 302 302 303 304 304 305 308 307 308 303 300 296 294 292 291
294 294 294 294 296 296 295 296 298 295 295 296 296 296 298 299 299 301 300 302 301 300 300 302 302 302 302 304 303 302 301 304 305 305 306 306 305 306 303 300 297 294 291 289
296 296 295 296 296 295 296 296 297 296 296 295 295 297 297 300 302 302 302 302 302 301 301 303 303 302 305 302 299 298 297 298 299 302 301 301 302 303 305 302 297 293 290 287
298 297 292 293 293 296 295 295 297 294 294 297 297 296 296 300 298 303 301 301 300 304 301 301 302 303 301 298 296 293 292 293 294 297 297 297 297 298 300 297 295 291 288 286
294 293 296 295 297 296 296 296 297 294 297 297 297 296 296 297 298 298 300 297 298 300 300 302 303 303 298 295 294 291 290 290 291 291 292 291 292 293 295 291 288 287 285 284
295 297 297 298 297 297 298 297 297 298 298 295 297 297 297 295 298 297 297 296 296 298 300 304 304 296 292 292 291 291 288 288 288 288 288 288 288 290 289 288 286 285 283 281
298 298 297 299 297 299 298 299 295 296 294 294 295 298 297 297 297 299 298 295 295 296 291 300 295 292 290 289 288 288 287 286 285 285 284 284 284 284 286 285 283 282 281 279
297 299 300 298 296 298 295 297 297 295 293 296 296 297 299 294 296 295 293 294 299 301 296 296 291 289 288 287 287 286 285 285 281 281 281 281 281 281 281 280 280 279 279 278
296 294 293 292 295 296 297 297 297 295 291 294 296 296 295 299 296 298 296 300 300 297 290 288 288 287 286 286 286 284 283 279 278 276 274 275 277 278 278 278 278 277 277 276
290 288 292 296 296 295 295 295 295 292 293 295 294 298 295 292 291 298 299 299 294 287 285 284 284 284 283 284 283 282 279 277 276 276 276 276 276 276 276 276 276 275 275 274
288 289 288 291 290 290 291 291 291 291 296 298 299 298 294 293 298 294 292 286 285 285 282 281 280 282 280 280 280 281 280 278 277 277 276 275 275 275 274 273 273 272 272 272

GFSNW_925_thetae_111.txt.gz
Theta_e
294 294 295 295 295 295 295 294 286 294 295 295 298 296 298 299 299 300 299 300 300 300 299 300 300 300 301 301 301 302 302 301 301 302 302 304 309 313 314 316 317 315 315 313
295 294 295 295 295 294 295 288 293 294 295 287 287 297 299 298 297 300 301 301 300 300 300 301 299 300 301 301 301 302 303 302 301 301 305 305 308 306 305 312 314 313 318 314
295 295 295 295 295 294 294 290 286 289 295 293 296 294 296 298 299 300 299 300 300 301 302 301 300 300 301 303 303 309 305 302 301 301 305 303 301 302 301 310 309 309 310 308
294 294 294 294 294 295 294 291 289 291 289 292 297 296 297 296 298 299 300 300 301 302 303 302 298 300 303 304 305 305 303 302 302 302 303 302 302 302 302 302 304 305 302 305
293 293 294 294 294 294 294 292 291 293 294 294 294 295 296 297 298 300 301 302 302 301 304 301 301 303 303 303 303 304 303 305 304 304 303 303 303 303 303 303 303 302 302 302
294 294 294 293 293 294 293 293 293 292 291 292 294 293 296 299 302 300 301 303 302 303 302 301 301 302 302 302 303 302 303 304 304 301 304 303 303 301 303 302 302 302 302 302
293 294 294 293 293 293 293 293 294 294 293 294 295 296 297 300 300 301 300 301 302 301 302 300 300 299 300 301 301 302 302 303 302 304 304 301 301 301 302 304 304 307 303 307
294 294 294 293 292 293 294 293 293 293 289 294 296 298 297 299 298 299 300 299 300 298 299 297 300 299 300 300 299 300 302 302 299 298 302 300 300 300 306 311 311 312 308 315
294 294 293 293 293 293 294 293 293 294 294 293 296 297 296 299 298 297 298 299 298 299 295 296 299 300 301 298 300 302 302 302 302 301 302 299 302 307 307 308 311 313 313 314
293 293 293 293 294 294 294 294 294 294 296 294 295 295 297 296 297 296 297 298 299 297 291 297 299 301 301 302 302 297 306 306 304 302 297 302 303 304 308 307 313 310 312 312
293 293 293 294 294 294 294 294 294 294 295 293 293 294 295 294 294 296 295 293 296 297 301 297 300 302 304 306 304 306 307 307 306 305 300 302 307 309 311 311 310 310 311 309
293 292 292 293 294 294 294 294 294 294 294 292 294 294 295 295 295 295 295 295 299 298 298 299 299 301 303 303 306 306 306 306 307 303 302 305 307 309 310 311 308 307 307 306
293 293 293 293 293 293 294 294 294 293 294 291 291 292 294 294 295 296 297 295 297 299 298 299 298 298 300 302 305 304 305 304 308 307 307 306 308 308 309 310 308 304 307 309
291 292 292 291 294 294 293 294 293 294 292 294 292 294 295 296 296 295 295 295 296 296 297 297 297 299 299 303 303 303 304 306 306 309 306 306 307 306 306 306 307 306 302 300
291 292 293 293 293 292 294 294 294 294 293 292 292 293 294 294 294 295 295 295 294 294 299 300 300 299 301 300 302 305 306 305 305 306 305 305 305 306 306 306 303 303 301 297
291 292 293 293 293 293 294 295 294 294 294 296 294 293 294 296 297 296 295 295 295 295 296 297 300 300 301 303 304 303 302 303 303 304 306 306 308 304 302 300 298 296 294 293
291 292 293 293 293 293 293 294 295 294 294 295 294 293 294 297 297 297 297 297 297 297 299 299 298 299 301 301 300 300 299 300 302 302 305 307 306 304 299 297 294 292 290 289
292 293 293 293 294 294 295 295 297 295 295 294 295 294 297 297 298 300 298 299 299 300 301 301 302 301 302 303 301 298 296 297 298 299 300 300 301 303 302 298 295 292 289 287
294 294 293 294 294 292 295 296 296 295 295 294 294 296 296 298 301 301 302 302 301 300 300 301 302 302 304 300 297 295 293 294 294 295 295 295 296 296 299 298 295 292 288 286
296 294 292 293 293 295 295 297 294 294 294 296 296 293 294 299 299 303 300 299 300 302 302 301 303 302 298 296 293 292 291 291 291 293 294 293 292 292 294 293 290 289 287 286
293 292 295 295 296 295 295 294 294 295 296 295 296 296 294 296 299 299 299 298 299 300 299 302 303 302 296 292 292 290 288 288 289 289 288 289 289 290 290 289 288 287 286 285
295 296 296 296 297 296 296 294 294 296 296 294 296 297 295 292 295 296 299 299 294 297 299 303 303 294 290 290 289 288 287 286 285 285 285 285 286 286 288 287 286 284 282 281
297 297 295 297 296 298 295 295 297 297 293 292 295 299 294 297 297 296 299 300 295 294 297 301 294 290 288 288 288 286 285 284 282 282 281 282 283 282 282 283 282 281 280 279
297 298 299 297 295 296 294 296 296 293 293 293 293 298 296 293 295 295 297 294 298 300 298 296 289 288 287 286 285 285 284 282 278 278 279 278 278 278 279 279 280 279 278 277
295 295 296 295 289 292 296 297 297 295 293 292 295 296 295 297 295 298 294 299 299 295 289 284 287 287 285 285 285 283 281 278 276 274 273 273 274 275 275 277 277 277 276 275
289 286 293 294 296 295 294 295 295 292 294 295 296 294 290 297 291 298 298 298 294 283 282 282 282 283 282 282 281 279 277 276 275 275 274 275 274 274 273 274 274 274 274 274
286 285 287 289 290 289 289 290 289 290 296 298 296 298 291 292 297 292 288 281 281 284 281 280 279 280 281 276 277 278 278 276 276 275 275 274 274 274 273 271 272 272 272 272

GFSNW_925_thetae_114.txt.gz
Theta_e
294 293 294 295 295 294 294 292 285 293 294 296 295 295 297 299 298 298 299 299 300 299 299 299 299 300 300 300 301 301 301 301 304 302 303 303 311 312 313 313 316 314 315 313
294 294 294 294 295 294 294 288 290 294 294 285 286 293 298 297 297 296 300 300 300 299 300 300 301 300 300 300 301 302 303 304 301 303 306 303 306 303 309 310 311 311 312 311
294 294 294 294 295 294 294 286 286 288 293 291 295 295 295 297 297 297 298 299 299 299 300 299 301 302 301 302 303 306 305 303 302 301 302 302 301 301 301 308 306 306 309 305
294 294 294 294 294 294 293 289 287 291 290 290 295 295 295 295 295 298 299 299 300 300 302 302 302 301 299 301 304 303 304 302 301 301 302 302 301 301 301 301 303 303 300 299
294 293 293 294 294 294 293 291 288 293 293 294 294 293 294 294 295 299 299 301 300 301 302 301 304 301 302 301 302 302 302 303 303 303 302 302 303 302 302 302 302 301 301 301
293 294 294 294 294 294 293 291 293 291 291 292 293 292 293 296 297 299 300 301 301 302 302 301 301 300 300 301 301 302 301 301 303 301 302 302 301 300 300 301 301 301 302 301
294 294 293 293 294 293 292 292 292 292 290 292 294 295 296 298 299 300 300 300 301 301 299 300 299 299 300 300 300 300 301 302 301 303 302 300 297 300 299 300 301 301 301 302
293 294 294 294 293 293 293 293 292 291 289 291 293 295 297 296 297 298 298 299 299 297 298 296 300 299 298 299 298 299 301 302 299 297 302 299 298 298 303 309 307 306 306 308
293 294 293 293 294 293 293 293 293 293 289 290 294 296 296 297 297 297 296 297 296 296 296 295 300 300 300 297 298 300 300 301 301 301 302 298 298 302 307 307 304 307 307 312
293 294 293 293 293 293 293 293 293 293 292 292 294 295 296 296 295 294 295 296 297 295 292 297 300 301 300 301 301 298 305 305 304 304 304 301 300 300 305 306 306 305 308 311
293 293 292 293 293 294 294 294 293 293 290 291 292 293 294 293 294 294 293 292 293 293 298 298 300 302 303 305 303 305 305 305 305 305 303 300 306 307 307 310 309 309 309 310
293 292 292 293 294 294 294 294 293 293 293 290 293 294 295 295 294 294 294 294 297 293 291 293 298 299 301 302 303 305 304 305 305 304 302 304 304 308 308 308 308 308 305 305
292 292 292 292 293 293 294 293 293 293 294 294 291 292 293 293 293 294 294 294 296 297 296 299 299 298 299 301 303 304 303 303 306 306 306 305 304 306 307 305 305 307 306 307
292 293 293 293 293 294 293 294 293 293 293 293 291 292 293 294 295 294 294 294 295 295 297 298 298 298 298 301 301 302 304 305 304 306 306 305 307 306 304 305 306 299 298 297
292 292 291 292 291 293 294 293 293 293 294 291 291 292 293 293 293 294 294 294 293 293 295 296 299 298 299 300 300 304 303 304 305 305 304 304 306 305 302 301 299 300 297 294
291 291 292 293 293 293 293 294 293 294 293 295 293 291 292 294 295 293 293 293 293 295 295 296 296 298 300 302 303 301 298 298 299 303 302 306 303 301 299 297 295 294 293 293
292 291 292 293 293 293 293 294 294 294 294 294 293 292 292 296 295 294 294 295 295 295 297 298 297 297 300 299 299 300 297 296 299 296 299 301 300 302 300 296 293 290 289 289
290 291 291 293 293 294 294 293 295 294 294 294 293 292 293 296 296 298 296 297 297 298 299 300 300 300 300 302 299 296 294 294 294 293 295 294 295 295 297 297 294 290 289 287
291 292 293 293 293 293 294 294 295 294 294 293 293 293 293 296 300 300 301 300 300 300 300 301 301 301 303 299 296 293 292 292 291 291 293 292 292 292 293 292 291 290 288 286
293 293 292 292 292 295 295 294 294 293 294 296 295 292 294 297 299 301 300 299 302 303 302 301 302 300 296 294 292 290 289 288 289 290 290 289 289 290 291 291 289 288 287 286
294 292 294 294 295 294 293 293 295 295 296 294 294 294 295 294 296 299 298 300 299 301 301 302 303 300 294 291 290 288 287 286 286 285 286 286 286 287 288 289 288 286 285 284
293 295 295 296 295 295 295 294 292 293 295 294 296 296 296 294 295 297 298 300 296 300 298 302 302 292 289 288 288 286 285 284 283 282 282 283 284 283 284 285 284 283 282 280
296 296 295 296 295 296 292 293 294 295 294 292 295 297 292 294 297 296 299 300 296 295 298 301 293 290 288 287 286 285 284 282 280 280 280 280 280 280 279 280 280 280 279 278
296 297 298 294 294 295 294 295 294 293 291 292 292 297 295 295 294 297 297 295 297 301 299 295 289 287 286 285 285 284 283 280 277 276 277 276 276 276 276 276 278 278 277 277
296 296 294 296 289 292 292 293 292 294 293 292 293 293 296 295 296 297 293 298 299 294 289 284 287 286 285 284 284 282 280 277 275 273 272 272 273 273 273 274 275 275 275 275
289 287 291 292 296 295 294 295 294 292 294 294 294 293 293 297 294 298 296 297 291 284 283 283 282 282 281 281 281 278 277 275 274 274 274 273 273 272 271 273 273 273 273 273
285 283 285 289 289 289 288 288 288 288 294 295 293 291 293 292 294 290 285 281 281 283 283 280 278 280 280 276 276 277 277 276 275 275 274 273 273 273 272 270 270 271 271 272

GFSNW_925_thetae_117.txt.gz
Theta_e
293 293 295 294 293 293 293 290 290 294 294 295 293 296 297 297 298 297 296 299 299 300 299 299 299 299 300 300 300 300 302 303 304 303 306 307 311 313 313 314 315 315 314 313
293 293 294 294 293 293 293 290 291 293 293 293 292 293 296 296 296 296 298 299 299 299 299 299 299 301 301 300 301 301 304 303 303 306 308 305 304 301 310 311 310 314 314 309
293 294 294 293 293 293 293 288 289 290 292 291 295 295 295 296 295 294 295 297 298 299 299 299 300 301 300 301 300 304 304 303 303 304 303 303 302 302 302 308 306 306 307 306
293 294 294 294 293 293 293 289 289 292 291 293 294 294 294 294 295 295 298 299 299 300 302 301 301 301 301 301 301 304 303 301 301 301 302 302 302 302 302 302 302 302 302 301
294 294 293 294 294 293 292 289 291 292 293 294 294 293 294 294 295 297 298 299 300 300 301 302 302 303 302 301 301 303 302 300 302 303 301 301 302 303 303 302 303 302 302 302
293 294 293 293 293 293 291 291 292 291 291 293 293 293 294 294 296 297 298 300 300 301 302 300 300 301 302 302 302 302 302 302 300 299 300 301 301 301 301 301 302 302 301 301
292 293 294 293 293 293 292 292 291 289 291 293 294 294 294 295 296 297 298 299 299 298 298 299 299 300 301 301 302 302 302 302 302 301 301 300 299 300 300 300 301 301 302 302
292 293 294 293 294 293 293 292 291 290 290 292 293 293 296 295 296 297 298 298 297 297 299 300 301 300 299 299 299 300 301 303 302 301 301 299 299 299 299 300 301 306 307 309
293 292 293 293 294 294 293 293 292 291 290 291 293 295 294 296 296 296 297 296 296 296 298 299 301 301 300 300 300 301 300 302 302 301 301 301 299 305 306 306 302 308 306 307
292 292 293 293 293 294 293 293 293 292 292 291 292 294 295 295 295 295 295 296 296 296 298 300 301 300 300 303 304 305 305 304 304 304 304 304 301 304 304 301 306 309 307 305
292 292 293 292 293 294 293 293 293 293 293 291 292 293 293 293 294 295 295 295 295 296 297 299 299 300 299 300 301 302 305 306 307 305 306 304 306 306 307 308 306 306 308 307
291 293 292 292 293 293 294 293 293 293 293 292 292 293 293 292 293 295 295 296 296 297 298 296 298 299 300 300 302 304 304 303 304 306 303 303 305 305 307 308 307 306 308 309
291 292 292 292 293 294 294 293 293 293 294 293 293 293 293 293 293 294 294 294 295 297 297 300 299 299 298 300 301 302 302 303 306 305 307 307 304 305 306 306 306 305 301 302
291 292 292 292 292 293 294 293 293 293 292 293 292 291 291 293 293 293 293 293 294 295 297 297 298 298 298 300 300 301 303 304 304 305 304 303 305 302 303 301 301 298 297 297
292 292 291 291 292 293 293 293 293 292 293 293 293 292 293 292 292 293 293 293 294 295 296 297 297 299 300 300 301 303 301 302 303 304 300 301 300 296 297 298 298 296 296 295
292 291 292 291 292 292 293 293 293 293 293 293 294 292 292 293 293 292 293 293 294 295 296 297 298 298 299 300 302 300 298 297 296 298 297 299 298 300 297 296 294 293 292 292
292 292 290 291 291 293 292 293 294 294 293 294 293 292 292 294 294 292 293 293 295 296 297 298 298 298 300 299 299 299 295 294 294 293 295 296 296 297 296 294 292 291 290 289
292 291 291 291 292 293 292 292 294 293 293 294 293 293 293 294 297 298 295 296 296 298 299 299 299 300 299 301 298 294 292 292 292 291 292 292 293 293 293 292 292 291 290 288
291 290 290 293 293 292 293 293 293 293 294 292 293 293 294 295 300 300 300 299 300 299 299 300 301 301 303 297 294 292 290 289 289 289 290 289 290 290 291 291 290 291 289 288
290 291 292 293 292 293 294 295 294 292 294 295 293 293 294 296 298 301 301 300 302 302 302 301 302 299 294 293 290 289 287 286 286 287 287 287 287 287 288 289 289 288 288 286
292 291 294 293 294 294 295 295 296 294 295 293 294 293 295 294 298 299 298 301 301 303 302 304 303 299 293 290 289 287 286 284 284 283 283 284 285 285 285 286 286 285 284 283
291 293 295 294 294 295 296 293 294 293 295 294 294 295 295 296 296 299 299 302 298 301 299 303 303 292 289 288 287 286 284 282 282 281 281 281 282 281 282 282 282 282 281 280
294 295 294 296 295 296 294 294 293 294 294 293 295 296 295 294 297 298 299 300 300 296 299 301 293 290 287 287 286 285 283 281 280 279 279 278 279 278 277 278 278 279 279 278
293 296 297 296 294 295 294 295 296 294 292 294 295 297 297 297 299 298 299 298 297 301 301 297 290 287 286 285 285 284 282 279 276 276 276 275 275 275 274 274 275 276 276 276
295 297 296 294 291 292 292 292 294 292 291 295 296 297 298 297 297 297 296 298 299 297 294 288 288 286 284 284 284 282 281 278 276 274 272 271 272 272 272 272 273 274 274 274
289 287 292 292 296 295 295 295 294 292 293 293 294 295 297 297 297 299 298 298 296 288 286 285 285 284 282 281 281 280 277 276 274 274 273 273 272 271 271 271 272 272 273 273
286 285 285 289 289 289 288 288 288 287 295 300 294 294 297 294 297 294 287 289 284 285 284 283 282 282 281 280 278 277 277 276 275 274 274 273 272 272 271 271 270 271 271 271

GFSNW_925_thetae_120.txt.gz
Theta_e
293 294 295 293 292 292 294 295 300 295 296 300 299 298 297 296 296 297 297 298 300 300 299 299 299 299 300 301 302 302 302 303 306 306 307 308 309 314 316 319 315 314 313 313
293 293 293 292 291 293 295 297 296 296 297 300 298 297 297 297 297 297 297 297 298 298 298 299 299 300 300 301 301 303 304 303 303 304 308 308 307 306 308 310 314 315 315 313
293 294 293 292 292 293 294 297 299 297 298 297 298 296 296 295 295 295 296 297 299 300 300 300 300 301 301 302 302 303 303 302 302 303 306 305 304 305 304 305 309 311 312 310
293 295 294 292 292 293 295 297 297 296 298 297 296 295 295 296 297 297 297 299 300 300 302 301 301 301 302 303 302 302 302 301 300 300 301 302 303 304 303 303 303 305 307 305
294 295 292 293 293 293 295 297 297 295 295 295 295 295 296 296 296 297 299 299 301 301 301 303 305 303 303 303 302 302 302 302 301 301 301 301 302 302 302 303 304 304 304 304
295 294 293 294 293 293 295 294 294 296 294 295 296 296 295 296 298 298 299 300 301 300 300 300 301 302 302 303 304 304 304 302 302 301 300 300 300 301 301 302 302 303 304 304
294 294 292 293 293 294 295 295 295 296 296 295 295 294 295 297 297 298 298 299 299 298 299 301 303 304 304 304 304 304 304 303 302 303 301 302 300 301 301 301 301 302 302 303
292 293 293 293 293 293 294 294 295 296 296 294 294 295 296 296 298 298 298 298 298 299 301 303 301 301 301 301 301 301 302 304 303 303 302 300 300 301 301 301 301 302 303 305
292 292 292 292 294 293 294 294 294 295 297 295 295 296 295 296 297 297 297 297 298 300 301 303 302 301 301 302 302 302 303 303 304 303 303 302 301 302 303 304 304 309 309 310
293 292 292 292 294 294 294 294 294 295 296 295 295 296 297 297 297 298 297 297 298 298 301 303 302 301 301 303 304 304 304 307 306 304 307 304 303 304 305 305 309 309 307 304
293 292 292 292 293 294 294 294 294 295 295 296 295 295 296 296 296 297 297 298 298 299 300 300 300 301 300 301 300 303 305 307 308 307 308 307 305 305 307 309 309 306 305 306
293 292 292 292 292 294 294 295 294 294 294 296 294 295 294 294 295 296 296 297 296 298 300 300 301 301 300 300 303 303 305 304 305 307 307 307 305 307 307 307 308 306 306 305
292 291 292 292 292 294 294 295 293 293 295 295 295 296 295 295 294 295 296 296 296 297 299 300 300 299 299 301 301 302 302 302 307 305 304 302 302 300 302 304 302 300 300 301
291 291 292 292 292 294 294 295 294 293 294 296 296 293 294 294 294 295 295 296 296 297 299 298 299 299 298 300 299 301 303 304 303 305 301 301 301 299 297 298 298 298 299 298
291 291 292 292 292 294 294 293 293 293 295 296 296 294 295 294 294 294 295 295 297 298 297 299 299 298 299 300 300 304 302 301 302 303 299 299 300 297 297 298 298 297 298 297
290 291 292 292 291 293 294 294 293 293 294 295 296 295 295 295 295 295 295 296 297 297 297 298 299 298 300 301 302 301 298 299 295 297 296 299 297 298 296 297 296 295 295 294
291 292 291 291 292 293 294 295 294 293 293 295 295 296 296 295 297 296 297 296 296 297 297 299 298 299 300 301 301 298 296 296 294 294 295 297 295 295 295 295 295 294 292 291
292 292 292 291 292 293 293 294 294 293 293 294 294 296 297 297 300 300 298 298 296 297 299 300 300 301 301 302 299 296 294 294 293 293 293 292 292 293 293 293 293 295 293 291
292 292 291 292 293 293 293 292 292 292 294 295 294 297 298 298 301 300 300 299 300 300 300 301 302 302 303 298 296 294 291 291 290 291 291 291 291 290 290 291 291 291 291 290
292 292 292 294 292 293 293 294 294 293 295 296 295 295 298 298 300 301 300 301 303 303 301 302 302 302 295 293 292 291 289 288 288 289 290 289 289 289 288 289 288 288 288 287
292 292 293 294 292 294 295 295 295 295 296 296 296 296 298 297 298 298 301 303 303 305 304 304 305 302 294 291 290 289 288 286 286 285 286 285 286 286 286 287 286 286 285 284
292 293 293 294 295 297 296 297 297 296 296 297 295 296 296 297 299 300 301 302 302 304 302 305 304 294 291 290 288 287 286 284 284 283 283 283 283 282 283 283 283 282 282 281
292 294 296 296 297 298 297 296 296 297 297 298 297 297 297 298 299 301 301 303 302 300 302 302 296 291 290 289 288 287 284 282 282 282 281 280 280 279 278 279 278 278 280 279
295 296 298 297 298 298 297 297 297 297 298 299 298 298 299 299 299 301 302 301 300 302 302 301 293 290 288 287 286 286 284 281 279 279 279 278 277 277 276 275 275 277 277 277
294 297 299 298 299 296 297 297 298 296 298 299 299 299 300 301 302 300 300 300 301 301 301 294 290 288 287 286 285 284 283 281 280 278 276 275 274 275 275 274 274 275 275 275
293 293 296 296 298 298 298 298 296 295 298 299 301 301 301 302 301 301 301 300 301 297 292 289 288 286 285 284 283 282 281 280 279 278 277 276 274 274 274 273 273 273 274 274
291 292 289 291 295 297 293 294 294 291 298 301 301 301 302 299 301 300 296 299 292 290 288 287 286 286 284 283 282 281 280 280 279 277 277 276 274 273 275 275 274 273 274 273

GFSNW_925_thetae_123.txt.gz
Theta_e
294 293 294 293 292 292 296 299 305 298 300 304 302 302 299 296 298 299 299 299 300 301 301 301 300 300 301 301 301 302 302 305 303 303 306 309 310 313 315 322 315 314 315 315
294 294 295 293 292 293 298 302 299 298 301 306 303 299 299 298 299 298 298 298 298 299 300 300 300 300 300 301 302 302 304 304 305 303 303 310 311 309 310 312 314 316 319 318
294 293 293 292 292 293 297 301 303 300 301 300 301 299 298 297 297 297 297 298 299 301 302 301 302 301 301 302 303 305 303 303 304 304 303 307 305 309 307 306 311 313 318 318
295 294 293 292 292 293 297 302 301 300 304 301 299 298 297 298 298 298 299 300 301 302 302 301 302 302 303 302 304 304 304 303 304 303 302 301 302 303 305 307 307 308 309 310
294 296 294 292 292 293 298 301 301 299 300 299 299 296 298 298 298 299 300 301 301 302 302 302 303 302 302 303 304 304 303 306 304 302 302 302 301 301 303 304 304 305 306 307
295 294 292 292 292 295 298 297 298 301 297 299 300 300 298 298 299 300 300 301 302 301 301 300 301 302 303 303 304 304 304 305 303 303 302 302 301 301 302 302 303 304 304 305
295 293 292 292 293 295 297 298 298 302 300 299 298 297 297 298 299 300 300 300 300 300 301 302 303 304 304 304 304 304 304 304 304 305 303 304 302 302 301 302 302 302 303 303
295 292 293 293 292 294 297 297 298 300 300 298 296 296 298 298 299 300 299 299 299 301 301 303 303 302 302 302 303 302 302 303 303 304 304 304 303 305 304 305 304 303 304 305
293 292 293 292 293 293 296 297 297 298 300 298 297 297 298 298 299 299 299 300 299 301 302 303 303 303 302 303 304 304 304 305 306 305 307 305 305 304 305 305 307 309 310 310
292 292 292 292 294 292 296 296 297 297 299 298 297 298 299 299 299 300 299 300 300 300 302 303 303 301 301 303 304 303 305 307 309 307 309 305 308 307 306 308 310 310 308 306
293 292 293 292 293 293 295 296 295 296 297 298 297 297 298 299 299 299 300 301 301 301 301 302 301 303 303 303 301 305 305 306 307 308 310 310 305 307 311 309 308 307 306 302
294 292 293 292 293 294 295 296 295 296 297 298 297 297 297 296 297 298 298 299 299 299 302 302 302 303 302 302 304 304 305 304 305 307 306 305 302 302 301 302 306 303 302 301
294 292 292 292 293 293 294 295 295 295 296 297 297 298 297 296 296 296 299 299 299 298 300 301 301 300 300 302 302 303 303 304 305 305 303 301 301 299 298 297 297 299 300 301
293 292 292 292 292 294 294 296 296 296 296 298 299 296 297 296 296 297 297 297 297 298 299 300 300 301 300 300 301 302 304 304 302 306 302 300 301 300 299 299 298 299 300 299
292 291 292 292 292 294 295 295 296 296 296 299 298 297 297 297 296 296 297 297 298 298 300 300 300 300 300 301 301 304 302 301 302 303 300 299 301 298 298 298 297 297 297 297
291 291 292 292 292 294 295 295 295 295 294 297 298 297 297 297 297 297 297 297 298 298 298 299 299 299 301 302 302 302 299 298 297 298 297 298 298 298 296 296 296 296 295 294
291 291 292 292 292 294 296 297 295 294 295 297 297 298 298 298 298 299 299 298 298 297 298 299 299 300 301 302 302 301 298 298 297 296 296 297 295 295 294 295 295 296 294 293
291 291 292 292 292 294 294 295 294 294 295 295 296 298 299 298 301 301 299 298 297 297 299 300 301 301 303 303 301 298 296 296 296 294 295 295 295 295 294 293 294 294 293 292
291 292 292 292 294 294 295 294 293 294 295 298 295 299 301 300 301 302 301 301 300 300 301 301 302 303 304 301 298 296 295 294 293 294 295 294 294 293 293 292 292 291 291 290
292 292 293 294 293 293 293 294 296 296 296 295 298 298 300 299 301 302 301 301 303 304 303 303 304 304 297 296 294 294 292 291 291 292 292 291 291 291 290 290 290 289 288 287
292 292 295 295 293 294 296 297 297 296 297 298 297 298 299 299 300 301 300 305 305 305 305 304 306 304 296 293 293 292 290 289 289 288 288 288 288 287 287 288 287 286 285 284
293 294 294 294 295 298 297 298 298 298 297 299 299 299 298 299 299 300 302 302 304 304 304 304 305 296 293 293 292 290 288 287 287 286 286 285 285 284 283 284 283 282 282 281
294 295 296 297 296 298 297 298 298 299 299 300 300 298 298 299 299 302 301 302 303 303 303 303 299 294 292 292 290 289 286 284 285 284 283 282 281 281 280 279 278 279 280 279
295 297 298 297 298 298 298 299 299 299 300 301 300 299 300 300 300 301 301 302 302 304 303 304 297 293 291 290 288 288 287 284 281 282 281 280 278 278 278 277 277 278 278 278
295 297 298 299 300 300 301 301 301 300 301 301 301 300 301 301 301 301 302 303 303 303 304 297 293 291 289 289 287 287 285 283 283 281 279 279 277 276 277 276 276 276 276 277
294 296 298 299 300 300 300 301 301 299 301 301 301 301 300 302 303 303 303 302 302 301 296 292 291 289 287 286 285 284 283 282 282 281 280 279 277 277 277 277 277 275 276 275
295 296 293 294 296 298 297 298 297 295 300 300 301 301 302 302 302 302 302 302 297 293 291 290 288 287 286 285 284 283 282 282 282 281 280 279 277 277 279 278 278 276 276 275

GFSNW_925_thetae_126.txt.gz
Theta_e
295 294 294 293 292 293 296 301 309 300 302 308 305 304 301 297 299 300 300 301 301 301 300 300 300 300 300 301 301 301 301 303 304 303 304 306 306 313 315 313 317 314 317 316
295 293 296 293 291 294 299 305 300 300 303 310 305 300 300 300 300 300 299 299 299 299 300 302 302 302 303 303 305 301 303 306 306 305 305 306 308 307 309 311 313 314 318 317
295 295 296 292 291 293 296 305 308 302 303 302 304 301 300 299 299 298 298 299 300 302 301 301 301 302 302 303 304 305 306 303 302 304 303 307 304 304 305 309 310 310 310 313
296 296 294 292 292 294 298 304 306 304 306 302 301 301 300 300 299 299 299 300 301 301 302 302 301 302 302 301 303 305 306 304 302 302 303 302 301 301 302 303 308 308 308 309
296 295 294 292 292 294 299 303 301 302 301 301 301 298 300 299 299 299 301 301 301 301 302 303 302 301 302 302 302 304 305 306 306 307 304 303 303 303 302 302 303 305 305 306
295 296 293 291 292 295 300 299 300 303 299 302 302 302 300 299 300 300 300 301 302 301 301 301 301 302 303 303 304 304 304 304 304 305 303 303 303 302 302 301 302 303 304 305
296 295 292 292 292 294 298 300 300 305 302 301 301 299 298 299 300 300 300 300 300 301 301 302 303 303 304 305 304 304 304 305 304 305 304 304 303 304 305 302 302 302 302 303
295 293 292 292 293 294 297 299 301 303 303 301 298 298 298 299 299 300 300 300 300 300 302 304 303 304 304 305 305 304 303 305 305 306 304 303 303 307 306 305 304 309 310 309
294 292 292 292 292 295 296 299 299 301 306 299 299 298 298 300 300 300 300 300 300 301 303 304 302 305 303 304 302 302 302 305 308 305 308 305 307 303 305 306 306 309 308 306
293 292 292 291 292 294 296 298 299 300 303 299 298 299 300 299 300 300 300 300 301 301 302 304 302 302 302 302 303 303 305 305 308 309 308 308 303 304 305 309 308 307 306 304
293 294 292 291 293 292 297 298 297 298 300 300 298 298 299 299 299 300 300 301 302 301 302 303 302 303 303 303 301 305 305 305 305 306 305 305 301 302 303 301 302 302 302 302
293 293 294 292 293 293 296 297 296 296 298 300 299 298 298 298 298 299 299 300 299 300 301 303 302 303 302 301 303 304 304 304 306 306 304 303 300 300 299 298 299 299 301 302
295 293 293 293 292 294 295 296 296 297 298 298 298 298 298 297 297 297 299 301 300 301 300 301 302 301 300 302 303 302 303 304 304 303 303 300 300 299 299 298 299 299 300 299
295 293 293 293 292 293 295 297 296 296 297 299 300 298 298 298 297 298 298 298 298 298 299 300 301 301 300 301 301 302 304 304 302 303 302 299 300 300 298 299 298 297 297 297
294 293 293 293 292 293 295 297 297 297 297 299 300 298 298 298 297 297 297 298 298 299 300 301 300 299 300 300 302 307 302 301 302 302 300 299 300 298 297 297 297 296 295 295
293 292 292 293 292 293 296 297 297 296 296 298 298 299 299 298 297 298 298 298 298 299 299 300 299 300 300 303 302 302 300 299 298 299 297 299 297 296 295 295 296 296 294 294
292 291 292 292 292 295 296 298 296 295 295 298 298 299 299 298 299 299 298 298 298 299 300 300 299 299 301 302 302 304 299 299 299 297 296 296 296 296 295 295 294 294 293 292
291 291 292 292 293 295 295 295 294 295 296 297 297 297 299 299 299 301 300 300 299 299 298 300 301 301 303 303 302 300 297 297 297 295 296 295 295 295 294 293 292 292 291 290
291 291 292 293 294 295 296 295 294 296 296 297 297 298 302 301 301 302 302 300 300 299 300 300 301 302 304 303 299 297 296 295 294 294 295 293 293 292 292 292 291 290 288 288
291 292 293 294 294 295 294 295 296 296 295 296 296 298 300 300 302 303 302 301 301 304 303 303 303 304 299 297 296 295 293 292 292 292 291 290 290 289 289 289 288 287 286 285
292 293 295 295 294 295 296 296 296 297 296 297 297 297 298 299 301 302 303 304 304 304 305 305 305 304 297 295 294 293 291 290 289 289 288 287 287 286 286 286 285 283 283 282
294 295 294 294 295 296 295 297 297 298 297 299 299 299 298 300 300 301 302 302 303 302 305 306 305 297 295 295 293 291 289 288 288 286 286 284 284 283 282 282 281 280 281 280
295 295 295 295 295 296 296 297 298 299 299 301 301 301 300 301 300 302 302 301 303 303 305 303 300 295 294 293 292 290 287 284 285 285 283 282 281 280 280 279 278 278 278 278
294 296 295 295 297 297 298 298 299 302 302 303 302 299 300 300 301 302 300 302 303 303 304 303 298 295 293 291 290 289 287 284 283 283 282 281 278 278 278 277 277 277 277 277
296 296 297 298 299 300 302 303 302 302 302 302 302 301 301 301 301 300 301 303 303 303 304 299 295 292 291 290 288 287 286 284 284 283 281 280 278 278 278 278 277 276 277 276
295 295 296 299 301 299 297 298 302 301 302 302 301 301 300 301 301 302 302 302 303 302 296 293 291 290 289 287 286 285 283 283 283 283 281 280 279 278 278 279 278 277 277 276
294 296 295 295 298 297 298 300 299 297 301 302 300 301 300 302 302 302 303 302 298 294 292 290 289 288 287 285 285 284 283 283 283 281 280 280 280 279 280 279 279 278 278 277